<?xml version="1.0" encoding="UTF-8" standalone="no" ?>
<gpx xmlns="http://www.topografix.com/GPX/1/1" xmlns:xsi="http://www.w3.org/2001/XMLSchema-instance" xsi:schemaLocation="http://www.topografix.com/GPX/1/1 http://www.topografix.com/GPX/1/1/gpx.xsd" version="1.1" creator="VisuGPX - https://www.visugpx.com">
  <metadata>
    <name>Orsalher 2022 Trace de base &quot;L'Artigue&quot; Ajoutez nos Spéciales à cette trace afin de créer votre parcours à la carte</name>
    <desc><![CDATA[

]]></desc>
  </metadata>
  <trk>
    <name><![CDATA[Orsalher 2022 Trace de base "L'Artigue" Ajoutez nos Spéciales à cette trace afin de créer votre parcours à la carte]]></name>
    <extensions>
      <line xmlns="http://www.topografix.com/GPX/gpx_style/0/2">
        <color>e66700</color>
        <width>4</width>
          <extensions>
            <sens>1</sens>
          </extensions>
      </line>
    </extensions>
    <trkseg>
      <trkpt lat="42.89317" lon="1.21345">
        <ele>495.7</ele>
        <time>2022-05-21T06:12:15.000Z</time>
      </trkpt>
      <trkpt lat="42.89316" lon="1.21346">
        <ele>495.4</ele>
        <time>2022-05-21T06:12:24.000Z</time>
      </trkpt>
      <trkpt lat="42.89326" lon="1.21351">
        <ele>495.2</ele>
        <time>2022-05-21T06:12:32.000Z</time>
      </trkpt>
      <trkpt lat="42.89337" lon="1.21347">
        <ele>494.8</ele>
        <time>2022-05-21T06:12:36.000Z</time>
      </trkpt>
      <trkpt lat="42.89342" lon="1.21337">
        <ele>494.9</ele>
        <time>2022-05-21T06:12:39.000Z</time>
      </trkpt>
      <trkpt lat="42.89346" lon="1.21324">
        <ele>494.7</ele>
        <time>2022-05-21T06:12:42.000Z</time>
      </trkpt>
      <trkpt lat="42.8935" lon="1.21307">
        <ele>494.6</ele>
        <time>2022-05-21T06:12:45.000Z</time>
      </trkpt>
      <trkpt lat="42.89354" lon="1.21292">
        <ele>494.5</ele>
        <time>2022-05-21T06:12:48.000Z</time>
      </trkpt>
      <trkpt lat="42.89357" lon="1.21279">
        <ele>494.5</ele>
        <time>2022-05-21T06:12:51.000Z</time>
      </trkpt>
      <trkpt lat="42.89361" lon="1.21266">
        <ele>494.4</ele>
        <time>2022-05-21T06:12:54.000Z</time>
      </trkpt>
      <trkpt lat="42.89365" lon="1.21254">
        <ele>494.6</ele>
        <time>2022-05-21T06:12:57.000Z</time>
      </trkpt>
      <trkpt lat="42.89368" lon="1.21241">
        <ele>494.7</ele>
        <time>2022-05-21T06:13:00.000Z</time>
      </trkpt>
      <trkpt lat="42.89371" lon="1.21228">
        <ele>494.5</ele>
        <time>2022-05-21T06:13:03.000Z</time>
      </trkpt>
      <trkpt lat="42.89374" lon="1.21215">
        <ele>494.6</ele>
        <time>2022-05-21T06:13:06.000Z</time>
      </trkpt>
      <trkpt lat="42.89377" lon="1.21202">
        <ele>494.2</ele>
        <time>2022-05-21T06:13:09.000Z</time>
      </trkpt>
      <trkpt lat="42.8938" lon="1.21187">
        <ele>494</ele>
        <time>2022-05-21T06:13:13.000Z</time>
      </trkpt>
      <trkpt lat="42.89382" lon="1.21174">
        <ele>494</ele>
        <time>2022-05-21T06:13:17.000Z</time>
      </trkpt>
      <trkpt lat="42.89384" lon="1.21161">
        <ele>493.8</ele>
        <time>2022-05-21T06:13:21.000Z</time>
      </trkpt>
      <trkpt lat="42.89379" lon="1.21148">
        <ele>493.6</ele>
        <time>2022-05-21T06:13:26.000Z</time>
      </trkpt>
      <trkpt lat="42.89368" lon="1.21143">
        <ele>493.3</ele>
        <time>2022-05-21T06:13:30.000Z</time>
      </trkpt>
      <trkpt lat="42.89357" lon="1.21138">
        <ele>492.9</ele>
        <time>2022-05-21T06:13:34.000Z</time>
      </trkpt>
      <trkpt lat="42.89349" lon="1.21133">
        <ele>493</ele>
        <time>2022-05-21T06:13:37.000Z</time>
      </trkpt>
      <trkpt lat="42.8934" lon="1.21127">
        <ele>493.5</ele>
        <time>2022-05-21T06:13:40.000Z</time>
      </trkpt>
      <trkpt lat="42.89332" lon="1.21122">
        <ele>493.8</ele>
        <time>2022-05-21T06:13:43.000Z</time>
      </trkpt>
      <trkpt lat="42.89324" lon="1.21116">
        <ele>493.9</ele>
        <time>2022-05-21T06:13:46.000Z</time>
      </trkpt>
      <trkpt lat="42.89315" lon="1.21112">
        <ele>494.2</ele>
        <time>2022-05-21T06:13:49.000Z</time>
      </trkpt>
      <trkpt lat="42.89306" lon="1.21111">
        <ele>494.9</ele>
        <time>2022-05-21T06:13:52.000Z</time>
      </trkpt>
      <trkpt lat="42.89297" lon="1.2111">
        <ele>495</ele>
        <time>2022-05-21T06:13:55.000Z</time>
      </trkpt>
      <trkpt lat="42.89288" lon="1.2111">
        <ele>495.5</ele>
        <time>2022-05-21T06:13:58.000Z</time>
      </trkpt>
      <trkpt lat="42.89278" lon="1.21109">
        <ele>495.8</ele>
        <time>2022-05-21T06:14:01.000Z</time>
      </trkpt>
      <trkpt lat="42.89269" lon="1.21108">
        <ele>496.4</ele>
        <time>2022-05-21T06:14:04.000Z</time>
      </trkpt>
      <trkpt lat="42.89258" lon="1.21108">
        <ele>496.6</ele>
        <time>2022-05-21T06:14:08.000Z</time>
      </trkpt>
      <trkpt lat="42.89246" lon="1.21109">
        <ele>496.9</ele>
        <time>2022-05-21T06:14:12.000Z</time>
      </trkpt>
      <trkpt lat="42.89237" lon="1.21109">
        <ele>497.1</ele>
        <time>2022-05-21T06:14:15.000Z</time>
      </trkpt>
      <trkpt lat="42.89228" lon="1.2111">
        <ele>496.9</ele>
        <time>2022-05-21T06:14:18.000Z</time>
      </trkpt>
      <trkpt lat="42.89219" lon="1.21109">
        <ele>497.1</ele>
        <time>2022-05-21T06:14:21.000Z</time>
      </trkpt>
      <trkpt lat="42.8921" lon="1.21108">
        <ele>497.4</ele>
        <time>2022-05-21T06:14:24.000Z</time>
      </trkpt>
      <trkpt lat="42.89201" lon="1.21107">
        <ele>497.5</ele>
        <time>2022-05-21T06:14:27.000Z</time>
      </trkpt>
      <trkpt lat="42.89192" lon="1.21106">
        <ele>497.5</ele>
        <time>2022-05-21T06:14:30.000Z</time>
      </trkpt>
      <trkpt lat="42.89183" lon="1.21103">
        <ele>497.7</ele>
        <time>2022-05-21T06:14:33.000Z</time>
      </trkpt>
      <trkpt lat="42.89174" lon="1.211">
        <ele>498.2</ele>
        <time>2022-05-21T06:14:36.000Z</time>
      </trkpt>
      <trkpt lat="42.89165" lon="1.21096">
        <ele>498.7</ele>
        <time>2022-05-21T06:14:39.000Z</time>
      </trkpt>
      <trkpt lat="42.89156" lon="1.21092">
        <ele>498.7</ele>
        <time>2022-05-21T06:14:42.000Z</time>
      </trkpt>
      <trkpt lat="42.89147" lon="1.21088">
        <ele>499.6</ele>
        <time>2022-05-21T06:14:45.000Z</time>
      </trkpt>
      <trkpt lat="42.89138" lon="1.21084">
        <ele>499.6</ele>
        <time>2022-05-21T06:14:48.000Z</time>
      </trkpt>
      <trkpt lat="42.89129" lon="1.2108">
        <ele>499.9</ele>
        <time>2022-05-21T06:14:51.000Z</time>
      </trkpt>
      <trkpt lat="42.8912" lon="1.21078">
        <ele>500.2</ele>
        <time>2022-05-21T06:14:54.000Z</time>
      </trkpt>
      <trkpt lat="42.8911" lon="1.21076">
        <ele>500.7</ele>
        <time>2022-05-21T06:14:57.000Z</time>
      </trkpt>
      <trkpt lat="42.89099" lon="1.21074">
        <ele>501.1</ele>
        <time>2022-05-21T06:15:00.000Z</time>
      </trkpt>
      <trkpt lat="42.89089" lon="1.21074">
        <ele>501.3</ele>
        <time>2022-05-21T06:15:03.000Z</time>
      </trkpt>
      <trkpt lat="42.89078" lon="1.21074">
        <ele>501.3</ele>
        <time>2022-05-21T06:15:06.000Z</time>
      </trkpt>
      <trkpt lat="42.89067" lon="1.21074">
        <ele>501.6</ele>
        <time>2022-05-21T06:15:09.000Z</time>
      </trkpt>
      <trkpt lat="42.89056" lon="1.21073">
        <ele>501.7</ele>
        <time>2022-05-21T06:15:12.000Z</time>
      </trkpt>
      <trkpt lat="42.89044" lon="1.21073">
        <ele>501.6</ele>
        <time>2022-05-21T06:15:15.000Z</time>
      </trkpt>
      <trkpt lat="42.89032" lon="1.21074">
        <ele>501.5</ele>
        <time>2022-05-21T06:15:18.000Z</time>
      </trkpt>
      <trkpt lat="42.89019" lon="1.21073">
        <ele>502.1</ele>
        <time>2022-05-21T06:15:21.000Z</time>
      </trkpt>
      <trkpt lat="42.89007" lon="1.21073">
        <ele>502.1</ele>
        <time>2022-05-21T06:15:24.000Z</time>
      </trkpt>
      <trkpt lat="42.88995" lon="1.21071">
        <ele>502.2</ele>
        <time>2022-05-21T06:15:27.000Z</time>
      </trkpt>
      <trkpt lat="42.88983" lon="1.2107">
        <ele>502.4</ele>
        <time>2022-05-21T06:15:30.000Z</time>
      </trkpt>
      <trkpt lat="42.88972" lon="1.21068">
        <ele>502.5</ele>
        <time>2022-05-21T06:15:33.000Z</time>
      </trkpt>
      <trkpt lat="42.8896" lon="1.21067">
        <ele>502.5</ele>
        <time>2022-05-21T06:15:36.000Z</time>
      </trkpt>
      <trkpt lat="42.88949" lon="1.21065">
        <ele>502.6</ele>
        <time>2022-05-21T06:15:39.000Z</time>
      </trkpt>
      <trkpt lat="42.88938" lon="1.21063">
        <ele>502.6</ele>
        <time>2022-05-21T06:15:42.000Z</time>
      </trkpt>
      <trkpt lat="42.88927" lon="1.21062">
        <ele>502.9</ele>
        <time>2022-05-21T06:15:45.000Z</time>
      </trkpt>
      <trkpt lat="42.88917" lon="1.2106">
        <ele>503</ele>
        <time>2022-05-21T06:15:48.000Z</time>
      </trkpt>
      <trkpt lat="42.88908" lon="1.21059">
        <ele>503.4</ele>
        <time>2022-05-21T06:15:51.000Z</time>
      </trkpt>
      <trkpt lat="42.88898" lon="1.21056">
        <ele>503.9</ele>
        <time>2022-05-21T06:15:54.000Z</time>
      </trkpt>
      <trkpt lat="42.88889" lon="1.21053">
        <ele>504.2</ele>
        <time>2022-05-21T06:15:57.000Z</time>
      </trkpt>
      <trkpt lat="42.8888" lon="1.21048">
        <ele>504.5</ele>
        <time>2022-05-21T06:16:00.000Z</time>
      </trkpt>
      <trkpt lat="42.88871" lon="1.21042">
        <ele>504.5</ele>
        <time>2022-05-21T06:16:03.000Z</time>
      </trkpt>
      <trkpt lat="42.88863" lon="1.21035">
        <ele>504.6</ele>
        <time>2022-05-21T06:16:06.000Z</time>
      </trkpt>
      <trkpt lat="42.88856" lon="1.21027">
        <ele>504.7</ele>
        <time>2022-05-21T06:16:09.000Z</time>
      </trkpt>
      <trkpt lat="42.88849" lon="1.21018">
        <ele>504.5</ele>
        <time>2022-05-21T06:16:12.000Z</time>
      </trkpt>
      <trkpt lat="42.88843" lon="1.21007">
        <ele>504.6</ele>
        <time>2022-05-21T06:16:15.000Z</time>
      </trkpt>
      <trkpt lat="42.88837" lon="1.20996">
        <ele>505.1</ele>
        <time>2022-05-21T06:16:18.000Z</time>
      </trkpt>
      <trkpt lat="42.88829" lon="1.20987">
        <ele>505</ele>
        <time>2022-05-21T06:16:21.000Z</time>
      </trkpt>
      <trkpt lat="42.8882" lon="1.20981">
        <ele>505.1</ele>
        <time>2022-05-21T06:16:24.000Z</time>
      </trkpt>
      <trkpt lat="42.8881" lon="1.20979">
        <ele>504.9</ele>
        <time>2022-05-21T06:16:27.000Z</time>
      </trkpt>
      <trkpt lat="42.888" lon="1.2098">
        <ele>505</ele>
        <time>2022-05-21T06:16:30.000Z</time>
      </trkpt>
      <trkpt lat="42.88789" lon="1.20985">
        <ele>505.3</ele>
        <time>2022-05-21T06:16:33.000Z</time>
      </trkpt>
      <trkpt lat="42.8878" lon="1.20991">
        <ele>505.5</ele>
        <time>2022-05-21T06:16:36.000Z</time>
      </trkpt>
      <trkpt lat="42.88771" lon="1.20999">
        <ele>506</ele>
        <time>2022-05-21T06:16:39.000Z</time>
      </trkpt>
      <trkpt lat="42.88764" lon="1.21007">
        <ele>506.2</ele>
        <time>2022-05-21T06:16:42.000Z</time>
      </trkpt>
      <trkpt lat="42.88756" lon="1.21018">
        <ele>506.5</ele>
        <time>2022-05-21T06:16:45.000Z</time>
      </trkpt>
      <trkpt lat="42.8875" lon="1.21031">
        <ele>507.1</ele>
        <time>2022-05-21T06:16:48.000Z</time>
      </trkpt>
      <trkpt lat="42.88746" lon="1.21045">
        <ele>507.5</ele>
        <time>2022-05-21T06:16:51.000Z</time>
      </trkpt>
      <trkpt lat="42.88743" lon="1.21059">
        <ele>508.3</ele>
        <time>2022-05-21T06:16:54.000Z</time>
      </trkpt>
      <trkpt lat="42.88739" lon="1.21074">
        <ele>509</ele>
        <time>2022-05-21T06:16:57.000Z</time>
      </trkpt>
      <trkpt lat="42.88734" lon="1.21086">
        <ele>509.3</ele>
        <time>2022-05-21T06:17:00.000Z</time>
      </trkpt>
      <trkpt lat="42.88727" lon="1.21098">
        <ele>510.1</ele>
        <time>2022-05-21T06:17:03.000Z</time>
      </trkpt>
      <trkpt lat="42.88718" lon="1.21107">
        <ele>510.3</ele>
        <time>2022-05-21T06:17:06.000Z</time>
      </trkpt>
      <trkpt lat="42.88709" lon="1.21114">
        <ele>510.9</ele>
        <time>2022-05-21T06:17:09.000Z</time>
      </trkpt>
      <trkpt lat="42.88699" lon="1.21118">
        <ele>511.3</ele>
        <time>2022-05-21T06:17:12.000Z</time>
      </trkpt>
      <trkpt lat="42.88688" lon="1.2112">
        <ele>511.6</ele>
        <time>2022-05-21T06:17:15.000Z</time>
      </trkpt>
      <trkpt lat="42.88678" lon="1.21122">
        <ele>511.2</ele>
        <time>2022-05-21T06:17:18.000Z</time>
      </trkpt>
      <trkpt lat="42.88667" lon="1.21122">
        <ele>511.2</ele>
        <time>2022-05-21T06:17:21.000Z</time>
      </trkpt>
      <trkpt lat="42.88656" lon="1.21122">
        <ele>510.8</ele>
        <time>2022-05-21T06:17:24.000Z</time>
      </trkpt>
      <trkpt lat="42.88646" lon="1.21122">
        <ele>511.1</ele>
        <time>2022-05-21T06:17:27.000Z</time>
      </trkpt>
      <trkpt lat="42.88635" lon="1.21121">
        <ele>511</ele>
        <time>2022-05-21T06:17:30.000Z</time>
      </trkpt>
      <trkpt lat="42.88624" lon="1.21118">
        <ele>511.2</ele>
        <time>2022-05-21T06:17:33.000Z</time>
      </trkpt>
      <trkpt lat="42.88614" lon="1.21113">
        <ele>511.6</ele>
        <time>2022-05-21T06:17:36.000Z</time>
      </trkpt>
      <trkpt lat="42.88603" lon="1.21109">
        <ele>511.7</ele>
        <time>2022-05-21T06:17:39.000Z</time>
      </trkpt>
      <trkpt lat="42.88593" lon="1.21104">
        <ele>511.8</ele>
        <time>2022-05-21T06:17:42.000Z</time>
      </trkpt>
      <trkpt lat="42.88582" lon="1.21099">
        <ele>512.2</ele>
        <time>2022-05-21T06:17:45.000Z</time>
      </trkpt>
      <trkpt lat="42.88572" lon="1.21095">
        <ele>512.6</ele>
        <time>2022-05-21T06:17:48.000Z</time>
      </trkpt>
      <trkpt lat="42.88563" lon="1.2109">
        <ele>513.5</ele>
        <time>2022-05-21T06:17:51.000Z</time>
      </trkpt>
      <trkpt lat="42.88552" lon="1.21085">
        <ele>513.6</ele>
        <time>2022-05-21T06:17:54.000Z</time>
      </trkpt>
      <trkpt lat="42.88542" lon="1.21081">
        <ele>514.1</ele>
        <time>2022-05-21T06:17:57.000Z</time>
      </trkpt>
      <trkpt lat="42.88532" lon="1.21077">
        <ele>514.4</ele>
        <time>2022-05-21T06:18:00.000Z</time>
      </trkpt>
      <trkpt lat="42.88522" lon="1.21072">
        <ele>514.5</ele>
        <time>2022-05-21T06:18:03.000Z</time>
      </trkpt>
      <trkpt lat="42.88512" lon="1.21068">
        <ele>515.3</ele>
        <time>2022-05-21T06:18:06.000Z</time>
      </trkpt>
      <trkpt lat="42.88502" lon="1.21063">
        <ele>515.4</ele>
        <time>2022-05-21T06:18:09.000Z</time>
      </trkpt>
      <trkpt lat="42.88492" lon="1.21059">
        <ele>516</ele>
        <time>2022-05-21T06:18:12.000Z</time>
      </trkpt>
      <trkpt lat="42.88482" lon="1.21055">
        <ele>515.6</ele>
        <time>2022-05-21T06:18:15.000Z</time>
      </trkpt>
      <trkpt lat="42.88472" lon="1.21051">
        <ele>516</ele>
        <time>2022-05-21T06:18:18.000Z</time>
      </trkpt>
      <trkpt lat="42.88461" lon="1.21047">
        <ele>516.5</ele>
        <time>2022-05-21T06:18:21.000Z</time>
      </trkpt>
      <trkpt lat="42.88451" lon="1.21043">
        <ele>516.6</ele>
        <time>2022-05-21T06:18:24.000Z</time>
      </trkpt>
      <trkpt lat="42.88441" lon="1.21037">
        <ele>517.1</ele>
        <time>2022-05-21T06:18:27.000Z</time>
      </trkpt>
      <trkpt lat="42.88432" lon="1.2103">
        <ele>517</ele>
        <time>2022-05-21T06:18:30.000Z</time>
      </trkpt>
      <trkpt lat="42.88424" lon="1.21022">
        <ele>517.1</ele>
        <time>2022-05-21T06:18:33.000Z</time>
      </trkpt>
      <trkpt lat="42.88416" lon="1.21013">
        <ele>517.1</ele>
        <time>2022-05-21T06:18:36.000Z</time>
      </trkpt>
      <trkpt lat="42.88408" lon="1.21003">
        <ele>517.5</ele>
        <time>2022-05-21T06:18:39.000Z</time>
      </trkpt>
      <trkpt lat="42.884" lon="1.20995">
        <ele>517.7</ele>
        <time>2022-05-21T06:18:42.000Z</time>
      </trkpt>
      <trkpt lat="42.88392" lon="1.20986">
        <ele>517.9</ele>
        <time>2022-05-21T06:18:45.000Z</time>
      </trkpt>
      <trkpt lat="42.88383" lon="1.20979">
        <ele>518.1</ele>
        <time>2022-05-21T06:18:48.000Z</time>
      </trkpt>
      <trkpt lat="42.88374" lon="1.20971">
        <ele>518.4</ele>
        <time>2022-05-21T06:18:51.000Z</time>
      </trkpt>
      <trkpt lat="42.88365" lon="1.20963">
        <ele>518.3</ele>
        <time>2022-05-21T06:18:54.000Z</time>
      </trkpt>
      <trkpt lat="42.88356" lon="1.20955">
        <ele>518.7</ele>
        <time>2022-05-21T06:18:57.000Z</time>
      </trkpt>
      <trkpt lat="42.88347" lon="1.20946">
        <ele>518.6</ele>
        <time>2022-05-21T06:19:00.000Z</time>
      </trkpt>
      <trkpt lat="42.88338" lon="1.20937">
        <ele>519.1</ele>
        <time>2022-05-21T06:19:03.000Z</time>
      </trkpt>
      <trkpt lat="42.8833" lon="1.20928">
        <ele>519.2</ele>
        <time>2022-05-21T06:19:06.000Z</time>
      </trkpt>
      <trkpt lat="42.88321" lon="1.20919">
        <ele>519.4</ele>
        <time>2022-05-21T06:19:09.000Z</time>
      </trkpt>
      <trkpt lat="42.88312" lon="1.20911">
        <ele>519.7</ele>
        <time>2022-05-21T06:19:12.000Z</time>
      </trkpt>
      <trkpt lat="42.88303" lon="1.20902">
        <ele>519.9</ele>
        <time>2022-05-21T06:19:15.000Z</time>
      </trkpt>
      <trkpt lat="42.88294" lon="1.20893">
        <ele>520.1</ele>
        <time>2022-05-21T06:19:18.000Z</time>
      </trkpt>
      <trkpt lat="42.88284" lon="1.20885">
        <ele>520.4</ele>
        <time>2022-05-21T06:19:21.000Z</time>
      </trkpt>
      <trkpt lat="42.88274" lon="1.20878">
        <ele>520.6</ele>
        <time>2022-05-21T06:19:24.000Z</time>
      </trkpt>
      <trkpt lat="42.88264" lon="1.20872">
        <ele>520.6</ele>
        <time>2022-05-21T06:19:27.000Z</time>
      </trkpt>
      <trkpt lat="42.88254" lon="1.20868">
        <ele>521.1</ele>
        <time>2022-05-21T06:19:30.000Z</time>
      </trkpt>
      <trkpt lat="42.88243" lon="1.20865">
        <ele>521.1</ele>
        <time>2022-05-21T06:19:33.000Z</time>
      </trkpt>
      <trkpt lat="42.88232" lon="1.20862">
        <ele>521.5</ele>
        <time>2022-05-21T06:19:36.000Z</time>
      </trkpt>
      <trkpt lat="42.88221" lon="1.20858">
        <ele>521.9</ele>
        <time>2022-05-21T06:19:39.000Z</time>
      </trkpt>
      <trkpt lat="42.8821" lon="1.20853">
        <ele>522.5</ele>
        <time>2022-05-21T06:19:42.000Z</time>
      </trkpt>
      <trkpt lat="42.88201" lon="1.20846">
        <ele>522.8</ele>
        <time>2022-05-21T06:19:45.000Z</time>
      </trkpt>
      <trkpt lat="42.88192" lon="1.20837">
        <ele>523.1</ele>
        <time>2022-05-21T06:19:48.000Z</time>
      </trkpt>
      <trkpt lat="42.88183" lon="1.20829">
        <ele>523.8</ele>
        <time>2022-05-21T06:19:51.000Z</time>
      </trkpt>
      <trkpt lat="42.88175" lon="1.20818">
        <ele>524</ele>
        <time>2022-05-21T06:19:54.000Z</time>
      </trkpt>
      <trkpt lat="42.88166" lon="1.20806">
        <ele>524.2</ele>
        <time>2022-05-21T06:19:57.000Z</time>
      </trkpt>
      <trkpt lat="42.88159" lon="1.20798">
        <ele>524.6</ele>
        <time>2022-05-21T06:19:59.000Z</time>
      </trkpt>
      <trkpt lat="42.88152" lon="1.20789">
        <ele>524.8</ele>
        <time>2022-05-21T06:20:01.000Z</time>
      </trkpt>
      <trkpt lat="42.88145" lon="1.20781">
        <ele>524.7</ele>
        <time>2022-05-21T06:20:03.000Z</time>
      </trkpt>
      <trkpt lat="42.88137" lon="1.20772">
        <ele>524.5</ele>
        <time>2022-05-21T06:20:05.000Z</time>
      </trkpt>
      <trkpt lat="42.8813" lon="1.20764">
        <ele>524.7</ele>
        <time>2022-05-21T06:20:07.000Z</time>
      </trkpt>
      <trkpt lat="42.8812" lon="1.20756">
        <ele>524.4</ele>
        <time>2022-05-21T06:20:09.000Z</time>
      </trkpt>
      <trkpt lat="42.88109" lon="1.20752">
        <ele>524.3</ele>
        <time>2022-05-21T06:20:11.000Z</time>
      </trkpt>
      <trkpt lat="42.88098" lon="1.20752">
        <ele>524.3</ele>
        <time>2022-05-21T06:20:13.000Z</time>
      </trkpt>
      <trkpt lat="42.88089" lon="1.20752">
        <ele>524.8</ele>
        <time>2022-05-21T06:20:15.000Z</time>
      </trkpt>
      <trkpt lat="42.88077" lon="1.20752">
        <ele>524.6</ele>
        <time>2022-05-21T06:20:18.000Z</time>
      </trkpt>
      <trkpt lat="42.88066" lon="1.20752">
        <ele>525</ele>
        <time>2022-05-21T06:20:21.000Z</time>
      </trkpt>
      <trkpt lat="42.88055" lon="1.20752">
        <ele>524.6</ele>
        <time>2022-05-21T06:20:24.000Z</time>
      </trkpt>
      <trkpt lat="42.88045" lon="1.20752">
        <ele>524.8</ele>
        <time>2022-05-21T06:20:27.000Z</time>
      </trkpt>
      <trkpt lat="42.88036" lon="1.20752">
        <ele>525.3</ele>
        <time>2022-05-21T06:20:30.000Z</time>
      </trkpt>
      <trkpt lat="42.88025" lon="1.20752">
        <ele>525</ele>
        <time>2022-05-21T06:20:34.000Z</time>
      </trkpt>
      <trkpt lat="42.88014" lon="1.20753">
        <ele>525.3</ele>
        <time>2022-05-21T06:20:38.000Z</time>
      </trkpt>
      <trkpt lat="42.88003" lon="1.20754">
        <ele>525.3</ele>
        <time>2022-05-21T06:20:42.000Z</time>
      </trkpt>
      <trkpt lat="42.87992" lon="1.20756">
        <ele>525.8</ele>
        <time>2022-05-21T06:20:46.000Z</time>
      </trkpt>
      <trkpt lat="42.87981" lon="1.20756">
        <ele>526.5</ele>
        <time>2022-05-21T06:20:50.000Z</time>
      </trkpt>
      <trkpt lat="42.87971" lon="1.20756">
        <ele>526.3</ele>
        <time>2022-05-21T06:20:54.000Z</time>
      </trkpt>
      <trkpt lat="42.87962" lon="1.20756">
        <ele>527.1</ele>
        <time>2022-05-21T06:20:59.000Z</time>
      </trkpt>
      <trkpt lat="42.87952" lon="1.20756">
        <ele>527.5</ele>
        <time>2022-05-21T06:21:04.000Z</time>
      </trkpt>
      <trkpt lat="42.87943" lon="1.20755">
        <ele>527.6</ele>
        <time>2022-05-21T06:21:08.000Z</time>
      </trkpt>
      <trkpt lat="42.87932" lon="1.20754">
        <ele>528.4</ele>
        <time>2022-05-21T06:21:12.000Z</time>
      </trkpt>
      <trkpt lat="42.87921" lon="1.20752">
        <ele>528.7</ele>
        <time>2022-05-21T06:21:16.000Z</time>
      </trkpt>
      <trkpt lat="42.8791" lon="1.20751">
        <ele>528.8</ele>
        <time>2022-05-21T06:21:20.000Z</time>
      </trkpt>
      <trkpt lat="42.879" lon="1.20749">
        <ele>529.3</ele>
        <time>2022-05-21T06:21:24.000Z</time>
      </trkpt>
      <trkpt lat="42.87888" lon="1.20746">
        <ele>529.5</ele>
        <time>2022-05-21T06:21:28.000Z</time>
      </trkpt>
      <trkpt lat="42.87877" lon="1.20742">
        <ele>529.8</ele>
        <time>2022-05-21T06:21:32.000Z</time>
      </trkpt>
      <trkpt lat="42.87866" lon="1.20737">
        <ele>529.7</ele>
        <time>2022-05-21T06:21:36.000Z</time>
      </trkpt>
      <trkpt lat="42.87857" lon="1.2073">
        <ele>530.2</ele>
        <time>2022-05-21T06:21:39.000Z</time>
      </trkpt>
      <trkpt lat="42.87848" lon="1.20722">
        <ele>530.1</ele>
        <time>2022-05-21T06:21:42.000Z</time>
      </trkpt>
      <trkpt lat="42.87838" lon="1.20713">
        <ele>529.6</ele>
        <time>2022-05-21T06:21:45.000Z</time>
      </trkpt>
      <trkpt lat="42.8783" lon="1.20705">
        <ele>529.8</ele>
        <time>2022-05-21T06:21:47.000Z</time>
      </trkpt>
      <trkpt lat="42.87819" lon="1.20695">
        <ele>529.5</ele>
        <time>2022-05-21T06:21:49.000Z</time>
      </trkpt>
      <trkpt lat="42.87807" lon="1.20686">
        <ele>529.3</ele>
        <time>2022-05-21T06:21:51.000Z</time>
      </trkpt>
      <trkpt lat="42.87792" lon="1.20678">
        <ele>529.8</ele>
        <time>2022-05-21T06:21:53.000Z</time>
      </trkpt>
      <trkpt lat="42.87778" lon="1.20676">
        <ele>528.8</ele>
        <time>2022-05-21T06:21:55.000Z</time>
      </trkpt>
      <trkpt lat="42.87767" lon="1.20679">
        <ele>528.9</ele>
        <time>2022-05-21T06:21:57.000Z</time>
      </trkpt>
      <trkpt lat="42.87756" lon="1.20687">
        <ele>529.6</ele>
        <time>2022-05-21T06:22:00.000Z</time>
      </trkpt>
      <trkpt lat="42.87747" lon="1.20691">
        <ele>530.1</ele>
        <time>2022-05-21T06:22:03.000Z</time>
      </trkpt>
      <trkpt lat="42.87737" lon="1.20692">
        <ele>530.4</ele>
        <time>2022-05-21T06:22:06.000Z</time>
      </trkpt>
      <trkpt lat="42.87728" lon="1.2069">
        <ele>531.1</ele>
        <time>2022-05-21T06:22:09.000Z</time>
      </trkpt>
      <trkpt lat="42.87718" lon="1.20687">
        <ele>531.3</ele>
        <time>2022-05-21T06:22:12.000Z</time>
      </trkpt>
      <trkpt lat="42.87709" lon="1.20683">
        <ele>531.7</ele>
        <time>2022-05-21T06:22:15.000Z</time>
      </trkpt>
      <trkpt lat="42.87698" lon="1.20678">
        <ele>532.2</ele>
        <time>2022-05-21T06:22:19.000Z</time>
      </trkpt>
      <trkpt lat="42.8769" lon="1.20673">
        <ele>532.5</ele>
        <time>2022-05-21T06:22:22.000Z</time>
      </trkpt>
      <trkpt lat="42.87681" lon="1.20669">
        <ele>532.6</ele>
        <time>2022-05-21T06:22:25.000Z</time>
      </trkpt>
      <trkpt lat="42.87672" lon="1.20664">
        <ele>532.7</ele>
        <time>2022-05-21T06:22:28.000Z</time>
      </trkpt>
      <trkpt lat="42.87663" lon="1.20659">
        <ele>532.9</ele>
        <time>2022-05-21T06:22:31.000Z</time>
      </trkpt>
      <trkpt lat="42.87653" lon="1.20655">
        <ele>532.8</ele>
        <time>2022-05-21T06:22:34.000Z</time>
      </trkpt>
      <trkpt lat="42.87643" lon="1.2065">
        <ele>532.8</ele>
        <time>2022-05-21T06:22:37.000Z</time>
      </trkpt>
      <trkpt lat="42.87634" lon="1.20646">
        <ele>533.4</ele>
        <time>2022-05-21T06:22:40.000Z</time>
      </trkpt>
      <trkpt lat="42.87624" lon="1.20641">
        <ele>533.5</ele>
        <time>2022-05-21T06:22:43.000Z</time>
      </trkpt>
      <trkpt lat="42.87614" lon="1.20637">
        <ele>533.5</ele>
        <time>2022-05-21T06:22:46.000Z</time>
      </trkpt>
      <trkpt lat="42.87604" lon="1.20632">
        <ele>533.9</ele>
        <time>2022-05-21T06:22:49.000Z</time>
      </trkpt>
      <trkpt lat="42.87594" lon="1.20627">
        <ele>534.1</ele>
        <time>2022-05-21T06:22:52.000Z</time>
      </trkpt>
      <trkpt lat="42.87584" lon="1.20623">
        <ele>533.8</ele>
        <time>2022-05-21T06:22:55.000Z</time>
      </trkpt>
      <trkpt lat="42.87574" lon="1.20618">
        <ele>534.3</ele>
        <time>2022-05-21T06:22:58.000Z</time>
      </trkpt>
      <trkpt lat="42.87564" lon="1.20614">
        <ele>534.8</ele>
        <time>2022-05-21T06:23:01.000Z</time>
      </trkpt>
      <trkpt lat="42.87554" lon="1.20609">
        <ele>535.1</ele>
        <time>2022-05-21T06:23:04.000Z</time>
      </trkpt>
      <trkpt lat="42.87544" lon="1.20605">
        <ele>535.4</ele>
        <time>2022-05-21T06:23:07.000Z</time>
      </trkpt>
      <trkpt lat="42.87534" lon="1.206">
        <ele>535.7</ele>
        <time>2022-05-21T06:23:10.000Z</time>
      </trkpt>
      <trkpt lat="42.87525" lon="1.20596">
        <ele>536.3</ele>
        <time>2022-05-21T06:23:13.000Z</time>
      </trkpt>
      <trkpt lat="42.87515" lon="1.20591">
        <ele>536.8</ele>
        <time>2022-05-21T06:23:16.000Z</time>
      </trkpt>
      <trkpt lat="42.87505" lon="1.20587">
        <ele>536.9</ele>
        <time>2022-05-21T06:23:19.000Z</time>
      </trkpt>
      <trkpt lat="42.87494" lon="1.20582">
        <ele>537.1</ele>
        <time>2022-05-21T06:23:22.000Z</time>
      </trkpt>
      <trkpt lat="42.87483" lon="1.20576">
        <ele>537.4</ele>
        <time>2022-05-21T06:23:25.000Z</time>
      </trkpt>
      <trkpt lat="42.87471" lon="1.2057">
        <ele>537.5</ele>
        <time>2022-05-21T06:23:28.000Z</time>
      </trkpt>
      <trkpt lat="42.87458" lon="1.20564">
        <ele>537.7</ele>
        <time>2022-05-21T06:23:31.000Z</time>
      </trkpt>
      <trkpt lat="42.87446" lon="1.20558">
        <ele>537.5</ele>
        <time>2022-05-21T06:23:34.000Z</time>
      </trkpt>
      <trkpt lat="42.87437" lon="1.20554">
        <ele>537.4</ele>
        <time>2022-05-21T06:23:36.000Z</time>
      </trkpt>
      <trkpt lat="42.87428" lon="1.2055">
        <ele>537.4</ele>
        <time>2022-05-21T06:23:38.000Z</time>
      </trkpt>
      <trkpt lat="42.8742" lon="1.20547">
        <ele>537.5</ele>
        <time>2022-05-21T06:23:40.000Z</time>
      </trkpt>
      <trkpt lat="42.87408" lon="1.20542">
        <ele>537.6</ele>
        <time>2022-05-21T06:23:43.000Z</time>
      </trkpt>
      <trkpt lat="42.87396" lon="1.20536">
        <ele>537.7</ele>
        <time>2022-05-21T06:23:46.000Z</time>
      </trkpt>
      <trkpt lat="42.87384" lon="1.20531">
        <ele>538</ele>
        <time>2022-05-21T06:23:49.000Z</time>
      </trkpt>
      <trkpt lat="42.87371" lon="1.20526">
        <ele>538</ele>
        <time>2022-05-21T06:23:52.000Z</time>
      </trkpt>
      <trkpt lat="42.87359" lon="1.20521">
        <ele>538.4</ele>
        <time>2022-05-21T06:23:55.000Z</time>
      </trkpt>
      <trkpt lat="42.87347" lon="1.20516">
        <ele>538.5</ele>
        <time>2022-05-21T06:23:58.000Z</time>
      </trkpt>
      <trkpt lat="42.87336" lon="1.20511">
        <ele>539.1</ele>
        <time>2022-05-21T06:24:01.000Z</time>
      </trkpt>
      <trkpt lat="42.87326" lon="1.20505">
        <ele>539.6</ele>
        <time>2022-05-21T06:24:04.000Z</time>
      </trkpt>
      <trkpt lat="42.87316" lon="1.20499">
        <ele>539.7</ele>
        <time>2022-05-21T06:24:07.000Z</time>
      </trkpt>
      <trkpt lat="42.87305" lon="1.20493">
        <ele>539.8</ele>
        <time>2022-05-21T06:24:10.000Z</time>
      </trkpt>
      <trkpt lat="42.87294" lon="1.20485">
        <ele>540.7</ele>
        <time>2022-05-21T06:24:13.000Z</time>
      </trkpt>
      <trkpt lat="42.87283" lon="1.20478">
        <ele>540.7</ele>
        <time>2022-05-21T06:24:16.000Z</time>
      </trkpt>
      <trkpt lat="42.87274" lon="1.20472">
        <ele>540.8</ele>
        <time>2022-05-21T06:24:18.000Z</time>
      </trkpt>
      <trkpt lat="42.87264" lon="1.20466">
        <ele>541.2</ele>
        <time>2022-05-21T06:24:20.000Z</time>
      </trkpt>
      <trkpt lat="42.87252" lon="1.2046">
        <ele>541.1</ele>
        <time>2022-05-21T06:24:22.000Z</time>
      </trkpt>
      <trkpt lat="42.8724" lon="1.20454">
        <ele>541.4</ele>
        <time>2022-05-21T06:24:24.000Z</time>
      </trkpt>
      <trkpt lat="42.87227" lon="1.2045">
        <ele>541.2</ele>
        <time>2022-05-21T06:24:26.000Z</time>
      </trkpt>
      <trkpt lat="42.87215" lon="1.20447">
        <ele>540.9</ele>
        <time>2022-05-21T06:24:28.000Z</time>
      </trkpt>
      <trkpt lat="42.87206" lon="1.20445">
        <ele>541.2</ele>
        <time>2022-05-21T06:24:30.000Z</time>
      </trkpt>
      <trkpt lat="42.87194" lon="1.20442">
        <ele>541.5</ele>
        <time>2022-05-21T06:24:33.000Z</time>
      </trkpt>
      <trkpt lat="42.87183" lon="1.20438">
        <ele>541.7</ele>
        <time>2022-05-21T06:24:36.000Z</time>
      </trkpt>
      <trkpt lat="42.87172" lon="1.20432">
        <ele>541.9</ele>
        <time>2022-05-21T06:24:39.000Z</time>
      </trkpt>
      <trkpt lat="42.87162" lon="1.20427">
        <ele>541.7</ele>
        <time>2022-05-21T06:24:42.000Z</time>
      </trkpt>
      <trkpt lat="42.87154" lon="1.20419">
        <ele>541.3</ele>
        <time>2022-05-21T06:24:45.000Z</time>
      </trkpt>
      <trkpt lat="42.87158" lon="1.20404">
        <ele>541.7</ele>
        <time>2022-05-21T06:24:49.000Z</time>
      </trkpt>
      <trkpt lat="42.87165" lon="1.20394">
        <ele>541.4</ele>
        <time>2022-05-21T06:24:52.000Z</time>
      </trkpt>
      <trkpt lat="42.87171" lon="1.20384">
        <ele>541.3</ele>
        <time>2022-05-21T06:24:55.000Z</time>
      </trkpt>
      <trkpt lat="42.87177" lon="1.20375">
        <ele>541.9</ele>
        <time>2022-05-21T06:24:58.000Z</time>
      </trkpt>
      <trkpt lat="42.87183" lon="1.20365">
        <ele>542.3</ele>
        <time>2022-05-21T06:25:01.000Z</time>
      </trkpt>
      <trkpt lat="42.8719" lon="1.20356">
        <ele>542.4</ele>
        <time>2022-05-21T06:25:04.000Z</time>
      </trkpt>
      <trkpt lat="42.87196" lon="1.20346">
        <ele>542.6</ele>
        <time>2022-05-21T06:25:07.000Z</time>
      </trkpt>
      <trkpt lat="42.87201" lon="1.20334">
        <ele>543.2</ele>
        <time>2022-05-21T06:25:11.000Z</time>
      </trkpt>
      <trkpt lat="42.87205" lon="1.2032">
        <ele>543.6</ele>
        <time>2022-05-21T06:25:15.000Z</time>
      </trkpt>
      <trkpt lat="42.87206" lon="1.20305">
        <ele>544.7</ele>
        <time>2022-05-21T06:25:19.000Z</time>
      </trkpt>
      <trkpt lat="42.87206" lon="1.20289">
        <ele>545.3</ele>
        <time>2022-05-21T06:25:23.000Z</time>
      </trkpt>
      <trkpt lat="42.87203" lon="1.20275">
        <ele>546.2</ele>
        <time>2022-05-21T06:25:27.000Z</time>
      </trkpt>
      <trkpt lat="42.87201" lon="1.2026">
        <ele>547.1</ele>
        <time>2022-05-21T06:25:31.000Z</time>
      </trkpt>
      <trkpt lat="42.87197" lon="1.20246">
        <ele>548</ele>
        <time>2022-05-21T06:25:35.000Z</time>
      </trkpt>
      <trkpt lat="42.87196" lon="1.20232">
        <ele>548.4</ele>
        <time>2022-05-21T06:25:39.000Z</time>
      </trkpt>
      <trkpt lat="42.87198" lon="1.20218">
        <ele>549</ele>
        <time>2022-05-21T06:25:43.000Z</time>
      </trkpt>
      <trkpt lat="42.87202" lon="1.20204">
        <ele>549.6</ele>
        <time>2022-05-21T06:25:47.000Z</time>
      </trkpt>
      <trkpt lat="42.87206" lon="1.20191">
        <ele>550.7</ele>
        <time>2022-05-21T06:25:51.000Z</time>
      </trkpt>
      <trkpt lat="42.87211" lon="1.20178">
        <ele>551.2</ele>
        <time>2022-05-21T06:25:55.000Z</time>
      </trkpt>
      <trkpt lat="42.87215" lon="1.20165">
        <ele>552.4</ele>
        <time>2022-05-21T06:25:59.000Z</time>
      </trkpt>
      <trkpt lat="42.87219" lon="1.20152">
        <ele>553.7</ele>
        <time>2022-05-21T06:26:03.000Z</time>
      </trkpt>
      <trkpt lat="42.87222" lon="1.20138">
        <ele>554.1</ele>
        <time>2022-05-21T06:26:07.000Z</time>
      </trkpt>
      <trkpt lat="42.87224" lon="1.20124">
        <ele>554.9</ele>
        <time>2022-05-21T06:26:11.000Z</time>
      </trkpt>
      <trkpt lat="42.87225" lon="1.20109">
        <ele>555.4</ele>
        <time>2022-05-21T06:26:15.000Z</time>
      </trkpt>
      <trkpt lat="42.87228" lon="1.20094">
        <ele>556.2</ele>
        <time>2022-05-21T06:26:19.000Z</time>
      </trkpt>
      <trkpt lat="42.87231" lon="1.20078">
        <ele>556.4</ele>
        <time>2022-05-21T06:26:23.000Z</time>
      </trkpt>
      <trkpt lat="42.87232" lon="1.20063">
        <ele>557.1</ele>
        <time>2022-05-21T06:26:27.000Z</time>
      </trkpt>
      <trkpt lat="42.87233" lon="1.20048">
        <ele>557.5</ele>
        <time>2022-05-21T06:26:31.000Z</time>
      </trkpt>
      <trkpt lat="42.87234" lon="1.20032">
        <ele>558</ele>
        <time>2022-05-21T06:26:35.000Z</time>
      </trkpt>
      <trkpt lat="42.87234" lon="1.20016">
        <ele>558.6</ele>
        <time>2022-05-21T06:26:39.000Z</time>
      </trkpt>
      <trkpt lat="42.87233" lon="1.20004">
        <ele>558.7</ele>
        <time>2022-05-21T06:26:42.000Z</time>
      </trkpt>
      <trkpt lat="42.87233" lon="1.19991">
        <ele>559.2</ele>
        <time>2022-05-21T06:26:45.000Z</time>
      </trkpt>
      <trkpt lat="42.87233" lon="1.19978">
        <ele>559.5</ele>
        <time>2022-05-21T06:26:48.000Z</time>
      </trkpt>
      <trkpt lat="42.87233" lon="1.19964">
        <ele>559.9</ele>
        <time>2022-05-21T06:26:51.000Z</time>
      </trkpt>
      <trkpt lat="42.87232" lon="1.19951">
        <ele>560.3</ele>
        <time>2022-05-21T06:26:54.000Z</time>
      </trkpt>
      <trkpt lat="42.87231" lon="1.19937">
        <ele>560.4</ele>
        <time>2022-05-21T06:26:57.000Z</time>
      </trkpt>
      <trkpt lat="42.87232" lon="1.19922">
        <ele>561.1</ele>
        <time>2022-05-21T06:27:00.000Z</time>
      </trkpt>
      <trkpt lat="42.87233" lon="1.19906">
        <ele>561.6</ele>
        <time>2022-05-21T06:27:03.000Z</time>
      </trkpt>
      <trkpt lat="42.87235" lon="1.1989">
        <ele>562.5</ele>
        <time>2022-05-21T06:27:06.000Z</time>
      </trkpt>
      <trkpt lat="42.87238" lon="1.19872">
        <ele>562.4</ele>
        <time>2022-05-21T06:27:09.000Z</time>
      </trkpt>
      <trkpt lat="42.87232" lon="1.19857">
        <ele>563.1</ele>
        <time>2022-05-21T06:27:12.000Z</time>
      </trkpt>
      <trkpt lat="42.87223" lon="1.19859">
        <ele>563.6</ele>
        <time>2022-05-21T06:27:14.000Z</time>
      </trkpt>
      <trkpt lat="42.87215" lon="1.19869">
        <ele>564</ele>
        <time>2022-05-21T06:27:16.000Z</time>
      </trkpt>
      <trkpt lat="42.87207" lon="1.1988">
        <ele>564</ele>
        <time>2022-05-21T06:27:18.000Z</time>
      </trkpt>
      <trkpt lat="42.87199" lon="1.19893">
        <ele>564</ele>
        <time>2022-05-21T06:27:20.000Z</time>
      </trkpt>
      <trkpt lat="42.87191" lon="1.19905">
        <ele>564</ele>
        <time>2022-05-21T06:27:22.000Z</time>
      </trkpt>
      <trkpt lat="42.87185" lon="1.19917">
        <ele>563.9</ele>
        <time>2022-05-21T06:27:24.000Z</time>
      </trkpt>
      <trkpt lat="42.87179" lon="1.19929">
        <ele>563.9</ele>
        <time>2022-05-21T06:27:26.000Z</time>
      </trkpt>
      <trkpt lat="42.87173" lon="1.19938">
        <ele>564.2</ele>
        <time>2022-05-21T06:27:28.000Z</time>
      </trkpt>
      <trkpt lat="42.87166" lon="1.19954">
        <ele>564.8</ele>
        <time>2022-05-21T06:27:31.000Z</time>
      </trkpt>
      <trkpt lat="42.87158" lon="1.19968">
        <ele>565.1</ele>
        <time>2022-05-21T06:27:34.000Z</time>
      </trkpt>
      <trkpt lat="42.87151" lon="1.19982">
        <ele>565.2</ele>
        <time>2022-05-21T06:27:37.000Z</time>
      </trkpt>
      <trkpt lat="42.87143" lon="1.19996">
        <ele>565.8</ele>
        <time>2022-05-21T06:27:40.000Z</time>
      </trkpt>
      <trkpt lat="42.87135" lon="1.20009">
        <ele>565.7</ele>
        <time>2022-05-21T06:27:43.000Z</time>
      </trkpt>
      <trkpt lat="42.87128" lon="1.20023">
        <ele>566.3</ele>
        <time>2022-05-21T06:27:46.000Z</time>
      </trkpt>
      <trkpt lat="42.87122" lon="1.20038">
        <ele>566</ele>
        <time>2022-05-21T06:27:49.000Z</time>
      </trkpt>
      <trkpt lat="42.87123" lon="1.20053">
        <ele>566.3</ele>
        <time>2022-05-21T06:27:52.000Z</time>
      </trkpt>
      <trkpt lat="42.87121" lon="1.2007">
        <ele>566.9</ele>
        <time>2022-05-21T06:27:55.000Z</time>
      </trkpt>
      <trkpt lat="42.87117" lon="1.20086">
        <ele>566.6</ele>
        <time>2022-05-21T06:27:58.000Z</time>
      </trkpt>
      <trkpt lat="42.87113" lon="1.20102">
        <ele>567.5</ele>
        <time>2022-05-21T06:28:01.000Z</time>
      </trkpt>
      <trkpt lat="42.8711" lon="1.20119">
        <ele>567.7</ele>
        <time>2022-05-21T06:28:04.000Z</time>
      </trkpt>
      <trkpt lat="42.87106" lon="1.20134">
        <ele>568.1</ele>
        <time>2022-05-21T06:28:07.000Z</time>
      </trkpt>
      <trkpt lat="42.87101" lon="1.20148">
        <ele>568.4</ele>
        <time>2022-05-21T06:28:10.000Z</time>
      </trkpt>
      <trkpt lat="42.87096" lon="1.2016">
        <ele>568.8</ele>
        <time>2022-05-21T06:28:13.000Z</time>
      </trkpt>
      <trkpt lat="42.87089" lon="1.20172">
        <ele>569</ele>
        <time>2022-05-21T06:28:16.000Z</time>
      </trkpt>
      <trkpt lat="42.87081" lon="1.2018">
        <ele>569.2</ele>
        <time>2022-05-21T06:28:19.000Z</time>
      </trkpt>
      <trkpt lat="42.8707" lon="1.20182">
        <ele>569.2</ele>
        <time>2022-05-21T06:28:22.000Z</time>
      </trkpt>
      <trkpt lat="42.87057" lon="1.20179">
        <ele>569.5</ele>
        <time>2022-05-21T06:28:25.000Z</time>
      </trkpt>
      <trkpt lat="42.87047" lon="1.20178">
        <ele>569.5</ele>
        <time>2022-05-21T06:28:28.000Z</time>
      </trkpt>
      <trkpt lat="42.87036" lon="1.20177">
        <ele>570.1</ele>
        <time>2022-05-21T06:28:31.000Z</time>
      </trkpt>
      <trkpt lat="42.87026" lon="1.20177">
        <ele>570.4</ele>
        <time>2022-05-21T06:28:34.000Z</time>
      </trkpt>
      <trkpt lat="42.87016" lon="1.20176">
        <ele>569.9</ele>
        <time>2022-05-21T06:28:37.000Z</time>
      </trkpt>
      <trkpt lat="42.87007" lon="1.20172">
        <ele>570.5</ele>
        <time>2022-05-21T06:28:40.000Z</time>
      </trkpt>
      <trkpt lat="42.86996" lon="1.20168">
        <ele>570.7</ele>
        <time>2022-05-21T06:28:44.000Z</time>
      </trkpt>
      <trkpt lat="42.86985" lon="1.20164">
        <ele>570.7</ele>
        <time>2022-05-21T06:28:48.000Z</time>
      </trkpt>
      <trkpt lat="42.86975" lon="1.20164">
        <ele>570.8</ele>
        <time>2022-05-21T06:28:52.000Z</time>
      </trkpt>
      <trkpt lat="42.86964" lon="1.20167">
        <ele>571.5</ele>
        <time>2022-05-21T06:28:56.000Z</time>
      </trkpt>
      <trkpt lat="42.86955" lon="1.20168">
        <ele>571.6</ele>
        <time>2022-05-21T06:28:59.000Z</time>
      </trkpt>
      <trkpt lat="42.86946" lon="1.20167">
        <ele>571.4</ele>
        <time>2022-05-21T06:29:02.000Z</time>
      </trkpt>
      <trkpt lat="42.86936" lon="1.20167">
        <ele>571.3</ele>
        <time>2022-05-21T06:29:05.000Z</time>
      </trkpt>
      <trkpt lat="42.86926" lon="1.20167">
        <ele>571.6</ele>
        <time>2022-05-21T06:29:08.000Z</time>
      </trkpt>
      <trkpt lat="42.86915" lon="1.20168">
        <ele>571.7</ele>
        <time>2022-05-21T06:29:11.000Z</time>
      </trkpt>
      <trkpt lat="42.86903" lon="1.20169">
        <ele>571.4</ele>
        <time>2022-05-21T06:29:14.000Z</time>
      </trkpt>
      <trkpt lat="42.86892" lon="1.2017">
        <ele>571.7</ele>
        <time>2022-05-21T06:29:17.000Z</time>
      </trkpt>
      <trkpt lat="42.86882" lon="1.20171">
        <ele>571.8</ele>
        <time>2022-05-21T06:29:20.000Z</time>
      </trkpt>
      <trkpt lat="42.86872" lon="1.2017">
        <ele>572</ele>
        <time>2022-05-21T06:29:23.000Z</time>
      </trkpt>
      <trkpt lat="42.8686" lon="1.20169">
        <ele>572.1</ele>
        <time>2022-05-21T06:29:27.000Z</time>
      </trkpt>
      <trkpt lat="42.86849" lon="1.20166">
        <ele>572.7</ele>
        <time>2022-05-21T06:29:31.000Z</time>
      </trkpt>
      <trkpt lat="42.86838" lon="1.20166">
        <ele>572.8</ele>
        <time>2022-05-21T06:29:35.000Z</time>
      </trkpt>
      <trkpt lat="42.86827" lon="1.20165">
        <ele>572.9</ele>
        <time>2022-05-21T06:29:38.000Z</time>
      </trkpt>
      <trkpt lat="42.86817" lon="1.20167">
        <ele>573.3</ele>
        <time>2022-05-21T06:29:41.000Z</time>
      </trkpt>
      <trkpt lat="42.86807" lon="1.20169">
        <ele>573.5</ele>
        <time>2022-05-21T06:29:44.000Z</time>
      </trkpt>
      <trkpt lat="42.86797" lon="1.20172">
        <ele>573.9</ele>
        <time>2022-05-21T06:29:47.000Z</time>
      </trkpt>
      <trkpt lat="42.86786" lon="1.20178">
        <ele>574.4</ele>
        <time>2022-05-21T06:29:51.000Z</time>
      </trkpt>
      <trkpt lat="42.86775" lon="1.20181">
        <ele>574.5</ele>
        <time>2022-05-21T06:29:55.000Z</time>
      </trkpt>
      <trkpt lat="42.86766" lon="1.20179">
        <ele>575.2</ele>
        <time>2022-05-21T06:29:58.000Z</time>
      </trkpt>
      <trkpt lat="42.86754" lon="1.20178">
        <ele>575.5</ele>
        <time>2022-05-21T06:30:02.000Z</time>
      </trkpt>
      <trkpt lat="42.86744" lon="1.20174">
        <ele>576.3</ele>
        <time>2022-05-21T06:30:06.000Z</time>
      </trkpt>
      <trkpt lat="42.86734" lon="1.20171">
        <ele>577.3</ele>
        <time>2022-05-21T06:30:10.000Z</time>
      </trkpt>
      <trkpt lat="42.86724" lon="1.20165">
        <ele>578.2</ele>
        <time>2022-05-21T06:30:14.000Z</time>
      </trkpt>
      <trkpt lat="42.86716" lon="1.20157">
        <ele>578.6</ele>
        <time>2022-05-21T06:30:18.000Z</time>
      </trkpt>
      <trkpt lat="42.86707" lon="1.20149">
        <ele>579.5</ele>
        <time>2022-05-21T06:30:22.000Z</time>
      </trkpt>
      <trkpt lat="42.86699" lon="1.20138">
        <ele>580.1</ele>
        <time>2022-05-21T06:30:26.000Z</time>
      </trkpt>
      <trkpt lat="42.86692" lon="1.20127">
        <ele>581</ele>
        <time>2022-05-21T06:30:30.000Z</time>
      </trkpt>
      <trkpt lat="42.86683" lon="1.20116">
        <ele>580.8</ele>
        <time>2022-05-21T06:30:34.000Z</time>
      </trkpt>
      <trkpt lat="42.86673" lon="1.20109">
        <ele>581</ele>
        <time>2022-05-21T06:30:38.000Z</time>
      </trkpt>
      <trkpt lat="42.86664" lon="1.20102">
        <ele>581.2</ele>
        <time>2022-05-21T06:30:42.000Z</time>
      </trkpt>
      <trkpt lat="42.86657" lon="1.20095">
        <ele>581.7</ele>
        <time>2022-05-21T06:30:46.000Z</time>
      </trkpt>
      <trkpt lat="42.86647" lon="1.20092">
        <ele>582.3</ele>
        <time>2022-05-21T06:30:53.000Z</time>
      </trkpt>
      <trkpt lat="42.86634" lon="1.2009">
        <ele>582.7</ele>
        <time>2022-05-21T06:30:57.000Z</time>
      </trkpt>
      <trkpt lat="42.86623" lon="1.2009">
        <ele>581.9</ele>
        <time>2022-05-21T06:30:59.000Z</time>
      </trkpt>
      <trkpt lat="42.86612" lon="1.2009">
        <ele>581.6</ele>
        <time>2022-05-21T06:31:01.000Z</time>
      </trkpt>
      <trkpt lat="42.86603" lon="1.20093">
        <ele>581.3</ele>
        <time>2022-05-21T06:31:03.000Z</time>
      </trkpt>
      <trkpt lat="42.86595" lon="1.20099">
        <ele>580.3</ele>
        <time>2022-05-21T06:31:05.000Z</time>
      </trkpt>
      <trkpt lat="42.86583" lon="1.20107">
        <ele>580.2</ele>
        <time>2022-05-21T06:31:08.000Z</time>
      </trkpt>
      <trkpt lat="42.86575" lon="1.20114">
        <ele>579.4</ele>
        <time>2022-05-21T06:31:10.000Z</time>
      </trkpt>
      <trkpt lat="42.86566" lon="1.20122">
        <ele>578.9</ele>
        <time>2022-05-21T06:31:12.000Z</time>
      </trkpt>
      <trkpt lat="42.86558" lon="1.20127">
        <ele>578.5</ele>
        <time>2022-05-21T06:31:14.000Z</time>
      </trkpt>
      <trkpt lat="42.86544" lon="1.20129">
        <ele>578</ele>
        <time>2022-05-21T06:31:16.000Z</time>
      </trkpt>
      <trkpt lat="42.8653" lon="1.2013">
        <ele>577</ele>
        <time>2022-05-21T06:31:18.000Z</time>
      </trkpt>
      <trkpt lat="42.86518" lon="1.2013">
        <ele>575.8</ele>
        <time>2022-05-21T06:31:21.000Z</time>
      </trkpt>
      <trkpt lat="42.86512" lon="1.20128">
        <ele>550.7</ele>
        <time>2022-05-21T06:31:28.000Z</time>
      </trkpt>
      <trkpt lat="42.86503" lon="1.20129">
        <ele>568.9</ele>
        <time>2022-05-21T06:31:35.000Z</time>
      </trkpt>
      <trkpt lat="42.86501" lon="1.20142">
        <ele>565.6</ele>
        <time>2022-05-21T06:31:41.000Z</time>
      </trkpt>
      <trkpt lat="42.86494" lon="1.2013">
        <ele>562.5</ele>
        <time>2022-05-21T06:31:47.000Z</time>
      </trkpt>
      <trkpt lat="42.86492" lon="1.20091">
        <ele>556.9</ele>
        <time>2022-05-21T06:32:01.000Z</time>
      </trkpt>
      <trkpt lat="42.865" lon="1.20083">
        <ele>556.1</ele>
        <time>2022-05-21T06:32:05.000Z</time>
      </trkpt>
      <trkpt lat="42.86509" lon="1.20078">
        <ele>555.3</ele>
        <time>2022-05-21T06:32:09.000Z</time>
      </trkpt>
      <trkpt lat="42.86519" lon="1.2007">
        <ele>554.6</ele>
        <time>2022-05-21T06:32:14.000Z</time>
      </trkpt>
      <trkpt lat="42.86529" lon="1.20064">
        <ele>553.8</ele>
        <time>2022-05-21T06:32:18.000Z</time>
      </trkpt>
      <trkpt lat="42.8654" lon="1.20059">
        <ele>553.5</ele>
        <time>2022-05-21T06:32:21.000Z</time>
      </trkpt>
      <trkpt lat="42.86548" lon="1.20053">
        <ele>553.2</ele>
        <time>2022-05-21T06:32:23.000Z</time>
      </trkpt>
      <trkpt lat="42.86555" lon="1.20043">
        <ele>553</ele>
        <time>2022-05-21T06:32:25.000Z</time>
      </trkpt>
      <trkpt lat="42.86559" lon="1.20029">
        <ele>553</ele>
        <time>2022-05-21T06:32:27.000Z</time>
      </trkpt>
      <trkpt lat="42.86564" lon="1.20013">
        <ele>552.2</ele>
        <time>2022-05-21T06:32:29.000Z</time>
      </trkpt>
      <trkpt lat="42.86573" lon="1.19997">
        <ele>551.8</ele>
        <time>2022-05-21T06:32:31.000Z</time>
      </trkpt>
      <trkpt lat="42.8658" lon="1.19985">
        <ele>551.4</ele>
        <time>2022-05-21T06:32:33.000Z</time>
      </trkpt>
      <trkpt lat="42.86584" lon="1.19969">
        <ele>551</ele>
        <time>2022-05-21T06:32:36.000Z</time>
      </trkpt>
      <trkpt lat="42.86578" lon="1.19955">
        <ele>565.5</ele>
        <time>2022-05-21T06:32:39.000Z</time>
      </trkpt>
      <trkpt lat="42.86567" lon="1.19951">
        <ele>560.4</ele>
        <time>2022-05-21T06:32:42.000Z</time>
      </trkpt>
      <trkpt lat="42.86555" lon="1.19949">
        <ele>555.1</ele>
        <time>2022-05-21T06:32:45.000Z</time>
      </trkpt>
      <trkpt lat="42.86543" lon="1.19948">
        <ele>550.1</ele>
        <time>2022-05-21T06:32:48.000Z</time>
      </trkpt>
      <trkpt lat="42.86534" lon="1.19947">
        <ele>547.3</ele>
        <time>2022-05-21T06:32:52.000Z</time>
      </trkpt>
      <trkpt lat="42.86534" lon="1.19933">
        <ele>546.8</ele>
        <time>2022-05-21T06:32:56.000Z</time>
      </trkpt>
      <trkpt lat="42.86535" lon="1.19917">
        <ele>546</ele>
        <time>2022-05-21T06:33:00.000Z</time>
      </trkpt>
      <trkpt lat="42.86534" lon="1.19904">
        <ele>545.3</ele>
        <time>2022-05-21T06:33:04.000Z</time>
      </trkpt>
      <trkpt lat="42.8657" lon="1.1976">
        <ele>556.9</ele>
        <time>2022-05-21T07:53:47.000Z</time>
      </trkpt>
      <trkpt lat="42.8658" lon="1.1976">
        <ele>557.2</ele>
        <time>2022-05-21T07:53:51.000Z</time>
      </trkpt>
      <trkpt lat="42.86591" lon="1.1976">
        <ele>556.8</ele>
        <time>2022-05-21T07:53:55.000Z</time>
      </trkpt>
      <trkpt lat="42.866" lon="1.19759">
        <ele>556.9</ele>
        <time>2022-05-21T07:53:59.000Z</time>
      </trkpt>
      <trkpt lat="42.86609" lon="1.19757">
        <ele>557</ele>
        <time>2022-05-21T07:54:03.000Z</time>
      </trkpt>
      <trkpt lat="42.86619" lon="1.19758">
        <ele>557.2</ele>
        <time>2022-05-21T07:54:07.000Z</time>
      </trkpt>
      <trkpt lat="42.86629" lon="1.19759">
        <ele>557.5</ele>
        <time>2022-05-21T07:54:11.000Z</time>
      </trkpt>
      <trkpt lat="42.86639" lon="1.19756">
        <ele>557.9</ele>
        <time>2022-05-21T07:54:15.000Z</time>
      </trkpt>
      <trkpt lat="42.86648" lon="1.1975">
        <ele>559</ele>
        <time>2022-05-21T07:54:19.000Z</time>
      </trkpt>
      <trkpt lat="42.86656" lon="1.19744">
        <ele>559.5</ele>
        <time>2022-05-21T07:54:23.000Z</time>
      </trkpt>
      <trkpt lat="42.86665" lon="1.19737">
        <ele>561.2</ele>
        <time>2022-05-21T07:54:28.000Z</time>
      </trkpt>
      <trkpt lat="42.86674" lon="1.1973">
        <ele>562.6</ele>
        <time>2022-05-21T07:54:33.000Z</time>
      </trkpt>
      <trkpt lat="42.86682" lon="1.19719">
        <ele>564.5</ele>
        <time>2022-05-21T07:54:38.000Z</time>
      </trkpt>
      <trkpt lat="42.86688" lon="1.19707">
        <ele>566.1</ele>
        <time>2022-05-21T07:54:43.000Z</time>
      </trkpt>
      <trkpt lat="42.8669" lon="1.19695">
        <ele>567.3</ele>
        <time>2022-05-21T07:54:47.000Z</time>
      </trkpt>
      <trkpt lat="42.86692" lon="1.1968">
        <ele>569.4</ele>
        <time>2022-05-21T07:54:53.000Z</time>
      </trkpt>
      <trkpt lat="42.86692" lon="1.19667">
        <ele>570.4</ele>
        <time>2022-05-21T07:54:57.000Z</time>
      </trkpt>
      <trkpt lat="42.86693" lon="1.19654">
        <ele>571.2</ele>
        <time>2022-05-21T07:55:01.000Z</time>
      </trkpt>
      <trkpt lat="42.86693" lon="1.19642">
        <ele>572</ele>
        <time>2022-05-21T07:55:05.000Z</time>
      </trkpt>
      <trkpt lat="42.86696" lon="1.19627">
        <ele>573.3</ele>
        <time>2022-05-21T07:55:10.000Z</time>
      </trkpt>
      <trkpt lat="42.86702" lon="1.19614">
        <ele>574.2</ele>
        <time>2022-05-21T07:55:15.000Z</time>
      </trkpt>
      <trkpt lat="42.86707" lon="1.19604">
        <ele>575.5</ele>
        <time>2022-05-21T07:55:19.000Z</time>
      </trkpt>
      <trkpt lat="42.86711" lon="1.19591">
        <ele>576.5</ele>
        <time>2022-05-21T07:55:24.000Z</time>
      </trkpt>
      <trkpt lat="42.86712" lon="1.19578">
        <ele>578</ele>
        <time>2022-05-21T07:55:29.000Z</time>
      </trkpt>
      <trkpt lat="42.86712" lon="1.19564">
        <ele>579.3</ele>
        <time>2022-05-21T07:55:34.000Z</time>
      </trkpt>
      <trkpt lat="42.86714" lon="1.19552">
        <ele>580.4</ele>
        <time>2022-05-21T07:55:38.000Z</time>
      </trkpt>
      <trkpt lat="42.8672" lon="1.1954">
        <ele>581</ele>
        <time>2022-05-21T07:55:43.000Z</time>
      </trkpt>
      <trkpt lat="42.86728" lon="1.1953">
        <ele>581.8</ele>
        <time>2022-05-21T07:55:48.000Z</time>
      </trkpt>
      <trkpt lat="42.86735" lon="1.19518">
        <ele>582.6</ele>
        <time>2022-05-21T07:55:53.000Z</time>
      </trkpt>
      <trkpt lat="42.86742" lon="1.19506">
        <ele>583.9</ele>
        <time>2022-05-21T07:55:58.000Z</time>
      </trkpt>
      <trkpt lat="42.86747" lon="1.19495">
        <ele>584.3</ele>
        <time>2022-05-21T07:56:02.000Z</time>
      </trkpt>
      <trkpt lat="42.86749" lon="1.19482">
        <ele>584.8</ele>
        <time>2022-05-21T07:56:06.000Z</time>
      </trkpt>
      <trkpt lat="42.86753" lon="1.1947">
        <ele>586</ele>
        <time>2022-05-21T07:56:10.000Z</time>
      </trkpt>
      <trkpt lat="42.86757" lon="1.19457">
        <ele>586.3</ele>
        <time>2022-05-21T07:56:15.000Z</time>
      </trkpt>
      <trkpt lat="42.86762" lon="1.19446">
        <ele>587.2</ele>
        <time>2022-05-21T07:56:19.000Z</time>
      </trkpt>
      <trkpt lat="42.86766" lon="1.19435">
        <ele>587.5</ele>
        <time>2022-05-21T07:56:23.000Z</time>
      </trkpt>
      <trkpt lat="42.86772" lon="1.19422">
        <ele>588.2</ele>
        <time>2022-05-21T07:56:28.000Z</time>
      </trkpt>
      <trkpt lat="42.86777" lon="1.19409">
        <ele>588.9</ele>
        <time>2022-05-21T07:56:32.000Z</time>
      </trkpt>
      <trkpt lat="42.86781" lon="1.19394">
        <ele>589.5</ele>
        <time>2022-05-21T07:56:36.000Z</time>
      </trkpt>
      <trkpt lat="42.86785" lon="1.19381">
        <ele>590</ele>
        <time>2022-05-21T07:56:40.000Z</time>
      </trkpt>
      <trkpt lat="42.86788" lon="1.19369">
        <ele>590.4</ele>
        <time>2022-05-21T07:56:43.000Z</time>
      </trkpt>
      <trkpt lat="42.86793" lon="1.19358">
        <ele>590.6</ele>
        <time>2022-05-21T07:56:46.000Z</time>
      </trkpt>
      <trkpt lat="42.86798" lon="1.19346">
        <ele>590.9</ele>
        <time>2022-05-21T07:56:50.000Z</time>
      </trkpt>
      <trkpt lat="42.86805" lon="1.19336">
        <ele>591.7</ele>
        <time>2022-05-21T07:56:54.000Z</time>
      </trkpt>
      <trkpt lat="42.86814" lon="1.19328">
        <ele>591.8</ele>
        <time>2022-05-21T07:56:58.000Z</time>
      </trkpt>
      <trkpt lat="42.86824" lon="1.19324">
        <ele>592.2</ele>
        <time>2022-05-21T07:57:02.000Z</time>
      </trkpt>
      <trkpt lat="42.86836" lon="1.19321">
        <ele>592.7</ele>
        <time>2022-05-21T07:57:06.000Z</time>
      </trkpt>
      <trkpt lat="42.86846" lon="1.19316">
        <ele>593.3</ele>
        <time>2022-05-21T07:57:10.000Z</time>
      </trkpt>
      <trkpt lat="42.86853" lon="1.19305">
        <ele>593.6</ele>
        <time>2022-05-21T07:57:14.000Z</time>
      </trkpt>
      <trkpt lat="42.86858" lon="1.19295">
        <ele>594.8</ele>
        <time>2022-05-21T07:57:18.000Z</time>
      </trkpt>
      <trkpt lat="42.86865" lon="1.19286">
        <ele>595.2</ele>
        <time>2022-05-21T07:57:22.000Z</time>
      </trkpt>
      <trkpt lat="42.86873" lon="1.19275">
        <ele>596.4</ele>
        <time>2022-05-21T07:57:27.000Z</time>
      </trkpt>
      <trkpt lat="42.86882" lon="1.19267">
        <ele>597.4</ele>
        <time>2022-05-21T07:57:32.000Z</time>
      </trkpt>
      <trkpt lat="42.8689" lon="1.19258">
        <ele>598.9</ele>
        <time>2022-05-21T07:57:37.000Z</time>
      </trkpt>
      <trkpt lat="42.86896" lon="1.19247">
        <ele>600.2</ele>
        <time>2022-05-21T07:57:42.000Z</time>
      </trkpt>
      <trkpt lat="42.86901" lon="1.19233">
        <ele>601.1</ele>
        <time>2022-05-21T07:57:47.000Z</time>
      </trkpt>
      <trkpt lat="42.86907" lon="1.19222">
        <ele>601.6</ele>
        <time>2022-05-21T07:57:51.000Z</time>
      </trkpt>
      <trkpt lat="42.86914" lon="1.19213">
        <ele>602.4</ele>
        <time>2022-05-21T07:57:55.000Z</time>
      </trkpt>
      <trkpt lat="42.86921" lon="1.19205">
        <ele>602.7</ele>
        <time>2022-05-21T07:57:58.000Z</time>
      </trkpt>
      <trkpt lat="42.86929" lon="1.19199">
        <ele>602.8</ele>
        <time>2022-05-21T07:58:01.000Z</time>
      </trkpt>
      <trkpt lat="42.86939" lon="1.19194">
        <ele>603.6</ele>
        <time>2022-05-21T07:58:04.000Z</time>
      </trkpt>
      <trkpt lat="42.86947" lon="1.19187">
        <ele>603.9</ele>
        <time>2022-05-21T07:58:08.000Z</time>
      </trkpt>
      <trkpt lat="42.86953" lon="1.19177">
        <ele>604.4</ele>
        <time>2022-05-21T07:58:12.000Z</time>
      </trkpt>
      <trkpt lat="42.86955" lon="1.19164">
        <ele>604.9</ele>
        <time>2022-05-21T07:58:17.000Z</time>
      </trkpt>
      <trkpt lat="42.86961" lon="1.19151">
        <ele>605.6</ele>
        <time>2022-05-21T07:58:22.000Z</time>
      </trkpt>
      <trkpt lat="42.8697" lon="1.19143">
        <ele>606.9</ele>
        <time>2022-05-21T07:58:26.000Z</time>
      </trkpt>
      <trkpt lat="42.86979" lon="1.19136">
        <ele>608</ele>
        <time>2022-05-21T07:58:31.000Z</time>
      </trkpt>
      <trkpt lat="42.86986" lon="1.19127">
        <ele>608.8</ele>
        <time>2022-05-21T07:58:36.000Z</time>
      </trkpt>
      <trkpt lat="42.86993" lon="1.19117">
        <ele>609.9</ele>
        <time>2022-05-21T07:58:42.000Z</time>
      </trkpt>
      <trkpt lat="42.86998" lon="1.19109">
        <ele>611.5</ele>
        <time>2022-05-21T07:58:50.000Z</time>
      </trkpt>
      <trkpt lat="42.86998" lon="1.1911">
        <ele>606.2</ele>
        <time>2022-05-21T07:59:08.000Z</time>
      </trkpt>
      <trkpt lat="42.87001" lon="1.1911">
        <ele>614.6</ele>
        <time>2022-05-21T07:59:13.000Z</time>
      </trkpt>
      <trkpt lat="42.87" lon="1.19109">
        <ele>606.9</ele>
        <time>2022-05-21T08:00:02.000Z</time>
      </trkpt>
      <trkpt lat="42.87001" lon="1.19109">
        <ele>608.3</ele>
        <time>2022-05-21T08:00:14.000Z</time>
      </trkpt>
      <trkpt lat="42.87001" lon="1.19108">
        <ele>603.3</ele>
        <time>2022-05-21T08:01:38.000Z</time>
      </trkpt>
      <trkpt lat="42.87" lon="1.19107">
        <ele>604.5</ele>
        <time>2022-05-21T08:03:06.000Z</time>
      </trkpt>
      <trkpt lat="42.87001" lon="1.19106">
        <ele>604.4</ele>
        <time>2022-05-21T08:03:08.000Z</time>
      </trkpt>
      <trkpt lat="42.87009" lon="1.191">
        <ele>604</ele>
        <time>2022-05-21T08:03:19.000Z</time>
      </trkpt>
      <trkpt lat="42.87017" lon="1.19093">
        <ele>604.8</ele>
        <time>2022-05-21T08:03:24.000Z</time>
      </trkpt>
      <trkpt lat="42.87024" lon="1.19085">
        <ele>605.5</ele>
        <time>2022-05-21T08:03:29.000Z</time>
      </trkpt>
      <trkpt lat="42.87033" lon="1.19076">
        <ele>607.1</ele>
        <time>2022-05-21T08:03:35.000Z</time>
      </trkpt>
      <trkpt lat="42.87041" lon="1.19068">
        <ele>608.8</ele>
        <time>2022-05-21T08:03:41.000Z</time>
      </trkpt>
      <trkpt lat="42.87048" lon="1.19061">
        <ele>610.4</ele>
        <time>2022-05-21T08:03:46.000Z</time>
      </trkpt>
      <trkpt lat="42.87057" lon="1.19055">
        <ele>612.8</ele>
        <time>2022-05-21T08:03:51.000Z</time>
      </trkpt>
      <trkpt lat="42.87065" lon="1.19048">
        <ele>614.4</ele>
        <time>2022-05-21T08:03:56.000Z</time>
      </trkpt>
      <trkpt lat="42.87074" lon="1.19041">
        <ele>616.2</ele>
        <time>2022-05-21T08:04:01.000Z</time>
      </trkpt>
      <trkpt lat="42.87082" lon="1.19035">
        <ele>617.6</ele>
        <time>2022-05-21T08:04:06.000Z</time>
      </trkpt>
      <trkpt lat="42.87089" lon="1.19026">
        <ele>618.9</ele>
        <time>2022-05-21T08:04:11.000Z</time>
      </trkpt>
      <trkpt lat="42.87096" lon="1.19017">
        <ele>620</ele>
        <time>2022-05-21T08:04:15.000Z</time>
      </trkpt>
      <trkpt lat="42.87102" lon="1.19005">
        <ele>621.2</ele>
        <time>2022-05-21T08:04:19.000Z</time>
      </trkpt>
      <trkpt lat="42.8711" lon="1.18993">
        <ele>622.1</ele>
        <time>2022-05-21T08:04:23.000Z</time>
      </trkpt>
      <trkpt lat="42.87118" lon="1.18984">
        <ele>623</ele>
        <time>2022-05-21T08:04:27.000Z</time>
      </trkpt>
      <trkpt lat="42.87125" lon="1.18977">
        <ele>624.2</ele>
        <time>2022-05-21T08:04:31.000Z</time>
      </trkpt>
      <trkpt lat="42.87132" lon="1.18968">
        <ele>624.4</ele>
        <time>2022-05-21T08:04:34.000Z</time>
      </trkpt>
      <trkpt lat="42.87138" lon="1.18957">
        <ele>625</ele>
        <time>2022-05-21T08:04:38.000Z</time>
      </trkpt>
      <trkpt lat="42.87136" lon="1.18944">
        <ele>626.1</ele>
        <time>2022-05-21T08:04:44.000Z</time>
      </trkpt>
      <trkpt lat="42.87133" lon="1.18932">
        <ele>627.1</ele>
        <time>2022-05-21T08:04:49.000Z</time>
      </trkpt>
      <trkpt lat="42.8713" lon="1.18918">
        <ele>628</ele>
        <time>2022-05-21T08:04:55.000Z</time>
      </trkpt>
      <trkpt lat="42.87126" lon="1.18907">
        <ele>628.7</ele>
        <time>2022-05-21T08:04:59.000Z</time>
      </trkpt>
      <trkpt lat="42.87122" lon="1.18895">
        <ele>629.6</ele>
        <time>2022-05-21T08:05:03.000Z</time>
      </trkpt>
      <trkpt lat="42.87116" lon="1.18883">
        <ele>629.9</ele>
        <time>2022-05-21T08:05:08.000Z</time>
      </trkpt>
      <trkpt lat="42.87115" lon="1.18875">
        <ele>631.3</ele>
        <time>2022-05-21T08:05:15.000Z</time>
      </trkpt>
      <trkpt lat="42.87116" lon="1.18874">
        <ele>631.2</ele>
        <time>2022-05-21T08:05:21.000Z</time>
      </trkpt>
      <trkpt lat="42.87117" lon="1.18874">
        <ele>631.2</ele>
        <time>2022-05-21T08:05:45.000Z</time>
      </trkpt>
      <trkpt lat="42.87117" lon="1.18875">
        <ele>631.2</ele>
        <time>2022-05-21T08:05:46.000Z</time>
      </trkpt>
      <trkpt lat="42.87126" lon="1.18873">
        <ele>631.5</ele>
        <time>2022-05-21T08:06:09.000Z</time>
      </trkpt>
      <trkpt lat="42.87129" lon="1.18861">
        <ele>631</ele>
        <time>2022-05-21T08:06:24.000Z</time>
      </trkpt>
      <trkpt lat="42.87128" lon="1.18856">
        <ele>631.6</ele>
        <time>2022-05-21T08:06:31.000Z</time>
      </trkpt>
      <trkpt lat="42.87128" lon="1.18855">
        <ele>631.6</ele>
        <time>2022-05-21T08:06:36.000Z</time>
      </trkpt>
      <trkpt lat="42.8713" lon="1.18852">
        <ele>632</ele>
        <time>2022-05-21T08:06:44.000Z</time>
      </trkpt>
      <trkpt lat="42.87129" lon="1.18851">
        <ele>631.8</ele>
        <time>2022-05-21T08:10:38.000Z</time>
      </trkpt>
      <trkpt lat="42.8713" lon="1.18846">
        <ele>631.9</ele>
        <time>2022-05-21T08:10:47.000Z</time>
      </trkpt>
      <trkpt lat="42.8713" lon="1.18845">
        <ele>631.9</ele>
        <time>2022-05-21T08:10:49.000Z</time>
      </trkpt>
      <trkpt lat="42.8713" lon="1.18838">
        <ele>633.6</ele>
        <time>2022-05-21T08:11:00.000Z</time>
      </trkpt>
      <trkpt lat="42.8713" lon="1.18836">
        <ele>633.4</ele>
        <time>2022-05-21T08:11:05.000Z</time>
      </trkpt>
      <trkpt lat="42.87131" lon="1.18832">
        <ele>633.1</ele>
        <time>2022-05-21T08:11:13.000Z</time>
      </trkpt>
      <trkpt lat="42.87131" lon="1.18831">
        <ele>632.5</ele>
        <time>2022-05-21T08:11:41.000Z</time>
      </trkpt>
      <trkpt lat="42.87131" lon="1.18818">
        <ele>632.4</ele>
        <time>2022-05-21T08:11:50.000Z</time>
      </trkpt>
      <trkpt lat="42.87132" lon="1.18816">
        <ele>632.8</ele>
        <time>2022-05-21T08:11:55.000Z</time>
      </trkpt>
      <trkpt lat="42.87133" lon="1.18817">
        <ele>632.9</ele>
        <time>2022-05-21T08:11:57.000Z</time>
      </trkpt>
      <trkpt lat="42.87132" lon="1.18818">
        <ele>633</ele>
        <time>2022-05-21T08:12:09.000Z</time>
      </trkpt>
      <trkpt lat="42.87132" lon="1.18831">
        <ele>632.7</ele>
        <time>2022-05-21T08:12:15.000Z</time>
      </trkpt>
      <trkpt lat="42.87138" lon="1.18842">
        <ele>632.8</ele>
        <time>2022-05-21T08:12:21.000Z</time>
      </trkpt>
      <trkpt lat="42.87143" lon="1.18853">
        <ele>633.2</ele>
        <time>2022-05-21T08:12:26.000Z</time>
      </trkpt>
      <trkpt lat="42.87149" lon="1.18863">
        <ele>634.2</ele>
        <time>2022-05-21T08:12:31.000Z</time>
      </trkpt>
      <trkpt lat="42.8716" lon="1.18862">
        <ele>634.5</ele>
        <time>2022-05-21T08:12:36.000Z</time>
      </trkpt>
      <trkpt lat="42.87168" lon="1.18857">
        <ele>634.3</ele>
        <time>2022-05-21T08:12:40.000Z</time>
      </trkpt>
      <trkpt lat="42.87179" lon="1.18854">
        <ele>635.1</ele>
        <time>2022-05-21T08:12:45.000Z</time>
      </trkpt>
      <trkpt lat="42.87189" lon="1.18855">
        <ele>635.9</ele>
        <time>2022-05-21T08:12:50.000Z</time>
      </trkpt>
      <trkpt lat="42.87197" lon="1.1886">
        <ele>636.5</ele>
        <time>2022-05-21T08:12:55.000Z</time>
      </trkpt>
      <trkpt lat="42.87202" lon="1.18872">
        <ele>637.9</ele>
        <time>2022-05-21T08:13:01.000Z</time>
      </trkpt>
      <trkpt lat="42.87211" lon="1.18881">
        <ele>639.1</ele>
        <time>2022-05-21T08:13:08.000Z</time>
      </trkpt>
      <trkpt lat="42.87217" lon="1.18891">
        <ele>640.8</ele>
        <time>2022-05-21T08:13:14.000Z</time>
      </trkpt>
      <trkpt lat="42.87226" lon="1.18895">
        <ele>643.1</ele>
        <time>2022-05-21T08:13:22.000Z</time>
      </trkpt>
      <trkpt lat="42.87228" lon="1.18895">
        <ele>644.4</ele>
        <time>2022-05-21T08:13:27.000Z</time>
      </trkpt>
      <trkpt lat="42.87233" lon="1.18894">
        <ele>647.1</ele>
        <time>2022-05-21T08:13:42.000Z</time>
      </trkpt>
      <trkpt lat="42.87233" lon="1.18893">
        <ele>647.6</ele>
        <time>2022-05-21T08:13:45.000Z</time>
      </trkpt>
      <trkpt lat="42.87242" lon="1.18885">
        <ele>648.8</ele>
        <time>2022-05-21T08:13:52.000Z</time>
      </trkpt>
      <trkpt lat="42.87251" lon="1.18877">
        <ele>649.7</ele>
        <time>2022-05-21T08:13:56.000Z</time>
      </trkpt>
      <trkpt lat="42.8726" lon="1.1887">
        <ele>650.4</ele>
        <time>2022-05-21T08:14:00.000Z</time>
      </trkpt>
      <trkpt lat="42.87269" lon="1.18864">
        <ele>651.2</ele>
        <time>2022-05-21T08:14:04.000Z</time>
      </trkpt>
      <trkpt lat="42.87279" lon="1.18858">
        <ele>652.3</ele>
        <time>2022-05-21T08:14:08.000Z</time>
      </trkpt>
      <trkpt lat="42.87288" lon="1.18854">
        <ele>653.1</ele>
        <time>2022-05-21T08:14:12.000Z</time>
      </trkpt>
      <trkpt lat="42.87297" lon="1.18848">
        <ele>653.7</ele>
        <time>2022-05-21T08:14:16.000Z</time>
      </trkpt>
      <trkpt lat="42.87306" lon="1.18844">
        <ele>654.6</ele>
        <time>2022-05-21T08:14:20.000Z</time>
      </trkpt>
      <trkpt lat="42.87315" lon="1.18842">
        <ele>655.1</ele>
        <time>2022-05-21T08:14:24.000Z</time>
      </trkpt>
      <trkpt lat="42.87326" lon="1.18837">
        <ele>655.8</ele>
        <time>2022-05-21T08:14:28.000Z</time>
      </trkpt>
      <trkpt lat="42.87337" lon="1.18833">
        <ele>656.1</ele>
        <time>2022-05-21T08:14:32.000Z</time>
      </trkpt>
      <trkpt lat="42.87349" lon="1.1883">
        <ele>656.8</ele>
        <time>2022-05-21T08:14:36.000Z</time>
      </trkpt>
      <trkpt lat="42.8736" lon="1.18832">
        <ele>657.9</ele>
        <time>2022-05-21T08:14:40.000Z</time>
      </trkpt>
      <trkpt lat="42.87371" lon="1.18833">
        <ele>659.2</ele>
        <time>2022-05-21T08:14:44.000Z</time>
      </trkpt>
      <trkpt lat="42.87379" lon="1.18823">
        <ele>660.4</ele>
        <time>2022-05-21T08:14:48.000Z</time>
      </trkpt>
      <trkpt lat="42.87385" lon="1.18813">
        <ele>660.7</ele>
        <time>2022-05-21T08:14:51.000Z</time>
      </trkpt>
      <trkpt lat="42.87391" lon="1.18803">
        <ele>661.8</ele>
        <time>2022-05-21T08:14:54.000Z</time>
      </trkpt>
      <trkpt lat="42.87399" lon="1.18791">
        <ele>662.6</ele>
        <time>2022-05-21T08:14:58.000Z</time>
      </trkpt>
      <trkpt lat="42.87405" lon="1.18782">
        <ele>663.2</ele>
        <time>2022-05-21T08:15:01.000Z</time>
      </trkpt>
      <trkpt lat="42.87414" lon="1.18772">
        <ele>663.6</ele>
        <time>2022-05-21T08:15:05.000Z</time>
      </trkpt>
      <trkpt lat="42.87423" lon="1.18763">
        <ele>664.6</ele>
        <time>2022-05-21T08:15:09.000Z</time>
      </trkpt>
      <trkpt lat="42.87432" lon="1.18756">
        <ele>665.1</ele>
        <time>2022-05-21T08:15:13.000Z</time>
      </trkpt>
      <trkpt lat="42.87442" lon="1.18751">
        <ele>665.9</ele>
        <time>2022-05-21T08:15:17.000Z</time>
      </trkpt>
      <trkpt lat="42.87452" lon="1.1875">
        <ele>666.5</ele>
        <time>2022-05-21T08:15:21.000Z</time>
      </trkpt>
      <trkpt lat="42.87461" lon="1.18752">
        <ele>667.4</ele>
        <time>2022-05-21T08:15:25.000Z</time>
      </trkpt>
      <trkpt lat="42.87472" lon="1.18754">
        <ele>668.5</ele>
        <time>2022-05-21T08:15:30.000Z</time>
      </trkpt>
      <trkpt lat="42.87483" lon="1.18754">
        <ele>669.2</ele>
        <time>2022-05-21T08:15:35.000Z</time>
      </trkpt>
      <trkpt lat="42.87492" lon="1.18753">
        <ele>670.3</ele>
        <time>2022-05-21T08:15:39.000Z</time>
      </trkpt>
      <trkpt lat="42.87502" lon="1.18754">
        <ele>671.1</ele>
        <time>2022-05-21T08:15:44.000Z</time>
      </trkpt>
      <trkpt lat="42.87513" lon="1.18753">
        <ele>672.8</ele>
        <time>2022-05-21T08:15:49.000Z</time>
      </trkpt>
      <trkpt lat="42.87523" lon="1.18749">
        <ele>673.8</ele>
        <time>2022-05-21T08:15:54.000Z</time>
      </trkpt>
      <trkpt lat="42.87533" lon="1.18745">
        <ele>675.2</ele>
        <time>2022-05-21T08:15:59.000Z</time>
      </trkpt>
      <trkpt lat="42.8754" lon="1.18734">
        <ele>676.5</ele>
        <time>2022-05-21T08:16:04.000Z</time>
      </trkpt>
      <trkpt lat="42.87548" lon="1.18725">
        <ele>678</ele>
        <time>2022-05-21T08:16:09.000Z</time>
      </trkpt>
      <trkpt lat="42.87557" lon="1.18725">
        <ele>679.4</ele>
        <time>2022-05-21T08:16:14.000Z</time>
      </trkpt>
      <trkpt lat="42.87558" lon="1.18738">
        <ele>680.9</ele>
        <time>2022-05-21T08:16:23.000Z</time>
      </trkpt>
      <trkpt lat="42.87554" lon="1.1875">
        <ele>682.5</ele>
        <time>2022-05-21T08:16:29.000Z</time>
      </trkpt>
      <trkpt lat="42.87551" lon="1.18762">
        <ele>682.9</ele>
        <time>2022-05-21T08:16:34.000Z</time>
      </trkpt>
      <trkpt lat="42.87548" lon="1.18775">
        <ele>683.6</ele>
        <time>2022-05-21T08:16:39.000Z</time>
      </trkpt>
      <trkpt lat="42.87545" lon="1.18788">
        <ele>684.5</ele>
        <time>2022-05-21T08:16:44.000Z</time>
      </trkpt>
      <trkpt lat="42.8754" lon="1.18801">
        <ele>685.2</ele>
        <time>2022-05-21T08:16:49.000Z</time>
      </trkpt>
      <trkpt lat="42.87535" lon="1.18813">
        <ele>686.3</ele>
        <time>2022-05-21T08:16:54.000Z</time>
      </trkpt>
      <trkpt lat="42.87528" lon="1.18824">
        <ele>687</ele>
        <time>2022-05-21T08:16:59.000Z</time>
      </trkpt>
      <trkpt lat="42.87522" lon="1.18836">
        <ele>688.1</ele>
        <time>2022-05-21T08:17:04.000Z</time>
      </trkpt>
      <trkpt lat="42.87516" lon="1.18847">
        <ele>689.2</ele>
        <time>2022-05-21T08:17:09.000Z</time>
      </trkpt>
      <trkpt lat="42.87508" lon="1.18858">
        <ele>690</ele>
        <time>2022-05-21T08:17:14.000Z</time>
      </trkpt>
      <trkpt lat="42.87501" lon="1.18867">
        <ele>690.8</ele>
        <time>2022-05-21T08:17:19.000Z</time>
      </trkpt>
      <trkpt lat="42.87494" lon="1.18875">
        <ele>691.5</ele>
        <time>2022-05-21T08:17:24.000Z</time>
      </trkpt>
      <trkpt lat="42.87496" lon="1.18888">
        <ele>691.9</ele>
        <time>2022-05-21T08:17:30.000Z</time>
      </trkpt>
      <trkpt lat="42.87501" lon="1.18891">
        <ele>692.7</ele>
        <time>2022-05-21T08:17:37.000Z</time>
      </trkpt>
      <trkpt lat="42.87501" lon="1.1889">
        <ele>694.3</ele>
        <time>2022-05-21T08:17:53.000Z</time>
      </trkpt>
      <trkpt lat="42.87508" lon="1.18879">
        <ele>694.5</ele>
        <time>2022-05-21T08:17:59.000Z</time>
      </trkpt>
      <trkpt lat="42.87517" lon="1.1887">
        <ele>695.1</ele>
        <time>2022-05-21T08:18:04.000Z</time>
      </trkpt>
      <trkpt lat="42.87525" lon="1.18864">
        <ele>695.2</ele>
        <time>2022-05-21T08:18:08.000Z</time>
      </trkpt>
      <trkpt lat="42.87534" lon="1.18857">
        <ele>695.8</ele>
        <time>2022-05-21T08:18:12.000Z</time>
      </trkpt>
      <trkpt lat="42.87543" lon="1.1885">
        <ele>696.4</ele>
        <time>2022-05-21T08:18:17.000Z</time>
      </trkpt>
      <trkpt lat="42.87548" lon="1.18846">
        <ele>696.9</ele>
        <time>2022-05-21T08:18:23.000Z</time>
      </trkpt>
      <trkpt lat="42.87549" lon="1.18846">
        <ele>697.2</ele>
        <time>2022-05-21T08:18:56.000Z</time>
      </trkpt>
      <trkpt lat="42.87556" lon="1.18838">
        <ele>697.2</ele>
        <time>2022-05-21T08:19:01.000Z</time>
      </trkpt>
      <trkpt lat="42.87566" lon="1.18833">
        <ele>696.8</ele>
        <time>2022-05-21T08:19:05.000Z</time>
      </trkpt>
      <trkpt lat="42.87578" lon="1.18827">
        <ele>681.5</ele>
        <time>2022-05-21T08:19:09.000Z</time>
      </trkpt>
      <trkpt lat="42.87585" lon="1.18823">
        <ele>681.5</ele>
        <time>2022-05-21T08:19:12.000Z</time>
      </trkpt>
      <trkpt lat="42.87591" lon="1.1882">
        <ele>681.6</ele>
        <time>2022-05-21T08:19:16.000Z</time>
      </trkpt>
      <trkpt lat="42.87599" lon="1.18817">
        <ele>681.7</ele>
        <time>2022-05-21T08:19:37.000Z</time>
      </trkpt>
      <trkpt lat="42.87601" lon="1.18816">
        <ele>681.7</ele>
        <time>2022-05-21T08:19:42.000Z</time>
      </trkpt>
      <trkpt lat="42.87603" lon="1.18815">
        <ele>681.8</ele>
        <time>2022-05-21T08:19:46.000Z</time>
      </trkpt>
      <trkpt lat="42.87608" lon="1.18814">
        <ele>698.7</ele>
        <time>2022-05-21T08:19:55.000Z</time>
      </trkpt>
      <trkpt lat="42.87617" lon="1.1881">
        <ele>699</ele>
        <time>2022-05-21T08:19:59.000Z</time>
      </trkpt>
      <trkpt lat="42.87627" lon="1.18806">
        <ele>699.1</ele>
        <time>2022-05-21T08:20:03.000Z</time>
      </trkpt>
      <trkpt lat="42.87636" lon="1.18804">
        <ele>699.5</ele>
        <time>2022-05-21T08:20:07.000Z</time>
      </trkpt>
      <trkpt lat="42.87642" lon="1.18803">
        <ele>699.5</ele>
        <time>2022-05-21T08:20:11.000Z</time>
      </trkpt>
      <trkpt lat="42.87643" lon="1.18803">
        <ele>698.8</ele>
        <time>2022-05-21T08:20:42.000Z</time>
      </trkpt>
      <trkpt lat="42.87655" lon="1.18802">
        <ele>697.8</ele>
        <time>2022-05-21T08:20:47.000Z</time>
      </trkpt>
      <trkpt lat="42.87665" lon="1.188">
        <ele>697.4</ele>
        <time>2022-05-21T08:20:51.000Z</time>
      </trkpt>
      <trkpt lat="42.87673" lon="1.18792">
        <ele>696.7</ele>
        <time>2022-05-21T08:20:56.000Z</time>
      </trkpt>
      <trkpt lat="42.87682" lon="1.18786">
        <ele>696.2</ele>
        <time>2022-05-21T08:21:00.000Z</time>
      </trkpt>
      <trkpt lat="42.87691" lon="1.18782">
        <ele>695.7</ele>
        <time>2022-05-21T08:21:04.000Z</time>
      </trkpt>
      <trkpt lat="42.877" lon="1.18777">
        <ele>695.5</ele>
        <time>2022-05-21T08:21:08.000Z</time>
      </trkpt>
      <trkpt lat="42.87709" lon="1.18772">
        <ele>695.6</ele>
        <time>2022-05-21T08:21:12.000Z</time>
      </trkpt>
      <trkpt lat="42.87719" lon="1.18762">
        <ele>695.5</ele>
        <time>2022-05-21T08:21:15.000Z</time>
      </trkpt>
      <trkpt lat="42.87729" lon="1.18749">
        <ele>695.4</ele>
        <time>2022-05-21T08:21:18.000Z</time>
      </trkpt>
      <trkpt lat="42.87736" lon="1.18738">
        <ele>695.5</ele>
        <time>2022-05-21T08:21:20.000Z</time>
      </trkpt>
      <trkpt lat="42.87742" lon="1.18726">
        <ele>695.1</ele>
        <time>2022-05-21T08:21:22.000Z</time>
      </trkpt>
      <trkpt lat="42.87745" lon="1.18713">
        <ele>695.3</ele>
        <time>2022-05-21T08:21:24.000Z</time>
      </trkpt>
      <trkpt lat="42.87747" lon="1.18698">
        <ele>695.2</ele>
        <time>2022-05-21T08:21:26.000Z</time>
      </trkpt>
      <trkpt lat="42.87748" lon="1.18682">
        <ele>695</ele>
        <time>2022-05-21T08:21:28.000Z</time>
      </trkpt>
      <trkpt lat="42.87749" lon="1.18666">
        <ele>694.9</ele>
        <time>2022-05-21T08:21:30.000Z</time>
      </trkpt>
      <trkpt lat="42.8775" lon="1.18649">
        <ele>695.2</ele>
        <time>2022-05-21T08:21:32.000Z</time>
      </trkpt>
      <trkpt lat="42.87753" lon="1.18635">
        <ele>695.3</ele>
        <time>2022-05-21T08:21:34.000Z</time>
      </trkpt>
      <trkpt lat="42.87756" lon="1.18621">
        <ele>695.2</ele>
        <time>2022-05-21T08:21:36.000Z</time>
      </trkpt>
      <trkpt lat="42.87761" lon="1.18605">
        <ele>694.7</ele>
        <time>2022-05-21T08:21:38.000Z</time>
      </trkpt>
      <trkpt lat="42.87768" lon="1.18591">
        <ele>694.3</ele>
        <time>2022-05-21T08:21:40.000Z</time>
      </trkpt>
      <trkpt lat="42.87778" lon="1.1858">
        <ele>694.5</ele>
        <time>2022-05-21T08:21:42.000Z</time>
      </trkpt>
      <trkpt lat="42.87791" lon="1.18571">
        <ele>694.8</ele>
        <time>2022-05-21T08:21:44.000Z</time>
      </trkpt>
      <trkpt lat="42.87805" lon="1.18562">
        <ele>694.5</ele>
        <time>2022-05-21T08:21:46.000Z</time>
      </trkpt>
      <trkpt lat="42.87817" lon="1.1855">
        <ele>693.6</ele>
        <time>2022-05-21T08:21:48.000Z</time>
      </trkpt>
      <trkpt lat="42.8782" lon="1.18533">
        <ele>693.7</ele>
        <time>2022-05-21T08:21:50.000Z</time>
      </trkpt>
      <trkpt lat="42.87815" lon="1.18515">
        <ele>693.7</ele>
        <time>2022-05-21T08:21:52.000Z</time>
      </trkpt>
      <trkpt lat="42.8781" lon="1.18498">
        <ele>693.7</ele>
        <time>2022-05-21T08:21:54.000Z</time>
      </trkpt>
      <trkpt lat="42.87808" lon="1.18481">
        <ele>693.2</ele>
        <time>2022-05-21T08:21:56.000Z</time>
      </trkpt>
      <trkpt lat="42.87809" lon="1.18464">
        <ele>692.4</ele>
        <time>2022-05-21T08:21:58.000Z</time>
      </trkpt>
      <trkpt lat="42.87812" lon="1.18451">
        <ele>692.3</ele>
        <time>2022-05-21T08:22:00.000Z</time>
      </trkpt>
      <trkpt lat="42.87819" lon="1.18436">
        <ele>691.5</ele>
        <time>2022-05-21T08:22:03.000Z</time>
      </trkpt>
      <trkpt lat="42.87829" lon="1.18425">
        <ele>690.5</ele>
        <time>2022-05-21T08:22:06.000Z</time>
      </trkpt>
      <trkpt lat="42.87838" lon="1.18418">
        <ele>690.4</ele>
        <time>2022-05-21T08:22:08.000Z</time>
      </trkpt>
      <trkpt lat="42.87847" lon="1.18412">
        <ele>689.7</ele>
        <time>2022-05-21T08:22:10.000Z</time>
      </trkpt>
      <trkpt lat="42.87859" lon="1.1841">
        <ele>688.6</ele>
        <time>2022-05-21T08:22:12.000Z</time>
      </trkpt>
      <trkpt lat="42.87872" lon="1.18408">
        <ele>687.8</ele>
        <time>2022-05-21T08:22:14.000Z</time>
      </trkpt>
      <trkpt lat="42.87884" lon="1.18403">
        <ele>687.2</ele>
        <time>2022-05-21T08:22:16.000Z</time>
      </trkpt>
      <trkpt lat="42.87896" lon="1.18396">
        <ele>686.7</ele>
        <time>2022-05-21T08:22:18.000Z</time>
      </trkpt>
      <trkpt lat="42.87904" lon="1.18388">
        <ele>685.9</ele>
        <time>2022-05-21T08:22:20.000Z</time>
      </trkpt>
      <trkpt lat="42.87903" lon="1.18371">
        <ele>684.8</ele>
        <time>2022-05-21T08:22:23.000Z</time>
      </trkpt>
      <trkpt lat="42.87893" lon="1.18363">
        <ele>684.1</ele>
        <time>2022-05-21T08:22:26.000Z</time>
      </trkpt>
      <trkpt lat="42.87882" lon="1.18358">
        <ele>682.8</ele>
        <time>2022-05-21T08:22:29.000Z</time>
      </trkpt>
      <trkpt lat="42.87873" lon="1.18354">
        <ele>682.2</ele>
        <time>2022-05-21T08:22:31.000Z</time>
      </trkpt>
      <trkpt lat="42.87861" lon="1.1835">
        <ele>681</ele>
        <time>2022-05-21T08:22:33.000Z</time>
      </trkpt>
      <trkpt lat="42.87848" lon="1.18346">
        <ele>680.5</ele>
        <time>2022-05-21T08:22:35.000Z</time>
      </trkpt>
      <trkpt lat="42.87834" lon="1.18342">
        <ele>680</ele>
        <time>2022-05-21T08:22:37.000Z</time>
      </trkpt>
      <trkpt lat="42.8782" lon="1.18334">
        <ele>677.8</ele>
        <time>2022-05-21T08:22:39.000Z</time>
      </trkpt>
      <trkpt lat="42.87808" lon="1.18321">
        <ele>677</ele>
        <time>2022-05-21T08:22:41.000Z</time>
      </trkpt>
      <trkpt lat="42.87798" lon="1.18307">
        <ele>676.6</ele>
        <time>2022-05-21T08:22:43.000Z</time>
      </trkpt>
      <trkpt lat="42.87791" lon="1.1829">
        <ele>675.4</ele>
        <time>2022-05-21T08:22:45.000Z</time>
      </trkpt>
      <trkpt lat="42.87787" lon="1.18269">
        <ele>674</ele>
        <time>2022-05-21T08:22:47.000Z</time>
      </trkpt>
      <trkpt lat="42.87787" lon="1.18249">
        <ele>673.8</ele>
        <time>2022-05-21T08:22:49.000Z</time>
      </trkpt>
      <trkpt lat="42.87791" lon="1.18231">
        <ele>673</ele>
        <time>2022-05-21T08:22:51.000Z</time>
      </trkpt>
      <trkpt lat="42.87795" lon="1.18217">
        <ele>672.1</ele>
        <time>2022-05-21T08:22:53.000Z</time>
      </trkpt>
      <trkpt lat="42.878" lon="1.18202">
        <ele>671.3</ele>
        <time>2022-05-21T08:22:55.000Z</time>
      </trkpt>
      <trkpt lat="42.87806" lon="1.18188">
        <ele>670.6</ele>
        <time>2022-05-21T08:22:57.000Z</time>
      </trkpt>
      <trkpt lat="42.87814" lon="1.18176">
        <ele>669.7</ele>
        <time>2022-05-21T08:22:59.000Z</time>
      </trkpt>
      <trkpt lat="42.87823" lon="1.18165">
        <ele>669.4</ele>
        <time>2022-05-21T08:23:01.000Z</time>
      </trkpt>
      <trkpt lat="42.87832" lon="1.18155">
        <ele>668.6</ele>
        <time>2022-05-21T08:23:03.000Z</time>
      </trkpt>
      <trkpt lat="42.87844" lon="1.18147">
        <ele>668.1</ele>
        <time>2022-05-21T08:23:05.000Z</time>
      </trkpt>
      <trkpt lat="42.87855" lon="1.18137">
        <ele>667.1</ele>
        <time>2022-05-21T08:23:07.000Z</time>
      </trkpt>
      <trkpt lat="42.87861" lon="1.18121">
        <ele>665.7</ele>
        <time>2022-05-21T08:23:09.000Z</time>
      </trkpt>
      <trkpt lat="42.87863" lon="1.18103">
        <ele>665.1</ele>
        <time>2022-05-21T08:23:11.000Z</time>
      </trkpt>
      <trkpt lat="42.87868" lon="1.18085">
        <ele>664.4</ele>
        <time>2022-05-21T08:23:13.000Z</time>
      </trkpt>
      <trkpt lat="42.87876" lon="1.18071">
        <ele>663.5</ele>
        <time>2022-05-21T08:23:15.000Z</time>
      </trkpt>
      <trkpt lat="42.87883" lon="1.1806">
        <ele>663</ele>
        <time>2022-05-21T08:23:17.000Z</time>
      </trkpt>
      <trkpt lat="42.87891" lon="1.18048">
        <ele>662</ele>
        <time>2022-05-21T08:23:19.000Z</time>
      </trkpt>
      <trkpt lat="42.87898" lon="1.18037">
        <ele>661.4</ele>
        <time>2022-05-21T08:23:21.000Z</time>
      </trkpt>
      <trkpt lat="42.87907" lon="1.18025">
        <ele>660.5</ele>
        <time>2022-05-21T08:23:23.000Z</time>
      </trkpt>
      <trkpt lat="42.87917" lon="1.18012">
        <ele>659.5</ele>
        <time>2022-05-21T08:23:25.000Z</time>
      </trkpt>
      <trkpt lat="42.87926" lon="1.17998">
        <ele>658.7</ele>
        <time>2022-05-21T08:23:27.000Z</time>
      </trkpt>
      <trkpt lat="42.87936" lon="1.17983">
        <ele>657.8</ele>
        <time>2022-05-21T08:23:29.000Z</time>
      </trkpt>
      <trkpt lat="42.87944" lon="1.17971">
        <ele>657.3</ele>
        <time>2022-05-21T08:23:31.000Z</time>
      </trkpt>
      <trkpt lat="42.87954" lon="1.17962">
        <ele>656.5</ele>
        <time>2022-05-21T08:23:33.000Z</time>
      </trkpt>
      <trkpt lat="42.8796" lon="1.1795">
        <ele>656.1</ele>
        <time>2022-05-21T08:23:35.000Z</time>
      </trkpt>
      <trkpt lat="42.87956" lon="1.17937">
        <ele>655</ele>
        <time>2022-05-21T08:23:37.000Z</time>
      </trkpt>
      <trkpt lat="42.87946" lon="1.17932">
        <ele>654.3</ele>
        <time>2022-05-21T08:23:40.000Z</time>
      </trkpt>
      <trkpt lat="42.87937" lon="1.17932">
        <ele>653.2</ele>
        <time>2022-05-21T08:23:43.000Z</time>
      </trkpt>
      <trkpt lat="42.87927" lon="1.17934">
        <ele>652</ele>
        <time>2022-05-21T08:23:46.000Z</time>
      </trkpt>
      <trkpt lat="42.87917" lon="1.17934">
        <ele>650.6</ele>
        <time>2022-05-21T08:23:49.000Z</time>
      </trkpt>
      <trkpt lat="42.87906" lon="1.17931">
        <ele>649.4</ele>
        <time>2022-05-21T08:23:53.000Z</time>
      </trkpt>
      <trkpt lat="42.87895" lon="1.17926">
        <ele>648.4</ele>
        <time>2022-05-21T08:23:57.000Z</time>
      </trkpt>
      <trkpt lat="42.87885" lon="1.17923">
        <ele>647.4</ele>
        <time>2022-05-21T08:24:01.000Z</time>
      </trkpt>
      <trkpt lat="42.87875" lon="1.1792">
        <ele>647.3</ele>
        <time>2022-05-21T08:24:05.000Z</time>
      </trkpt>
      <trkpt lat="42.87865" lon="1.17915">
        <ele>646.6</ele>
        <time>2022-05-21T08:24:09.000Z</time>
      </trkpt>
      <trkpt lat="42.87854" lon="1.17915">
        <ele>646.1</ele>
        <time>2022-05-21T08:24:13.000Z</time>
      </trkpt>
      <trkpt lat="42.87844" lon="1.1792">
        <ele>645.4</ele>
        <time>2022-05-21T08:24:17.000Z</time>
      </trkpt>
      <trkpt lat="42.87836" lon="1.17926">
        <ele>645</ele>
        <time>2022-05-21T08:24:21.000Z</time>
      </trkpt>
      <trkpt lat="42.87826" lon="1.1793">
        <ele>644.9</ele>
        <time>2022-05-21T08:24:26.000Z</time>
      </trkpt>
      <trkpt lat="42.87814" lon="1.17934">
        <ele>644.6</ele>
        <time>2022-05-21T08:24:31.000Z</time>
      </trkpt>
      <trkpt lat="42.87803" lon="1.17935">
        <ele>644.6</ele>
        <time>2022-05-21T08:24:36.000Z</time>
      </trkpt>
      <trkpt lat="42.87794" lon="1.17935">
        <ele>644.6</ele>
        <time>2022-05-21T08:24:40.000Z</time>
      </trkpt>
      <trkpt lat="42.87785" lon="1.17937">
        <ele>644.6</ele>
        <time>2022-05-21T08:24:44.000Z</time>
      </trkpt>
      <trkpt lat="42.87775" lon="1.1794">
        <ele>645.2</ele>
        <time>2022-05-21T08:24:48.000Z</time>
      </trkpt>
      <trkpt lat="42.87766" lon="1.17943">
        <ele>645.3</ele>
        <time>2022-05-21T08:24:52.000Z</time>
      </trkpt>
      <trkpt lat="42.87757" lon="1.17945">
        <ele>645.9</ele>
        <time>2022-05-21T08:24:56.000Z</time>
      </trkpt>
      <trkpt lat="42.87747" lon="1.17948">
        <ele>646.2</ele>
        <time>2022-05-21T08:25:00.000Z</time>
      </trkpt>
      <trkpt lat="42.87738" lon="1.17951">
        <ele>646.5</ele>
        <time>2022-05-21T08:25:04.000Z</time>
      </trkpt>
      <trkpt lat="42.87727" lon="1.17951">
        <ele>646.3</ele>
        <time>2022-05-21T08:25:08.000Z</time>
      </trkpt>
      <trkpt lat="42.87716" lon="1.17948">
        <ele>646.7</ele>
        <time>2022-05-21T08:25:12.000Z</time>
      </trkpt>
      <trkpt lat="42.87706" lon="1.17943">
        <ele>646.6</ele>
        <time>2022-05-21T08:25:16.000Z</time>
      </trkpt>
      <trkpt lat="42.87695" lon="1.17939">
        <ele>646.6</ele>
        <time>2022-05-21T08:25:20.000Z</time>
      </trkpt>
      <trkpt lat="42.87684" lon="1.17939">
        <ele>646.9</ele>
        <time>2022-05-21T08:25:24.000Z</time>
      </trkpt>
      <trkpt lat="42.87674" lon="1.17944">
        <ele>647</ele>
        <time>2022-05-21T08:25:28.000Z</time>
      </trkpt>
      <trkpt lat="42.87665" lon="1.17952">
        <ele>647.2</ele>
        <time>2022-05-21T08:25:32.000Z</time>
      </trkpt>
      <trkpt lat="42.87658" lon="1.17962">
        <ele>647.5</ele>
        <time>2022-05-21T08:25:36.000Z</time>
      </trkpt>
      <trkpt lat="42.8765" lon="1.17972">
        <ele>648.1</ele>
        <time>2022-05-21T08:25:40.000Z</time>
      </trkpt>
      <trkpt lat="42.87643" lon="1.17982">
        <ele>648.9</ele>
        <time>2022-05-21T08:25:44.000Z</time>
      </trkpt>
      <trkpt lat="42.87634" lon="1.17992">
        <ele>649.5</ele>
        <time>2022-05-21T08:25:48.000Z</time>
      </trkpt>
      <trkpt lat="42.87626" lon="1.17998">
        <ele>650.2</ele>
        <time>2022-05-21T08:25:52.000Z</time>
      </trkpt>
      <trkpt lat="42.87618" lon="1.18004">
        <ele>651.2</ele>
        <time>2022-05-21T08:25:56.000Z</time>
      </trkpt>
      <trkpt lat="42.87608" lon="1.1801">
        <ele>651.6</ele>
        <time>2022-05-21T08:26:00.000Z</time>
      </trkpt>
      <trkpt lat="42.87599" lon="1.18014">
        <ele>652.2</ele>
        <time>2022-05-21T08:26:04.000Z</time>
      </trkpt>
      <trkpt lat="42.87589" lon="1.18017">
        <ele>652.1</ele>
        <time>2022-05-21T08:26:08.000Z</time>
      </trkpt>
      <trkpt lat="42.87579" lon="1.18018">
        <ele>652.1</ele>
        <time>2022-05-21T08:26:12.000Z</time>
      </trkpt>
      <trkpt lat="42.87569" lon="1.18014">
        <ele>652.7</ele>
        <time>2022-05-21T08:26:16.000Z</time>
      </trkpt>
      <trkpt lat="42.87561" lon="1.18007">
        <ele>652.6</ele>
        <time>2022-05-21T08:26:20.000Z</time>
      </trkpt>
      <trkpt lat="42.87554" lon="1.17997">
        <ele>652.3</ele>
        <time>2022-05-21T08:26:24.000Z</time>
      </trkpt>
      <trkpt lat="42.87546" lon="1.17987">
        <ele>652.3</ele>
        <time>2022-05-21T08:26:28.000Z</time>
      </trkpt>
      <trkpt lat="42.87543" lon="1.17974">
        <ele>652.4</ele>
        <time>2022-05-21T08:26:32.000Z</time>
      </trkpt>
      <trkpt lat="42.87549" lon="1.17964">
        <ele>653.1</ele>
        <time>2022-05-21T08:26:36.000Z</time>
      </trkpt>
      <trkpt lat="42.87556" lon="1.17953">
        <ele>654.3</ele>
        <time>2022-05-21T08:26:41.000Z</time>
      </trkpt>
      <trkpt lat="42.87562" lon="1.1794">
        <ele>655.6</ele>
        <time>2022-05-21T08:26:46.000Z</time>
      </trkpt>
      <trkpt lat="42.87569" lon="1.1793">
        <ele>656.3</ele>
        <time>2022-05-21T08:26:51.000Z</time>
      </trkpt>
      <trkpt lat="42.87575" lon="1.17917">
        <ele>657.2</ele>
        <time>2022-05-21T08:26:56.000Z</time>
      </trkpt>
      <trkpt lat="42.87582" lon="1.17906">
        <ele>657.9</ele>
        <time>2022-05-21T08:27:01.000Z</time>
      </trkpt>
      <trkpt lat="42.87586" lon="1.17893">
        <ele>658.6</ele>
        <time>2022-05-21T08:27:06.000Z</time>
      </trkpt>
      <trkpt lat="42.87584" lon="1.17878">
        <ele>659.7</ele>
        <time>2022-05-21T08:27:11.000Z</time>
      </trkpt>
      <trkpt lat="42.8758" lon="1.17866">
        <ele>660.4</ele>
        <time>2022-05-21T08:27:16.000Z</time>
      </trkpt>
      <trkpt lat="42.87586" lon="1.17855">
        <ele>662.1</ele>
        <time>2022-05-21T08:27:21.000Z</time>
      </trkpt>
      <trkpt lat="42.87592" lon="1.17846">
        <ele>663.2</ele>
        <time>2022-05-21T08:27:26.000Z</time>
      </trkpt>
      <trkpt lat="42.87601" lon="1.1785">
        <ele>664.5</ele>
        <time>2022-05-21T08:27:31.000Z</time>
      </trkpt>
      <trkpt lat="42.87613" lon="1.1785">
        <ele>665.4</ele>
        <time>2022-05-21T08:27:35.000Z</time>
      </trkpt>
      <trkpt lat="42.8762" lon="1.17842">
        <ele>666.5</ele>
        <time>2022-05-21T08:27:39.000Z</time>
      </trkpt>
      <trkpt lat="42.87626" lon="1.17829">
        <ele>667.6</ele>
        <time>2022-05-21T08:27:44.000Z</time>
      </trkpt>
      <trkpt lat="42.8763" lon="1.17817">
        <ele>668.8</ele>
        <time>2022-05-21T08:27:49.000Z</time>
      </trkpt>
      <trkpt lat="42.87635" lon="1.17806">
        <ele>671</ele>
        <time>2022-05-21T08:27:54.000Z</time>
      </trkpt>
      <trkpt lat="42.87611" lon="1.17791">
        <ele>683.4</ele>
        <time>2022-05-21T08:28:04.000Z</time>
      </trkpt>
      <trkpt lat="42.87602" lon="1.17759">
        <ele>689.9</ele>
        <time>2022-05-21T08:28:08.000Z</time>
      </trkpt>
      <trkpt lat="42.87619" lon="1.17721">
        <ele>696.4</ele>
        <time>2022-05-21T08:28:13.000Z</time>
      </trkpt>
      <trkpt lat="42.87639" lon="1.177">
        <ele>700.2</ele>
        <time>2022-05-21T08:28:18.000Z</time>
      </trkpt>
      <trkpt lat="42.87647" lon="1.17676">
        <ele>705.2</ele>
        <time>2022-05-21T08:28:24.000Z</time>
      </trkpt>
      <trkpt lat="42.87665" lon="1.17674">
        <ele>705.6</ele>
        <time>2022-05-21T08:28:36.000Z</time>
      </trkpt>
      <trkpt lat="42.87684" lon="1.17665">
        <ele>706.6</ele>
        <time>2022-05-21T08:28:48.000Z</time>
      </trkpt>
      <trkpt lat="42.87696" lon="1.1766">
        <ele>707.1</ele>
        <time>2022-05-21T08:29:06.000Z</time>
      </trkpt>
      <trkpt lat="42.87701" lon="1.17655">
        <ele>692</ele>
        <time>2022-05-21T08:29:12.000Z</time>
      </trkpt>
      <trkpt lat="42.87707" lon="1.17644">
        <ele>693.5</ele>
        <time>2022-05-21T08:29:18.000Z</time>
      </trkpt>
      <trkpt lat="42.87715" lon="1.17638">
        <ele>696.3</ele>
        <time>2022-05-21T08:29:24.000Z</time>
      </trkpt>
      <trkpt lat="42.87722" lon="1.17628">
        <ele>697.8</ele>
        <time>2022-05-21T08:29:30.000Z</time>
      </trkpt>
      <trkpt lat="42.87729" lon="1.17619">
        <ele>699</ele>
        <time>2022-05-21T08:29:35.000Z</time>
      </trkpt>
      <trkpt lat="42.87737" lon="1.1761">
        <ele>700.6</ele>
        <time>2022-05-21T08:29:40.000Z</time>
      </trkpt>
      <trkpt lat="42.87745" lon="1.17601">
        <ele>701.4</ele>
        <time>2022-05-21T08:29:45.000Z</time>
      </trkpt>
      <trkpt lat="42.87753" lon="1.17592">
        <ele>702.1</ele>
        <time>2022-05-21T08:29:50.000Z</time>
      </trkpt>
      <trkpt lat="42.87761" lon="1.17584">
        <ele>703.1</ele>
        <time>2022-05-21T08:29:55.000Z</time>
      </trkpt>
      <trkpt lat="42.8776" lon="1.1757">
        <ele>704.5</ele>
        <time>2022-05-21T08:30:01.000Z</time>
      </trkpt>
      <trkpt lat="42.8775" lon="1.17573">
        <ele>705.6</ele>
        <time>2022-05-21T08:30:06.000Z</time>
      </trkpt>
      <trkpt lat="42.87741" lon="1.17576">
        <ele>707.1</ele>
        <time>2022-05-21T08:30:10.000Z</time>
      </trkpt>
      <trkpt lat="42.87731" lon="1.1758">
        <ele>709.1</ele>
        <time>2022-05-21T08:30:14.000Z</time>
      </trkpt>
      <trkpt lat="42.87722" lon="1.17584">
        <ele>710.1</ele>
        <time>2022-05-21T08:30:18.000Z</time>
      </trkpt>
      <trkpt lat="42.87712" lon="1.17588">
        <ele>711.8</ele>
        <time>2022-05-21T08:30:22.000Z</time>
      </trkpt>
      <trkpt lat="42.87702" lon="1.17589">
        <ele>713.7</ele>
        <time>2022-05-21T08:30:26.000Z</time>
      </trkpt>
      <trkpt lat="42.87693" lon="1.17584">
        <ele>715.4</ele>
        <time>2022-05-21T08:30:30.000Z</time>
      </trkpt>
      <trkpt lat="42.87687" lon="1.17574">
        <ele>716.8</ele>
        <time>2022-05-21T08:30:34.000Z</time>
      </trkpt>
      <trkpt lat="42.87682" lon="1.17562">
        <ele>717.6</ele>
        <time>2022-05-21T08:30:38.000Z</time>
      </trkpt>
      <trkpt lat="42.8768" lon="1.17549">
        <ele>719.1</ele>
        <time>2022-05-21T08:30:42.000Z</time>
      </trkpt>
      <trkpt lat="42.87677" lon="1.17536">
        <ele>720.6</ele>
        <time>2022-05-21T08:30:46.000Z</time>
      </trkpt>
      <trkpt lat="42.87676" lon="1.17523">
        <ele>722.2</ele>
        <time>2022-05-21T08:30:50.000Z</time>
      </trkpt>
      <trkpt lat="42.87676" lon="1.1751">
        <ele>724.2</ele>
        <time>2022-05-21T08:30:54.000Z</time>
      </trkpt>
      <trkpt lat="42.87676" lon="1.17496">
        <ele>726</ele>
        <time>2022-05-21T08:30:58.000Z</time>
      </trkpt>
      <trkpt lat="42.87676" lon="1.17483">
        <ele>728</ele>
        <time>2022-05-21T08:31:02.000Z</time>
      </trkpt>
      <trkpt lat="42.8768" lon="1.17471">
        <ele>730</ele>
        <time>2022-05-21T08:31:06.000Z</time>
      </trkpt>
      <trkpt lat="42.87684" lon="1.17459">
        <ele>731.9</ele>
        <time>2022-05-21T08:31:10.000Z</time>
      </trkpt>
      <trkpt lat="42.87689" lon="1.17448">
        <ele>733.8</ele>
        <time>2022-05-21T08:31:14.000Z</time>
      </trkpt>
      <trkpt lat="42.87693" lon="1.17436">
        <ele>734.8</ele>
        <time>2022-05-21T08:31:18.000Z</time>
      </trkpt>
      <trkpt lat="42.87699" lon="1.17425">
        <ele>736.1</ele>
        <time>2022-05-21T08:31:22.000Z</time>
      </trkpt>
      <trkpt lat="42.87705" lon="1.17414">
        <ele>736.6</ele>
        <time>2022-05-21T08:31:26.000Z</time>
      </trkpt>
      <trkpt lat="42.87709" lon="1.17402">
        <ele>737.8</ele>
        <time>2022-05-21T08:31:30.000Z</time>
      </trkpt>
      <trkpt lat="42.87711" lon="1.17389">
        <ele>739.1</ele>
        <time>2022-05-21T08:31:34.000Z</time>
      </trkpt>
      <trkpt lat="42.87715" lon="1.17375">
        <ele>740</ele>
        <time>2022-05-21T08:31:38.000Z</time>
      </trkpt>
      <trkpt lat="42.87718" lon="1.17361">
        <ele>741.5</ele>
        <time>2022-05-21T08:31:42.000Z</time>
      </trkpt>
      <trkpt lat="42.8772" lon="1.17346">
        <ele>742.6</ele>
        <time>2022-05-21T08:31:46.000Z</time>
      </trkpt>
      <trkpt lat="42.87723" lon="1.17331">
        <ele>744</ele>
        <time>2022-05-21T08:31:50.000Z</time>
      </trkpt>
      <trkpt lat="42.87726" lon="1.17317">
        <ele>745.8</ele>
        <time>2022-05-21T08:31:54.000Z</time>
      </trkpt>
      <trkpt lat="42.87728" lon="1.17301">
        <ele>747.1</ele>
        <time>2022-05-21T08:31:58.000Z</time>
      </trkpt>
      <trkpt lat="42.87728" lon="1.17285">
        <ele>748.8</ele>
        <time>2022-05-21T08:32:02.000Z</time>
      </trkpt>
      <trkpt lat="42.87728" lon="1.17271">
        <ele>750.7</ele>
        <time>2022-05-21T08:32:06.000Z</time>
      </trkpt>
      <trkpt lat="42.87727" lon="1.17258">
        <ele>752.4</ele>
        <time>2022-05-21T08:32:10.000Z</time>
      </trkpt>
      <trkpt lat="42.87727" lon="1.17245">
        <ele>754.2</ele>
        <time>2022-05-21T08:32:14.000Z</time>
      </trkpt>
      <trkpt lat="42.87725" lon="1.17231">
        <ele>755.9</ele>
        <time>2022-05-21T08:32:18.000Z</time>
      </trkpt>
      <trkpt lat="42.87724" lon="1.17218">
        <ele>757</ele>
        <time>2022-05-21T08:32:22.000Z</time>
      </trkpt>
      <trkpt lat="42.8772" lon="1.17206">
        <ele>758.2</ele>
        <time>2022-05-21T08:32:26.000Z</time>
      </trkpt>
      <trkpt lat="42.87715" lon="1.17193">
        <ele>758.4</ele>
        <time>2022-05-21T08:32:31.000Z</time>
      </trkpt>
      <trkpt lat="42.8771" lon="1.17182">
        <ele>758.8</ele>
        <time>2022-05-21T08:32:35.000Z</time>
      </trkpt>
      <trkpt lat="42.87708" lon="1.17176">
        <ele>759</ele>
        <time>2022-05-21T08:32:39.000Z</time>
      </trkpt>
      <trkpt lat="42.87705" lon="1.17161">
        <ele>758.7</ele>
        <time>2022-05-21T08:32:45.000Z</time>
      </trkpt>
      <trkpt lat="42.87702" lon="1.17146">
        <ele>759.2</ele>
        <time>2022-05-21T08:32:49.000Z</time>
      </trkpt>
      <trkpt lat="42.87699" lon="1.17133">
        <ele>759.3</ele>
        <time>2022-05-21T08:32:53.000Z</time>
      </trkpt>
      <trkpt lat="42.87697" lon="1.17119">
        <ele>760</ele>
        <time>2022-05-21T08:32:57.000Z</time>
      </trkpt>
      <trkpt lat="42.87696" lon="1.17106">
        <ele>760.7</ele>
        <time>2022-05-21T08:33:01.000Z</time>
      </trkpt>
      <trkpt lat="42.87694" lon="1.17093">
        <ele>761.8</ele>
        <time>2022-05-21T08:33:05.000Z</time>
      </trkpt>
      <trkpt lat="42.87693" lon="1.1708">
        <ele>763.1</ele>
        <time>2022-05-21T08:33:09.000Z</time>
      </trkpt>
      <trkpt lat="42.87695" lon="1.17067">
        <ele>764.4</ele>
        <time>2022-05-21T08:33:13.000Z</time>
      </trkpt>
      <trkpt lat="42.87699" lon="1.17054">
        <ele>765.8</ele>
        <time>2022-05-21T08:33:17.000Z</time>
      </trkpt>
      <trkpt lat="42.87704" lon="1.17042">
        <ele>767.6</ele>
        <time>2022-05-21T08:33:21.000Z</time>
      </trkpt>
      <trkpt lat="42.87711" lon="1.1703">
        <ele>769.9</ele>
        <time>2022-05-21T08:33:26.000Z</time>
      </trkpt>
      <trkpt lat="42.87715" lon="1.17017">
        <ele>771.6</ele>
        <time>2022-05-21T08:33:31.000Z</time>
      </trkpt>
      <trkpt lat="42.8772" lon="1.17006">
        <ele>773.1</ele>
        <time>2022-05-21T08:33:35.000Z</time>
      </trkpt>
      <trkpt lat="42.87724" lon="1.16994">
        <ele>774.9</ele>
        <time>2022-05-21T08:33:39.000Z</time>
      </trkpt>
      <trkpt lat="42.87726" lon="1.16982">
        <ele>776.4</ele>
        <time>2022-05-21T08:33:43.000Z</time>
      </trkpt>
      <trkpt lat="42.87728" lon="1.16967">
        <ele>778.5</ele>
        <time>2022-05-21T08:33:48.000Z</time>
      </trkpt>
      <trkpt lat="42.87729" lon="1.16955">
        <ele>780</ele>
        <time>2022-05-21T08:33:52.000Z</time>
      </trkpt>
      <trkpt lat="42.87731" lon="1.16941">
        <ele>781.3</ele>
        <time>2022-05-21T08:33:56.000Z</time>
      </trkpt>
      <trkpt lat="42.87732" lon="1.16929">
        <ele>782.4</ele>
        <time>2022-05-21T08:34:00.000Z</time>
      </trkpt>
      <trkpt lat="42.87734" lon="1.16916">
        <ele>783.3</ele>
        <time>2022-05-21T08:34:04.000Z</time>
      </trkpt>
      <trkpt lat="42.87738" lon="1.16904">
        <ele>784.4</ele>
        <time>2022-05-21T08:34:08.000Z</time>
      </trkpt>
      <trkpt lat="42.87743" lon="1.16892">
        <ele>785.7</ele>
        <time>2022-05-21T08:34:12.000Z</time>
      </trkpt>
      <trkpt lat="42.87746" lon="1.16879">
        <ele>786.7</ele>
        <time>2022-05-21T08:34:16.000Z</time>
      </trkpt>
      <trkpt lat="42.87749" lon="1.16867">
        <ele>788.2</ele>
        <time>2022-05-21T08:34:20.000Z</time>
      </trkpt>
      <trkpt lat="42.87753" lon="1.16856">
        <ele>789.1</ele>
        <time>2022-05-21T08:34:24.000Z</time>
      </trkpt>
      <trkpt lat="42.87756" lon="1.16844">
        <ele>789.7</ele>
        <time>2022-05-21T08:34:28.000Z</time>
      </trkpt>
      <trkpt lat="42.87759" lon="1.16829">
        <ele>791.1</ele>
        <time>2022-05-21T08:34:33.000Z</time>
      </trkpt>
      <trkpt lat="42.87762" lon="1.16816">
        <ele>791.9</ele>
        <time>2022-05-21T08:34:37.000Z</time>
      </trkpt>
      <trkpt lat="42.87765" lon="1.16801">
        <ele>792.6</ele>
        <time>2022-05-21T08:34:41.000Z</time>
      </trkpt>
      <trkpt lat="42.87768" lon="1.16787">
        <ele>793.1</ele>
        <time>2022-05-21T08:34:45.000Z</time>
      </trkpt>
      <trkpt lat="42.87769" lon="1.16775">
        <ele>793.8</ele>
        <time>2022-05-21T08:34:48.000Z</time>
      </trkpt>
      <trkpt lat="42.87768" lon="1.16761">
        <ele>794.1</ele>
        <time>2022-05-21T08:34:51.000Z</time>
      </trkpt>
      <trkpt lat="42.87768" lon="1.16748">
        <ele>794.2</ele>
        <time>2022-05-21T08:34:54.000Z</time>
      </trkpt>
      <trkpt lat="42.87769" lon="1.16734">
        <ele>795</ele>
        <time>2022-05-21T08:34:57.000Z</time>
      </trkpt>
      <trkpt lat="42.87768" lon="1.1672">
        <ele>795.5</ele>
        <time>2022-05-21T08:35:00.000Z</time>
      </trkpt>
      <trkpt lat="42.87768" lon="1.16706">
        <ele>795.8</ele>
        <time>2022-05-21T08:35:03.000Z</time>
      </trkpt>
      <trkpt lat="42.87767" lon="1.16691">
        <ele>796</ele>
        <time>2022-05-21T08:35:06.000Z</time>
      </trkpt>
      <trkpt lat="42.87767" lon="1.16677">
        <ele>796.6</ele>
        <time>2022-05-21T08:35:09.000Z</time>
      </trkpt>
      <trkpt lat="42.87766" lon="1.16662">
        <ele>796.8</ele>
        <time>2022-05-21T08:35:12.000Z</time>
      </trkpt>
      <trkpt lat="42.87764" lon="1.16648">
        <ele>797.4</ele>
        <time>2022-05-21T08:35:15.000Z</time>
      </trkpt>
      <trkpt lat="42.87763" lon="1.16633">
        <ele>797.9</ele>
        <time>2022-05-21T08:35:18.000Z</time>
      </trkpt>
      <trkpt lat="42.8776" lon="1.16618">
        <ele>798</ele>
        <time>2022-05-21T08:35:21.000Z</time>
      </trkpt>
      <trkpt lat="42.87756" lon="1.16603">
        <ele>798.4</ele>
        <time>2022-05-21T08:35:24.000Z</time>
      </trkpt>
      <trkpt lat="42.87752" lon="1.1659">
        <ele>798</ele>
        <time>2022-05-21T08:35:27.000Z</time>
      </trkpt>
      <trkpt lat="42.87748" lon="1.16577">
        <ele>798.2</ele>
        <time>2022-05-21T08:35:30.000Z</time>
      </trkpt>
      <trkpt lat="42.87743" lon="1.16565">
        <ele>798.2</ele>
        <time>2022-05-21T08:35:33.000Z</time>
      </trkpt>
      <trkpt lat="42.87738" lon="1.16552">
        <ele>798.2</ele>
        <time>2022-05-21T08:35:36.000Z</time>
      </trkpt>
      <trkpt lat="42.87733" lon="1.1654">
        <ele>798</ele>
        <time>2022-05-21T08:35:39.000Z</time>
      </trkpt>
      <trkpt lat="42.87728" lon="1.16527">
        <ele>798.1</ele>
        <time>2022-05-21T08:35:42.000Z</time>
      </trkpt>
      <trkpt lat="42.87723" lon="1.16513">
        <ele>797.9</ele>
        <time>2022-05-21T08:35:45.000Z</time>
      </trkpt>
      <trkpt lat="42.8772" lon="1.165">
        <ele>797.9</ele>
        <time>2022-05-21T08:35:48.000Z</time>
      </trkpt>
      <trkpt lat="42.87718" lon="1.16485">
        <ele>797.8</ele>
        <time>2022-05-21T08:35:51.000Z</time>
      </trkpt>
      <trkpt lat="42.87718" lon="1.16468">
        <ele>798.2</ele>
        <time>2022-05-21T08:35:54.000Z</time>
      </trkpt>
      <trkpt lat="42.8772" lon="1.16453">
        <ele>798</ele>
        <time>2022-05-21T08:35:57.000Z</time>
      </trkpt>
      <trkpt lat="42.87725" lon="1.1644">
        <ele>798.3</ele>
        <time>2022-05-21T08:36:00.000Z</time>
      </trkpt>
      <trkpt lat="42.87733" lon="1.1643">
        <ele>798.2</ele>
        <time>2022-05-21T08:36:03.000Z</time>
      </trkpt>
      <trkpt lat="42.87741" lon="1.1642">
        <ele>798.1</ele>
        <time>2022-05-21T08:36:06.000Z</time>
      </trkpt>
      <trkpt lat="42.8775" lon="1.16412">
        <ele>797.9</ele>
        <time>2022-05-21T08:36:09.000Z</time>
      </trkpt>
      <trkpt lat="42.8776" lon="1.16403">
        <ele>797.7</ele>
        <time>2022-05-21T08:36:12.000Z</time>
      </trkpt>
      <trkpt lat="42.87769" lon="1.16391">
        <ele>797.4</ele>
        <time>2022-05-21T08:36:15.000Z</time>
      </trkpt>
      <trkpt lat="42.87775" lon="1.16376">
        <ele>797.6</ele>
        <time>2022-05-21T08:36:18.000Z</time>
      </trkpt>
      <trkpt lat="42.87779" lon="1.1636">
        <ele>797.5</ele>
        <time>2022-05-21T08:36:21.000Z</time>
      </trkpt>
      <trkpt lat="42.87782" lon="1.16345">
        <ele>797.3</ele>
        <time>2022-05-21T08:36:24.000Z</time>
      </trkpt>
      <trkpt lat="42.87789" lon="1.16333">
        <ele>797.5</ele>
        <time>2022-05-21T08:36:27.000Z</time>
      </trkpt>
      <trkpt lat="42.87798" lon="1.16322">
        <ele>797.5</ele>
        <time>2022-05-21T08:36:30.000Z</time>
      </trkpt>
      <trkpt lat="42.87807" lon="1.16314">
        <ele>797.2</ele>
        <time>2022-05-21T08:36:33.000Z</time>
      </trkpt>
      <trkpt lat="42.87816" lon="1.16306">
        <ele>797</ele>
        <time>2022-05-21T08:36:36.000Z</time>
      </trkpt>
      <trkpt lat="42.87825" lon="1.16299">
        <ele>796.3</ele>
        <time>2022-05-21T08:36:39.000Z</time>
      </trkpt>
      <trkpt lat="42.87833" lon="1.16291">
        <ele>795.9</ele>
        <time>2022-05-21T08:36:42.000Z</time>
      </trkpt>
      <trkpt lat="42.87843" lon="1.16285">
        <ele>795.4</ele>
        <time>2022-05-21T08:36:45.000Z</time>
      </trkpt>
      <trkpt lat="42.87853" lon="1.16281">
        <ele>794.7</ele>
        <time>2022-05-21T08:36:48.000Z</time>
      </trkpt>
      <trkpt lat="42.87863" lon="1.16278">
        <ele>794.5</ele>
        <time>2022-05-21T08:36:51.000Z</time>
      </trkpt>
      <trkpt lat="42.87873" lon="1.16274">
        <ele>793.7</ele>
        <time>2022-05-21T08:36:54.000Z</time>
      </trkpt>
      <trkpt lat="42.87881" lon="1.16269">
        <ele>793</ele>
        <time>2022-05-21T08:36:57.000Z</time>
      </trkpt>
      <trkpt lat="42.87891" lon="1.16261">
        <ele>792.3</ele>
        <time>2022-05-21T08:37:01.000Z</time>
      </trkpt>
      <trkpt lat="42.879" lon="1.16251">
        <ele>791.5</ele>
        <time>2022-05-21T08:37:05.000Z</time>
      </trkpt>
      <trkpt lat="42.87907" lon="1.16242">
        <ele>791.2</ele>
        <time>2022-05-21T08:37:08.000Z</time>
      </trkpt>
      <trkpt lat="42.87914" lon="1.16233">
        <ele>790.9</ele>
        <time>2022-05-21T08:37:11.000Z</time>
      </trkpt>
      <trkpt lat="42.87921" lon="1.16224">
        <ele>790.8</ele>
        <time>2022-05-21T08:37:14.000Z</time>
      </trkpt>
      <trkpt lat="42.87929" lon="1.16216">
        <ele>790.8</ele>
        <time>2022-05-21T08:37:17.000Z</time>
      </trkpt>
      <trkpt lat="42.87937" lon="1.16209">
        <ele>791</ele>
        <time>2022-05-21T08:37:20.000Z</time>
      </trkpt>
      <trkpt lat="42.87947" lon="1.16205">
        <ele>790.3</ele>
        <time>2022-05-21T08:37:23.000Z</time>
      </trkpt>
      <trkpt lat="42.87957" lon="1.16208">
        <ele>790.1</ele>
        <time>2022-05-21T08:37:26.000Z</time>
      </trkpt>
      <trkpt lat="42.87967" lon="1.16216">
        <ele>790.2</ele>
        <time>2022-05-21T08:37:29.000Z</time>
      </trkpt>
      <trkpt lat="42.87976" lon="1.16224">
        <ele>790</ele>
        <time>2022-05-21T08:37:32.000Z</time>
      </trkpt>
      <trkpt lat="42.87984" lon="1.16231">
        <ele>790.4</ele>
        <time>2022-05-21T08:37:35.000Z</time>
      </trkpt>
      <trkpt lat="42.87995" lon="1.16236">
        <ele>790.9</ele>
        <time>2022-05-21T08:37:39.000Z</time>
      </trkpt>
      <trkpt lat="42.88006" lon="1.16238">
        <ele>790.8</ele>
        <time>2022-05-21T08:37:43.000Z</time>
      </trkpt>
      <trkpt lat="42.88017" lon="1.16237">
        <ele>790.8</ele>
        <time>2022-05-21T08:37:47.000Z</time>
      </trkpt>
      <trkpt lat="42.88028" lon="1.16232">
        <ele>790.8</ele>
        <time>2022-05-21T08:37:51.000Z</time>
      </trkpt>
      <trkpt lat="42.88039" lon="1.16226">
        <ele>790.7</ele>
        <time>2022-05-21T08:37:55.000Z</time>
      </trkpt>
      <trkpt lat="42.88048" lon="1.16219">
        <ele>791</ele>
        <time>2022-05-21T08:37:59.000Z</time>
      </trkpt>
      <trkpt lat="42.88057" lon="1.16212">
        <ele>790.8</ele>
        <time>2022-05-21T08:38:03.000Z</time>
      </trkpt>
      <trkpt lat="42.88066" lon="1.16205">
        <ele>790.7</ele>
        <time>2022-05-21T08:38:07.000Z</time>
      </trkpt>
      <trkpt lat="42.88074" lon="1.16197">
        <ele>790.5</ele>
        <time>2022-05-21T08:38:11.000Z</time>
      </trkpt>
      <trkpt lat="42.8808" lon="1.16186">
        <ele>790.4</ele>
        <time>2022-05-21T08:38:15.000Z</time>
      </trkpt>
      <trkpt lat="42.88086" lon="1.16176">
        <ele>790.7</ele>
        <time>2022-05-21T08:38:18.000Z</time>
      </trkpt>
      <trkpt lat="42.88095" lon="1.16161">
        <ele>791</ele>
        <time>2022-05-21T08:38:21.000Z</time>
      </trkpt>
      <trkpt lat="42.88105" lon="1.16151">
        <ele>791.2</ele>
        <time>2022-05-21T08:38:23.000Z</time>
      </trkpt>
      <trkpt lat="42.88115" lon="1.1614">
        <ele>791.5</ele>
        <time>2022-05-21T08:38:25.000Z</time>
      </trkpt>
      <trkpt lat="42.88125" lon="1.16127">
        <ele>791.8</ele>
        <time>2022-05-21T08:38:27.000Z</time>
      </trkpt>
      <trkpt lat="42.88134" lon="1.16112">
        <ele>791.7</ele>
        <time>2022-05-21T08:38:29.000Z</time>
      </trkpt>
      <trkpt lat="42.88142" lon="1.16099">
        <ele>792.2</ele>
        <time>2022-05-21T08:38:31.000Z</time>
      </trkpt>
      <trkpt lat="42.88151" lon="1.16098">
        <ele>792.5</ele>
        <time>2022-05-21T08:38:33.000Z</time>
      </trkpt>
      <trkpt lat="42.88157" lon="1.16109">
        <ele>793.2</ele>
        <time>2022-05-21T08:38:35.000Z</time>
      </trkpt>
      <trkpt lat="42.88161" lon="1.16124">
        <ele>793.9</ele>
        <time>2022-05-21T08:38:38.000Z</time>
      </trkpt>
      <trkpt lat="42.88165" lon="1.16137">
        <ele>794.6</ele>
        <time>2022-05-21T08:38:41.000Z</time>
      </trkpt>
      <trkpt lat="42.88171" lon="1.16147">
        <ele>795.5</ele>
        <time>2022-05-21T08:38:44.000Z</time>
      </trkpt>
      <trkpt lat="42.8818" lon="1.1615">
        <ele>795.9</ele>
        <time>2022-05-21T08:38:47.000Z</time>
      </trkpt>
      <trkpt lat="42.8819" lon="1.16147">
        <ele>795.9</ele>
        <time>2022-05-21T08:38:50.000Z</time>
      </trkpt>
      <trkpt lat="42.88201" lon="1.16142">
        <ele>796.1</ele>
        <time>2022-05-21T08:38:53.000Z</time>
      </trkpt>
      <trkpt lat="42.88212" lon="1.16136">
        <ele>795.9</ele>
        <time>2022-05-21T08:38:56.000Z</time>
      </trkpt>
      <trkpt lat="42.88221" lon="1.16134">
        <ele>796</ele>
        <time>2022-05-21T08:38:58.000Z</time>
      </trkpt>
      <trkpt lat="42.88233" lon="1.1614">
        <ele>796.3</ele>
        <time>2022-05-21T08:39:01.000Z</time>
      </trkpt>
      <trkpt lat="42.88243" lon="1.16145">
        <ele>796.9</ele>
        <time>2022-05-21T08:39:04.000Z</time>
      </trkpt>
      <trkpt lat="42.88253" lon="1.16143">
        <ele>797.5</ele>
        <time>2022-05-21T08:39:07.000Z</time>
      </trkpt>
      <trkpt lat="42.88263" lon="1.16138">
        <ele>797.7</ele>
        <time>2022-05-21T08:39:10.000Z</time>
      </trkpt>
      <trkpt lat="42.88273" lon="1.16133">
        <ele>797.7</ele>
        <time>2022-05-21T08:39:13.000Z</time>
      </trkpt>
      <trkpt lat="42.88284" lon="1.16128">
        <ele>798</ele>
        <time>2022-05-21T08:39:16.000Z</time>
      </trkpt>
      <trkpt lat="42.88297" lon="1.16126">
        <ele>798.2</ele>
        <time>2022-05-21T08:39:19.000Z</time>
      </trkpt>
      <trkpt lat="42.88309" lon="1.16125">
        <ele>798.4</ele>
        <time>2022-05-21T08:39:22.000Z</time>
      </trkpt>
      <trkpt lat="42.88322" lon="1.16123">
        <ele>798.7</ele>
        <time>2022-05-21T08:39:25.000Z</time>
      </trkpt>
      <trkpt lat="42.88335" lon="1.16122">
        <ele>798.6</ele>
        <time>2022-05-21T08:39:28.000Z</time>
      </trkpt>
      <trkpt lat="42.88347" lon="1.16122">
        <ele>798.8</ele>
        <time>2022-05-21T08:39:31.000Z</time>
      </trkpt>
      <trkpt lat="42.88358" lon="1.16121">
        <ele>799.3</ele>
        <time>2022-05-21T08:39:34.000Z</time>
      </trkpt>
      <trkpt lat="42.88368" lon="1.16117">
        <ele>799.5</ele>
        <time>2022-05-21T08:39:37.000Z</time>
      </trkpt>
      <trkpt lat="42.88377" lon="1.16109">
        <ele>799.3</ele>
        <time>2022-05-21T08:39:40.000Z</time>
      </trkpt>
      <trkpt lat="42.88384" lon="1.16097">
        <ele>799.8</ele>
        <time>2022-05-21T08:39:43.000Z</time>
      </trkpt>
      <trkpt lat="42.88395" lon="1.16092">
        <ele>799.9</ele>
        <time>2022-05-21T08:39:46.000Z</time>
      </trkpt>
      <trkpt lat="42.88405" lon="1.16103">
        <ele>800.3</ele>
        <time>2022-05-21T08:39:49.000Z</time>
      </trkpt>
      <trkpt lat="42.88416" lon="1.16111">
        <ele>800.6</ele>
        <time>2022-05-21T08:39:52.000Z</time>
      </trkpt>
      <trkpt lat="42.8843" lon="1.16115">
        <ele>800.8</ele>
        <time>2022-05-21T08:39:55.000Z</time>
      </trkpt>
      <trkpt lat="42.8844" lon="1.16117">
        <ele>800.8</ele>
        <time>2022-05-21T08:39:57.000Z</time>
      </trkpt>
      <trkpt lat="42.88451" lon="1.16122">
        <ele>800.9</ele>
        <time>2022-05-21T08:39:59.000Z</time>
      </trkpt>
      <trkpt lat="42.8846" lon="1.16128">
        <ele>801.3</ele>
        <time>2022-05-21T08:40:01.000Z</time>
      </trkpt>
      <trkpt lat="42.88469" lon="1.16135">
        <ele>801.8</ele>
        <time>2022-05-21T08:40:03.000Z</time>
      </trkpt>
      <trkpt lat="42.8848" lon="1.16142">
        <ele>802.1</ele>
        <time>2022-05-21T08:40:06.000Z</time>
      </trkpt>
      <trkpt lat="42.88492" lon="1.16147">
        <ele>802.7</ele>
        <time>2022-05-21T08:40:09.000Z</time>
      </trkpt>
      <trkpt lat="42.88502" lon="1.16149">
        <ele>803.1</ele>
        <time>2022-05-21T08:40:12.000Z</time>
      </trkpt>
      <trkpt lat="42.88512" lon="1.16151">
        <ele>803.3</ele>
        <time>2022-05-21T08:40:15.000Z</time>
      </trkpt>
      <trkpt lat="42.88522" lon="1.16151">
        <ele>803.7</ele>
        <time>2022-05-21T08:40:18.000Z</time>
      </trkpt>
      <trkpt lat="42.88531" lon="1.16146">
        <ele>804.1</ele>
        <time>2022-05-21T08:40:21.000Z</time>
      </trkpt>
      <trkpt lat="42.88537" lon="1.16136">
        <ele>804.6</ele>
        <time>2022-05-21T08:40:24.000Z</time>
      </trkpt>
      <trkpt lat="42.88541" lon="1.16123">
        <ele>805.1</ele>
        <time>2022-05-21T08:40:27.000Z</time>
      </trkpt>
      <trkpt lat="42.88543" lon="1.16108">
        <ele>806</ele>
        <time>2022-05-21T08:40:31.000Z</time>
      </trkpt>
      <trkpt lat="42.88546" lon="1.16093">
        <ele>807.3</ele>
        <time>2022-05-21T08:40:35.000Z</time>
      </trkpt>
      <trkpt lat="42.8855" lon="1.16078">
        <ele>808.4</ele>
        <time>2022-05-21T08:40:39.000Z</time>
      </trkpt>
      <trkpt lat="42.88555" lon="1.16063">
        <ele>808.9</ele>
        <time>2022-05-21T08:40:43.000Z</time>
      </trkpt>
      <trkpt lat="42.88559" lon="1.16052">
        <ele>809.4</ele>
        <time>2022-05-21T08:40:46.000Z</time>
      </trkpt>
      <trkpt lat="42.88563" lon="1.16041">
        <ele>810.1</ele>
        <time>2022-05-21T08:40:49.000Z</time>
      </trkpt>
      <trkpt lat="42.88568" lon="1.16028">
        <ele>810.2</ele>
        <time>2022-05-21T08:40:52.000Z</time>
      </trkpt>
      <trkpt lat="42.88576" lon="1.16019">
        <ele>810.5</ele>
        <time>2022-05-21T08:40:55.000Z</time>
      </trkpt>
      <trkpt lat="42.88587" lon="1.1602">
        <ele>810.2</ele>
        <time>2022-05-21T08:40:58.000Z</time>
      </trkpt>
      <trkpt lat="42.88597" lon="1.1603">
        <ele>810.3</ele>
        <time>2022-05-21T08:41:01.000Z</time>
      </trkpt>
      <trkpt lat="42.88606" lon="1.16042">
        <ele>810.4</ele>
        <time>2022-05-21T08:41:04.000Z</time>
      </trkpt>
      <trkpt lat="42.88615" lon="1.16053">
        <ele>810.5</ele>
        <time>2022-05-21T08:41:07.000Z</time>
      </trkpt>
      <trkpt lat="42.88624" lon="1.16063">
        <ele>810.7</ele>
        <time>2022-05-21T08:41:10.000Z</time>
      </trkpt>
      <trkpt lat="42.88632" lon="1.16071">
        <ele>811.3</ele>
        <time>2022-05-21T08:41:13.000Z</time>
      </trkpt>
      <trkpt lat="42.8864" lon="1.16081">
        <ele>811.1</ele>
        <time>2022-05-21T08:41:16.000Z</time>
      </trkpt>
      <trkpt lat="42.88647" lon="1.1609">
        <ele>812.1</ele>
        <time>2022-05-21T08:41:19.000Z</time>
      </trkpt>
      <trkpt lat="42.88654" lon="1.16099">
        <ele>812.5</ele>
        <time>2022-05-21T08:41:22.000Z</time>
      </trkpt>
      <trkpt lat="42.88662" lon="1.16109">
        <ele>813</ele>
        <time>2022-05-21T08:41:26.000Z</time>
      </trkpt>
      <trkpt lat="42.88673" lon="1.16115">
        <ele>813.4</ele>
        <time>2022-05-21T08:41:30.000Z</time>
      </trkpt>
      <trkpt lat="42.88683" lon="1.16112">
        <ele>813.7</ele>
        <time>2022-05-21T08:41:34.000Z</time>
      </trkpt>
      <trkpt lat="42.88693" lon="1.16103">
        <ele>813.9</ele>
        <time>2022-05-21T08:41:38.000Z</time>
      </trkpt>
      <trkpt lat="42.88702" lon="1.16093">
        <ele>813.6</ele>
        <time>2022-05-21T08:41:42.000Z</time>
      </trkpt>
      <trkpt lat="42.88709" lon="1.16084">
        <ele>812.9</ele>
        <time>2022-05-21T08:41:45.000Z</time>
      </trkpt>
      <trkpt lat="42.88718" lon="1.16074">
        <ele>812.7</ele>
        <time>2022-05-21T08:41:49.000Z</time>
      </trkpt>
      <trkpt lat="42.88726" lon="1.16064">
        <ele>812.8</ele>
        <time>2022-05-21T08:41:52.000Z</time>
      </trkpt>
      <trkpt lat="42.88737" lon="1.16055">
        <ele>812.5</ele>
        <time>2022-05-21T08:41:55.000Z</time>
      </trkpt>
      <trkpt lat="42.88749" lon="1.1605">
        <ele>812.1</ele>
        <time>2022-05-21T08:41:58.000Z</time>
      </trkpt>
      <trkpt lat="42.88758" lon="1.16049">
        <ele>812.1</ele>
        <time>2022-05-21T08:42:00.000Z</time>
      </trkpt>
      <trkpt lat="42.88768" lon="1.1605">
        <ele>812.2</ele>
        <time>2022-05-21T08:42:02.000Z</time>
      </trkpt>
      <trkpt lat="42.88777" lon="1.16053">
        <ele>811.9</ele>
        <time>2022-05-21T08:42:04.000Z</time>
      </trkpt>
      <trkpt lat="42.88788" lon="1.16056">
        <ele>812.1</ele>
        <time>2022-05-21T08:42:07.000Z</time>
      </trkpt>
      <trkpt lat="42.88798" lon="1.16058">
        <ele>812.9</ele>
        <time>2022-05-21T08:42:10.000Z</time>
      </trkpt>
      <trkpt lat="42.88808" lon="1.16058">
        <ele>813.1</ele>
        <time>2022-05-21T08:42:13.000Z</time>
      </trkpt>
      <trkpt lat="42.88819" lon="1.16056">
        <ele>813.5</ele>
        <time>2022-05-21T08:42:16.000Z</time>
      </trkpt>
      <trkpt lat="42.8883" lon="1.16053">
        <ele>813.6</ele>
        <time>2022-05-21T08:42:19.000Z</time>
      </trkpt>
      <trkpt lat="42.88841" lon="1.16052">
        <ele>813.4</ele>
        <time>2022-05-21T08:42:22.000Z</time>
      </trkpt>
      <trkpt lat="42.88852" lon="1.16052">
        <ele>813.9</ele>
        <time>2022-05-21T08:42:25.000Z</time>
      </trkpt>
      <trkpt lat="42.88861" lon="1.16052">
        <ele>813.9</ele>
        <time>2022-05-21T08:42:28.000Z</time>
      </trkpt>
      <trkpt lat="42.8887" lon="1.16053">
        <ele>814.1</ele>
        <time>2022-05-21T08:42:31.000Z</time>
      </trkpt>
      <trkpt lat="42.8888" lon="1.16053">
        <ele>814.6</ele>
        <time>2022-05-21T08:42:34.000Z</time>
      </trkpt>
      <trkpt lat="42.88891" lon="1.16055">
        <ele>814.1</ele>
        <time>2022-05-21T08:42:37.000Z</time>
      </trkpt>
      <trkpt lat="42.88901" lon="1.16056">
        <ele>814.4</ele>
        <time>2022-05-21T08:42:40.000Z</time>
      </trkpt>
      <trkpt lat="42.88911" lon="1.16058">
        <ele>814.4</ele>
        <time>2022-05-21T08:42:43.000Z</time>
      </trkpt>
      <trkpt lat="42.8892" lon="1.1606">
        <ele>814.5</ele>
        <time>2022-05-21T08:42:46.000Z</time>
      </trkpt>
      <trkpt lat="42.8893" lon="1.16067">
        <ele>814.9</ele>
        <time>2022-05-21T08:42:50.000Z</time>
      </trkpt>
      <trkpt lat="42.88935" lon="1.16077">
        <ele>815.6</ele>
        <time>2022-05-21T08:42:53.000Z</time>
      </trkpt>
      <trkpt lat="42.88939" lon="1.16089">
        <ele>815.5</ele>
        <time>2022-05-21T08:42:56.000Z</time>
      </trkpt>
      <trkpt lat="42.88944" lon="1.161">
        <ele>816</ele>
        <time>2022-05-21T08:42:59.000Z</time>
      </trkpt>
      <trkpt lat="42.88951" lon="1.16112">
        <ele>816.9</ele>
        <time>2022-05-21T08:43:03.000Z</time>
      </trkpt>
      <trkpt lat="42.88958" lon="1.16124">
        <ele>817.5</ele>
        <time>2022-05-21T08:43:07.000Z</time>
      </trkpt>
      <trkpt lat="42.88962" lon="1.16137">
        <ele>817.8</ele>
        <time>2022-05-21T08:43:11.000Z</time>
      </trkpt>
      <trkpt lat="42.88958" lon="1.1615">
        <ele>818.9</ele>
        <time>2022-05-21T08:43:15.000Z</time>
      </trkpt>
      <trkpt lat="42.88953" lon="1.16163">
        <ele>819.6</ele>
        <time>2022-05-21T08:43:19.000Z</time>
      </trkpt>
      <trkpt lat="42.88949" lon="1.16175">
        <ele>820.4</ele>
        <time>2022-05-21T08:43:22.000Z</time>
      </trkpt>
      <trkpt lat="42.88945" lon="1.16187">
        <ele>821.2</ele>
        <time>2022-05-21T08:43:25.000Z</time>
      </trkpt>
      <trkpt lat="42.88941" lon="1.162">
        <ele>821.9</ele>
        <time>2022-05-21T08:43:28.000Z</time>
      </trkpt>
      <trkpt lat="42.88938" lon="1.16214">
        <ele>822.4</ele>
        <time>2022-05-21T08:43:32.000Z</time>
      </trkpt>
      <trkpt lat="42.88935" lon="1.16226">
        <ele>822.5</ele>
        <time>2022-05-21T08:43:35.000Z</time>
      </trkpt>
      <trkpt lat="42.88928" lon="1.16239">
        <ele>823</ele>
        <time>2022-05-21T08:43:38.000Z</time>
      </trkpt>
      <trkpt lat="42.8892" lon="1.16248">
        <ele>823.3</ele>
        <time>2022-05-21T08:43:41.000Z</time>
      </trkpt>
      <trkpt lat="42.88912" lon="1.16257">
        <ele>823.5</ele>
        <time>2022-05-21T08:43:44.000Z</time>
      </trkpt>
      <trkpt lat="42.88905" lon="1.16265">
        <ele>823.8</ele>
        <time>2022-05-21T08:43:47.000Z</time>
      </trkpt>
      <trkpt lat="42.88899" lon="1.16275">
        <ele>824.3</ele>
        <time>2022-05-21T08:43:50.000Z</time>
      </trkpt>
      <trkpt lat="42.88893" lon="1.16284">
        <ele>824.3</ele>
        <time>2022-05-21T08:43:53.000Z</time>
      </trkpt>
      <trkpt lat="42.88887" lon="1.16294">
        <ele>824.6</ele>
        <time>2022-05-21T08:43:56.000Z</time>
      </trkpt>
      <trkpt lat="42.8888" lon="1.16307">
        <ele>825.6</ele>
        <time>2022-05-21T08:44:00.000Z</time>
      </trkpt>
      <trkpt lat="42.88874" lon="1.16322">
        <ele>826</ele>
        <time>2022-05-21T08:44:04.000Z</time>
      </trkpt>
      <trkpt lat="42.8887" lon="1.16333">
        <ele>826.4</ele>
        <time>2022-05-21T08:44:07.000Z</time>
      </trkpt>
      <trkpt lat="42.88866" lon="1.16344">
        <ele>826.8</ele>
        <time>2022-05-21T08:44:10.000Z</time>
      </trkpt>
      <trkpt lat="42.88863" lon="1.16356">
        <ele>827.5</ele>
        <time>2022-05-21T08:44:13.000Z</time>
      </trkpt>
      <trkpt lat="42.8886" lon="1.16372">
        <ele>828.7</ele>
        <time>2022-05-21T08:44:17.000Z</time>
      </trkpt>
      <trkpt lat="42.88857" lon="1.16387">
        <ele>829.4</ele>
        <time>2022-05-21T08:44:21.000Z</time>
      </trkpt>
      <trkpt lat="42.88854" lon="1.16403">
        <ele>830.4</ele>
        <time>2022-05-21T08:44:25.000Z</time>
      </trkpt>
      <trkpt lat="42.88851" lon="1.16418">
        <ele>831.6</ele>
        <time>2022-05-21T08:44:29.000Z</time>
      </trkpt>
      <trkpt lat="42.88848" lon="1.16434">
        <ele>832.3</ele>
        <time>2022-05-21T08:44:33.000Z</time>
      </trkpt>
      <trkpt lat="42.88846" lon="1.16449">
        <ele>833.6</ele>
        <time>2022-05-21T08:44:37.000Z</time>
      </trkpt>
      <trkpt lat="42.88841" lon="1.16462">
        <ele>834.6</ele>
        <time>2022-05-21T08:44:41.000Z</time>
      </trkpt>
      <trkpt lat="42.88835" lon="1.16476">
        <ele>835.8</ele>
        <time>2022-05-21T08:44:45.000Z</time>
      </trkpt>
      <trkpt lat="42.8883" lon="1.16489">
        <ele>836.9</ele>
        <time>2022-05-21T08:44:49.000Z</time>
      </trkpt>
      <trkpt lat="42.88826" lon="1.165">
        <ele>837.6</ele>
        <time>2022-05-21T08:44:52.000Z</time>
      </trkpt>
      <trkpt lat="42.88822" lon="1.16511">
        <ele>838.1</ele>
        <time>2022-05-21T08:44:55.000Z</time>
      </trkpt>
      <trkpt lat="42.88818" lon="1.16522">
        <ele>839.2</ele>
        <time>2022-05-21T08:44:58.000Z</time>
      </trkpt>
      <trkpt lat="42.88814" lon="1.16533">
        <ele>839.1</ele>
        <time>2022-05-21T08:45:01.000Z</time>
      </trkpt>
      <trkpt lat="42.8881" lon="1.16545">
        <ele>839.9</ele>
        <time>2022-05-21T08:45:04.000Z</time>
      </trkpt>
      <trkpt lat="42.88807" lon="1.16557">
        <ele>840.4</ele>
        <time>2022-05-21T08:45:07.000Z</time>
      </trkpt>
      <trkpt lat="42.88804" lon="1.16569">
        <ele>840.9</ele>
        <time>2022-05-21T08:45:10.000Z</time>
      </trkpt>
      <trkpt lat="42.88801" lon="1.16581">
        <ele>841.7</ele>
        <time>2022-05-21T08:45:13.000Z</time>
      </trkpt>
      <trkpt lat="42.88798" lon="1.16593">
        <ele>842</ele>
        <time>2022-05-21T08:45:16.000Z</time>
      </trkpt>
      <trkpt lat="42.88796" lon="1.16605">
        <ele>842.7</ele>
        <time>2022-05-21T08:45:19.000Z</time>
      </trkpt>
      <trkpt lat="42.88794" lon="1.16617">
        <ele>843.2</ele>
        <time>2022-05-21T08:45:22.000Z</time>
      </trkpt>
      <trkpt lat="42.88792" lon="1.16629">
        <ele>843.3</ele>
        <time>2022-05-21T08:45:25.000Z</time>
      </trkpt>
      <trkpt lat="42.88789" lon="1.16641">
        <ele>843.7</ele>
        <time>2022-05-21T08:45:28.000Z</time>
      </trkpt>
      <trkpt lat="42.88786" lon="1.16657">
        <ele>844.2</ele>
        <time>2022-05-21T08:45:32.000Z</time>
      </trkpt>
      <trkpt lat="42.88784" lon="1.16668">
        <ele>844.5</ele>
        <time>2022-05-21T08:45:35.000Z</time>
      </trkpt>
      <trkpt lat="42.88782" lon="1.16681">
        <ele>844.6</ele>
        <time>2022-05-21T08:45:38.000Z</time>
      </trkpt>
      <trkpt lat="42.8878" lon="1.16693">
        <ele>845.1</ele>
        <time>2022-05-21T08:45:41.000Z</time>
      </trkpt>
      <trkpt lat="42.8878" lon="1.16705">
        <ele>845.4</ele>
        <time>2022-05-21T08:45:44.000Z</time>
      </trkpt>
      <trkpt lat="42.8878" lon="1.16718">
        <ele>845.2</ele>
        <time>2022-05-21T08:45:47.000Z</time>
      </trkpt>
      <trkpt lat="42.8878" lon="1.16731">
        <ele>845.7</ele>
        <time>2022-05-21T08:45:50.000Z</time>
      </trkpt>
      <trkpt lat="42.8878" lon="1.16743">
        <ele>845.4</ele>
        <time>2022-05-21T08:45:53.000Z</time>
      </trkpt>
      <trkpt lat="42.8878" lon="1.16756">
        <ele>846.3</ele>
        <time>2022-05-21T08:45:56.000Z</time>
      </trkpt>
      <trkpt lat="42.88786" lon="1.1677">
        <ele>846.2</ele>
        <time>2022-05-21T08:46:00.000Z</time>
      </trkpt>
      <trkpt lat="42.88794" lon="1.16774">
        <ele>846</ele>
        <time>2022-05-21T08:46:03.000Z</time>
      </trkpt>
      <trkpt lat="42.88803" lon="1.16771">
        <ele>845.9</ele>
        <time>2022-05-21T08:46:06.000Z</time>
      </trkpt>
      <trkpt lat="42.88811" lon="1.16764">
        <ele>845.5</ele>
        <time>2022-05-21T08:46:09.000Z</time>
      </trkpt>
      <trkpt lat="42.88817" lon="1.16755">
        <ele>845.4</ele>
        <time>2022-05-21T08:46:12.000Z</time>
      </trkpt>
      <trkpt lat="42.88824" lon="1.16745">
        <ele>845.5</ele>
        <time>2022-05-21T08:46:15.000Z</time>
      </trkpt>
      <trkpt lat="42.88832" lon="1.16734">
        <ele>845.2</ele>
        <time>2022-05-21T08:46:19.000Z</time>
      </trkpt>
      <trkpt lat="42.8884" lon="1.16723">
        <ele>845.8</ele>
        <time>2022-05-21T08:46:23.000Z</time>
      </trkpt>
      <trkpt lat="42.88849" lon="1.16713">
        <ele>846.2</ele>
        <time>2022-05-21T08:46:27.000Z</time>
      </trkpt>
      <trkpt lat="42.88859" lon="1.16706">
        <ele>847.2</ele>
        <time>2022-05-21T08:46:31.000Z</time>
      </trkpt>
      <trkpt lat="42.8887" lon="1.16705">
        <ele>847.8</ele>
        <time>2022-05-21T08:46:35.000Z</time>
      </trkpt>
      <trkpt lat="42.88881" lon="1.16708">
        <ele>849.2</ele>
        <time>2022-05-21T08:46:39.000Z</time>
      </trkpt>
      <trkpt lat="42.88892" lon="1.16715">
        <ele>850.2</ele>
        <time>2022-05-21T08:46:43.000Z</time>
      </trkpt>
      <trkpt lat="42.88902" lon="1.16721">
        <ele>851</ele>
        <time>2022-05-21T08:46:47.000Z</time>
      </trkpt>
      <trkpt lat="42.88911" lon="1.16725">
        <ele>851.9</ele>
        <time>2022-05-21T08:46:50.000Z</time>
      </trkpt>
      <trkpt lat="42.8892" lon="1.16725">
        <ele>852.1</ele>
        <time>2022-05-21T08:46:53.000Z</time>
      </trkpt>
      <trkpt lat="42.88931" lon="1.16723">
        <ele>852.8</ele>
        <time>2022-05-21T08:46:57.000Z</time>
      </trkpt>
      <trkpt lat="42.88942" lon="1.16719">
        <ele>853.8</ele>
        <time>2022-05-21T08:47:01.000Z</time>
      </trkpt>
      <trkpt lat="42.88953" lon="1.16716">
        <ele>854.7</ele>
        <time>2022-05-21T08:47:05.000Z</time>
      </trkpt>
      <trkpt lat="42.88962" lon="1.16713">
        <ele>855.9</ele>
        <time>2022-05-21T08:47:09.000Z</time>
      </trkpt>
      <trkpt lat="42.88972" lon="1.16712">
        <ele>857.3</ele>
        <time>2022-05-21T08:47:14.000Z</time>
      </trkpt>
      <trkpt lat="42.88977" lon="1.16707">
        <ele>859.8</ele>
        <time>2022-05-21T08:47:23.000Z</time>
      </trkpt>
      <trkpt lat="42.88977" lon="1.16706">
        <ele>863.2</ele>
        <time>2022-05-21T08:48:19.000Z</time>
      </trkpt>
      <trkpt lat="42.88976" lon="1.16706">
        <ele>861.9</ele>
        <time>2022-05-21T08:48:50.000Z</time>
      </trkpt>
      <trkpt lat="42.88976" lon="1.16705">
        <ele>859.8</ele>
        <time>2022-05-21T08:50:44.000Z</time>
      </trkpt>
      <trkpt lat="42.88976" lon="1.16704">
        <ele>859.5</ele>
        <time>2022-05-21T08:50:50.000Z</time>
      </trkpt>
      <trkpt lat="42.88977" lon="1.16704">
        <ele>858.2</ele>
        <time>2022-05-21T08:51:34.000Z</time>
      </trkpt>
      <trkpt lat="42.88985" lon="1.16697">
        <ele>858.5</ele>
        <time>2022-05-21T08:51:41.000Z</time>
      </trkpt>
      <trkpt lat="42.88996" lon="1.16693">
        <ele>858.3</ele>
        <time>2022-05-21T08:51:46.000Z</time>
      </trkpt>
      <trkpt lat="42.89007" lon="1.16689">
        <ele>858.1</ele>
        <time>2022-05-21T08:51:50.000Z</time>
      </trkpt>
      <trkpt lat="42.89017" lon="1.16683">
        <ele>857.8</ele>
        <time>2022-05-21T08:51:54.000Z</time>
      </trkpt>
      <trkpt lat="42.89025" lon="1.16676">
        <ele>857.9</ele>
        <time>2022-05-21T08:51:58.000Z</time>
      </trkpt>
      <trkpt lat="42.89034" lon="1.16671">
        <ele>857.8</ele>
        <time>2022-05-21T08:52:02.000Z</time>
      </trkpt>
      <trkpt lat="42.89042" lon="1.16665">
        <ele>857.7</ele>
        <time>2022-05-21T08:52:06.000Z</time>
      </trkpt>
      <trkpt lat="42.8905" lon="1.16658">
        <ele>858.1</ele>
        <time>2022-05-21T08:52:10.000Z</time>
      </trkpt>
      <trkpt lat="42.8906" lon="1.1665">
        <ele>858.7</ele>
        <time>2022-05-21T08:52:14.000Z</time>
      </trkpt>
      <trkpt lat="42.89068" lon="1.16641">
        <ele>859.6</ele>
        <time>2022-05-21T08:52:18.000Z</time>
      </trkpt>
      <trkpt lat="42.89077" lon="1.16633">
        <ele>859.5</ele>
        <time>2022-05-21T08:52:22.000Z</time>
      </trkpt>
      <trkpt lat="42.89087" lon="1.16627">
        <ele>860</ele>
        <time>2022-05-21T08:52:26.000Z</time>
      </trkpt>
      <trkpt lat="42.89098" lon="1.16624">
        <ele>860.2</ele>
        <time>2022-05-21T08:52:30.000Z</time>
      </trkpt>
      <trkpt lat="42.89108" lon="1.1662">
        <ele>860.7</ele>
        <time>2022-05-21T08:52:35.000Z</time>
      </trkpt>
      <trkpt lat="42.89117" lon="1.16618">
        <ele>860.9</ele>
        <time>2022-05-21T08:52:39.000Z</time>
      </trkpt>
      <trkpt lat="42.89127" lon="1.16619">
        <ele>862.1</ele>
        <time>2022-05-21T08:52:43.000Z</time>
      </trkpt>
      <trkpt lat="42.89137" lon="1.16624">
        <ele>863.2</ele>
        <time>2022-05-21T08:52:47.000Z</time>
      </trkpt>
      <trkpt lat="42.89146" lon="1.1663">
        <ele>863.9</ele>
        <time>2022-05-21T08:52:51.000Z</time>
      </trkpt>
      <trkpt lat="42.89157" lon="1.16633">
        <ele>864.9</ele>
        <time>2022-05-21T08:52:55.000Z</time>
      </trkpt>
      <trkpt lat="42.89166" lon="1.16632">
        <ele>866.7</ele>
        <time>2022-05-21T08:53:01.000Z</time>
      </trkpt>
      <trkpt lat="42.89175" lon="1.16631">
        <ele>867.2</ele>
        <time>2022-05-21T08:53:04.000Z</time>
      </trkpt>
      <trkpt lat="42.89184" lon="1.1663">
        <ele>868</ele>
        <time>2022-05-21T08:53:07.000Z</time>
      </trkpt>
      <trkpt lat="42.89196" lon="1.16629">
        <ele>869</ele>
        <time>2022-05-21T08:53:11.000Z</time>
      </trkpt>
      <trkpt lat="42.89207" lon="1.16627">
        <ele>870.1</ele>
        <time>2022-05-21T08:53:15.000Z</time>
      </trkpt>
      <trkpt lat="42.89217" lon="1.16623">
        <ele>871.7</ele>
        <time>2022-05-21T08:53:19.000Z</time>
      </trkpt>
      <trkpt lat="42.89227" lon="1.16619">
        <ele>872.4</ele>
        <time>2022-05-21T08:53:23.000Z</time>
      </trkpt>
      <trkpt lat="42.89237" lon="1.16612">
        <ele>873.2</ele>
        <time>2022-05-21T08:53:27.000Z</time>
      </trkpt>
      <trkpt lat="42.89247" lon="1.16607">
        <ele>874.3</ele>
        <time>2022-05-21T08:53:31.000Z</time>
      </trkpt>
      <trkpt lat="42.89257" lon="1.16604">
        <ele>874.4</ele>
        <time>2022-05-21T08:53:35.000Z</time>
      </trkpt>
      <trkpt lat="42.89267" lon="1.16604">
        <ele>875.2</ele>
        <time>2022-05-21T08:53:39.000Z</time>
      </trkpt>
      <trkpt lat="42.89277" lon="1.16605">
        <ele>875.8</ele>
        <time>2022-05-21T08:53:43.000Z</time>
      </trkpt>
      <trkpt lat="42.89287" lon="1.16609">
        <ele>876.5</ele>
        <time>2022-05-21T08:53:47.000Z</time>
      </trkpt>
      <trkpt lat="42.89295" lon="1.16618">
        <ele>876.9</ele>
        <time>2022-05-21T08:53:51.000Z</time>
      </trkpt>
      <trkpt lat="42.893" lon="1.16629">
        <ele>877.9</ele>
        <time>2022-05-21T08:53:55.000Z</time>
      </trkpt>
      <trkpt lat="42.89307" lon="1.16639">
        <ele>878.5</ele>
        <time>2022-05-21T08:53:59.000Z</time>
      </trkpt>
      <trkpt lat="42.89315" lon="1.16646">
        <ele>878.7</ele>
        <time>2022-05-21T08:54:03.000Z</time>
      </trkpt>
      <trkpt lat="42.89323" lon="1.16655">
        <ele>879.2</ele>
        <time>2022-05-21T08:54:07.000Z</time>
      </trkpt>
      <trkpt lat="42.89327" lon="1.16666">
        <ele>879.5</ele>
        <time>2022-05-21T08:54:11.000Z</time>
      </trkpt>
      <trkpt lat="42.8933" lon="1.1668">
        <ele>879.1</ele>
        <time>2022-05-21T08:54:15.000Z</time>
      </trkpt>
      <trkpt lat="42.89332" lon="1.16695">
        <ele>879.7</ele>
        <time>2022-05-21T08:54:19.000Z</time>
      </trkpt>
      <trkpt lat="42.89334" lon="1.16711">
        <ele>880</ele>
        <time>2022-05-21T08:54:23.000Z</time>
      </trkpt>
      <trkpt lat="42.89337" lon="1.16722">
        <ele>880.3</ele>
        <time>2022-05-21T08:54:26.000Z</time>
      </trkpt>
      <trkpt lat="42.89341" lon="1.16737">
        <ele>880.8</ele>
        <time>2022-05-21T08:54:30.000Z</time>
      </trkpt>
      <trkpt lat="42.89345" lon="1.16752">
        <ele>880.6</ele>
        <time>2022-05-21T08:54:34.000Z</time>
      </trkpt>
      <trkpt lat="42.8935" lon="1.16764">
        <ele>880.5</ele>
        <time>2022-05-21T08:54:38.000Z</time>
      </trkpt>
      <trkpt lat="42.89355" lon="1.16775">
        <ele>881</ele>
        <time>2022-05-21T08:54:42.000Z</time>
      </trkpt>
      <trkpt lat="42.89363" lon="1.16782">
        <ele>880.8</ele>
        <time>2022-05-21T08:54:46.000Z</time>
      </trkpt>
      <trkpt lat="42.89371" lon="1.16788">
        <ele>881.1</ele>
        <time>2022-05-21T08:54:50.000Z</time>
      </trkpt>
      <trkpt lat="42.89381" lon="1.16793">
        <ele>880.8</ele>
        <time>2022-05-21T08:54:56.000Z</time>
      </trkpt>
      <trkpt lat="42.89391" lon="1.16799">
        <ele>880.1</ele>
        <time>2022-05-21T08:55:02.000Z</time>
      </trkpt>
      <trkpt lat="42.89401" lon="1.16806">
        <ele>879.2</ele>
        <time>2022-05-21T08:55:07.000Z</time>
      </trkpt>
      <trkpt lat="42.89409" lon="1.16812">
        <ele>878.4</ele>
        <time>2022-05-21T08:55:12.000Z</time>
      </trkpt>
      <trkpt lat="42.89411" lon="1.16813">
        <ele>878.7</ele>
        <time>2022-05-21T08:55:15.000Z</time>
      </trkpt>
      <trkpt lat="42.8941" lon="1.16813">
        <ele>879</ele>
        <time>2022-05-21T08:55:19.000Z</time>
      </trkpt>
      <trkpt lat="42.89411" lon="1.16813">
        <ele>880.9</ele>
        <time>2022-05-21T08:55:35.000Z</time>
      </trkpt>
      <trkpt lat="42.89414" lon="1.16825">
        <ele>884.2</ele>
        <time>2022-05-21T08:56:24.000Z</time>
      </trkpt>
      <trkpt lat="42.89415" lon="1.16841">
        <ele>884.5</ele>
        <time>2022-05-21T08:56:28.000Z</time>
      </trkpt>
      <trkpt lat="42.89415" lon="1.16856">
        <ele>884.6</ele>
        <time>2022-05-21T08:56:31.000Z</time>
      </trkpt>
      <trkpt lat="42.89417" lon="1.16871">
        <ele>885.3</ele>
        <time>2022-05-21T08:56:34.000Z</time>
      </trkpt>
      <trkpt lat="42.8942" lon="1.16884">
        <ele>885.5</ele>
        <time>2022-05-21T08:56:36.000Z</time>
      </trkpt>
      <trkpt lat="42.89424" lon="1.16899">
        <ele>886.1</ele>
        <time>2022-05-21T08:56:38.000Z</time>
      </trkpt>
      <trkpt lat="42.89428" lon="1.16914">
        <ele>885.9</ele>
        <time>2022-05-21T08:56:40.000Z</time>
      </trkpt>
      <trkpt lat="42.89431" lon="1.16927">
        <ele>886.2</ele>
        <time>2022-05-21T08:56:42.000Z</time>
      </trkpt>
      <trkpt lat="42.89435" lon="1.16939">
        <ele>886.6</ele>
        <time>2022-05-21T08:56:44.000Z</time>
      </trkpt>
      <trkpt lat="42.89438" lon="1.16951">
        <ele>886.9</ele>
        <time>2022-05-21T08:56:46.000Z</time>
      </trkpt>
      <trkpt lat="42.89442" lon="1.16964">
        <ele>886.6</ele>
        <time>2022-05-21T08:56:48.000Z</time>
      </trkpt>
      <trkpt lat="42.89447" lon="1.16976">
        <ele>887.1</ele>
        <time>2022-05-21T08:56:50.000Z</time>
      </trkpt>
      <trkpt lat="42.89451" lon="1.16989">
        <ele>886.8</ele>
        <time>2022-05-21T08:56:52.000Z</time>
      </trkpt>
      <trkpt lat="42.89456" lon="1.17002">
        <ele>886.7</ele>
        <time>2022-05-21T08:56:54.000Z</time>
      </trkpt>
      <trkpt lat="42.89461" lon="1.17016">
        <ele>886.8</ele>
        <time>2022-05-21T08:56:56.000Z</time>
      </trkpt>
      <trkpt lat="42.89467" lon="1.17029">
        <ele>887.1</ele>
        <time>2022-05-21T08:56:58.000Z</time>
      </trkpt>
      <trkpt lat="42.89472" lon="1.17042">
        <ele>887.1</ele>
        <time>2022-05-21T08:57:00.000Z</time>
      </trkpt>
      <trkpt lat="42.89478" lon="1.17055">
        <ele>887.2</ele>
        <time>2022-05-21T08:57:02.000Z</time>
      </trkpt>
      <trkpt lat="42.89485" lon="1.17068">
        <ele>887</ele>
        <time>2022-05-21T08:57:04.000Z</time>
      </trkpt>
      <trkpt lat="42.89492" lon="1.17081">
        <ele>886.6</ele>
        <time>2022-05-21T08:57:06.000Z</time>
      </trkpt>
      <trkpt lat="42.89499" lon="1.17093">
        <ele>886.6</ele>
        <time>2022-05-21T08:57:08.000Z</time>
      </trkpt>
      <trkpt lat="42.89506" lon="1.17106">
        <ele>886.4</ele>
        <time>2022-05-21T08:57:10.000Z</time>
      </trkpt>
      <trkpt lat="42.89513" lon="1.17117">
        <ele>886.4</ele>
        <time>2022-05-21T08:57:12.000Z</time>
      </trkpt>
      <trkpt lat="42.89521" lon="1.17129">
        <ele>886.3</ele>
        <time>2022-05-21T08:57:14.000Z</time>
      </trkpt>
      <trkpt lat="42.89528" lon="1.17142">
        <ele>886.1</ele>
        <time>2022-05-21T08:57:16.000Z</time>
      </trkpt>
      <trkpt lat="42.89534" lon="1.17154">
        <ele>886.1</ele>
        <time>2022-05-21T08:57:18.000Z</time>
      </trkpt>
      <trkpt lat="42.89541" lon="1.17165">
        <ele>886</ele>
        <time>2022-05-21T08:57:20.000Z</time>
      </trkpt>
      <trkpt lat="42.89548" lon="1.17177">
        <ele>885.7</ele>
        <time>2022-05-21T08:57:22.000Z</time>
      </trkpt>
      <trkpt lat="42.89555" lon="1.17192">
        <ele>886.1</ele>
        <time>2022-05-21T08:57:24.000Z</time>
      </trkpt>
      <trkpt lat="42.89562" lon="1.17209">
        <ele>886.5</ele>
        <time>2022-05-21T08:57:26.000Z</time>
      </trkpt>
      <trkpt lat="42.89569" lon="1.17228">
        <ele>885.4</ele>
        <time>2022-05-21T08:57:28.000Z</time>
      </trkpt>
      <trkpt lat="42.89575" lon="1.17249">
        <ele>885.7</ele>
        <time>2022-05-21T08:57:30.000Z</time>
      </trkpt>
      <trkpt lat="42.89578" lon="1.17272">
        <ele>885.4</ele>
        <time>2022-05-21T08:57:32.000Z</time>
      </trkpt>
      <trkpt lat="42.8958" lon="1.17296">
        <ele>884.9</ele>
        <time>2022-05-21T08:57:34.000Z</time>
      </trkpt>
      <trkpt lat="42.8958" lon="1.17308">
        <ele>884.8</ele>
        <time>2022-05-21T08:57:35.000Z</time>
      </trkpt>
      <trkpt lat="42.8958" lon="1.17321">
        <ele>884.6</ele>
        <time>2022-05-21T08:57:36.000Z</time>
      </trkpt>
      <trkpt lat="42.8958" lon="1.17333">
        <ele>884.4</ele>
        <time>2022-05-21T08:57:37.000Z</time>
      </trkpt>
      <trkpt lat="42.89579" lon="1.17346">
        <ele>884.2</ele>
        <time>2022-05-21T08:57:38.000Z</time>
      </trkpt>
      <trkpt lat="42.89577" lon="1.17359">
        <ele>883.9</ele>
        <time>2022-05-21T08:57:39.000Z</time>
      </trkpt>
      <trkpt lat="42.89575" lon="1.17372">
        <ele>883.7</ele>
        <time>2022-05-21T08:57:40.000Z</time>
      </trkpt>
      <trkpt lat="42.89573" lon="1.17384">
        <ele>883.9</ele>
        <time>2022-05-21T08:57:41.000Z</time>
      </trkpt>
      <trkpt lat="42.89571" lon="1.17397">
        <ele>883.6</ele>
        <time>2022-05-21T08:57:42.000Z</time>
      </trkpt>
      <trkpt lat="42.89568" lon="1.17411">
        <ele>883.3</ele>
        <time>2022-05-21T08:57:43.000Z</time>
      </trkpt>
      <trkpt lat="42.89566" lon="1.17424">
        <ele>882.8</ele>
        <time>2022-05-21T08:57:44.000Z</time>
      </trkpt>
      <trkpt lat="42.89563" lon="1.17438">
        <ele>882.5</ele>
        <time>2022-05-21T08:57:45.000Z</time>
      </trkpt>
      <trkpt lat="42.8956" lon="1.17451">
        <ele>881.8</ele>
        <time>2022-05-21T08:57:46.000Z</time>
      </trkpt>
      <trkpt lat="42.89556" lon="1.17465">
        <ele>881.3</ele>
        <time>2022-05-21T08:57:47.000Z</time>
      </trkpt>
      <trkpt lat="42.89553" lon="1.17478">
        <ele>881.1</ele>
        <time>2022-05-21T08:57:48.000Z</time>
      </trkpt>
      <trkpt lat="42.8955" lon="1.17491">
        <ele>880.8</ele>
        <time>2022-05-21T08:57:49.000Z</time>
      </trkpt>
      <trkpt lat="42.89549" lon="1.17504">
        <ele>880.7</ele>
        <time>2022-05-21T08:57:50.000Z</time>
      </trkpt>
      <trkpt lat="42.89548" lon="1.17517">
        <ele>880.3</ele>
        <time>2022-05-21T08:57:51.000Z</time>
      </trkpt>
      <trkpt lat="42.89549" lon="1.17531">
        <ele>879.8</ele>
        <time>2022-05-21T08:57:52.000Z</time>
      </trkpt>
      <trkpt lat="42.89549" lon="1.17544">
        <ele>879.4</ele>
        <time>2022-05-21T08:57:53.000Z</time>
      </trkpt>
      <trkpt lat="42.8955" lon="1.17557">
        <ele>879.1</ele>
        <time>2022-05-21T08:57:54.000Z</time>
      </trkpt>
      <trkpt lat="42.89551" lon="1.17571">
        <ele>878.8</ele>
        <time>2022-05-21T08:57:55.000Z</time>
      </trkpt>
      <trkpt lat="42.89552" lon="1.17585">
        <ele>878.1</ele>
        <time>2022-05-21T08:57:56.000Z</time>
      </trkpt>
      <trkpt lat="42.89553" lon="1.17598">
        <ele>877.6</ele>
        <time>2022-05-21T08:57:57.000Z</time>
      </trkpt>
      <trkpt lat="42.89555" lon="1.17612">
        <ele>877.1</ele>
        <time>2022-05-21T08:57:58.000Z</time>
      </trkpt>
      <trkpt lat="42.89555" lon="1.17624">
        <ele>876.9</ele>
        <time>2022-05-21T08:57:59.000Z</time>
      </trkpt>
      <trkpt lat="42.89559" lon="1.17648">
        <ele>876.9</ele>
        <time>2022-05-21T08:58:01.000Z</time>
      </trkpt>
      <trkpt lat="42.89562" lon="1.17671">
        <ele>875.8</ele>
        <time>2022-05-21T08:58:03.000Z</time>
      </trkpt>
      <trkpt lat="42.89564" lon="1.17695">
        <ele>875.5</ele>
        <time>2022-05-21T08:58:05.000Z</time>
      </trkpt>
      <trkpt lat="42.89566" lon="1.17717">
        <ele>875.2</ele>
        <time>2022-05-21T08:58:07.000Z</time>
      </trkpt>
      <trkpt lat="42.89568" lon="1.17738">
        <ele>874.7</ele>
        <time>2022-05-21T08:58:09.000Z</time>
      </trkpt>
      <trkpt lat="42.89569" lon="1.17757">
        <ele>874.1</ele>
        <time>2022-05-21T08:58:11.000Z</time>
      </trkpt>
      <trkpt lat="42.89569" lon="1.17777">
        <ele>873.7</ele>
        <time>2022-05-21T08:58:13.000Z</time>
      </trkpt>
      <trkpt lat="42.89568" lon="1.17795">
        <ele>873.2</ele>
        <time>2022-05-21T08:58:15.000Z</time>
      </trkpt>
      <trkpt lat="42.89566" lon="1.17813">
        <ele>873</ele>
        <time>2022-05-21T08:58:17.000Z</time>
      </trkpt>
      <trkpt lat="42.89563" lon="1.17826">
        <ele>872.2</ele>
        <time>2022-05-21T08:58:19.000Z</time>
      </trkpt>
      <trkpt lat="42.89558" lon="1.17839">
        <ele>871</ele>
        <time>2022-05-21T08:58:22.000Z</time>
      </trkpt>
      <trkpt lat="42.89551" lon="1.17851">
        <ele>869.9</ele>
        <time>2022-05-21T08:58:25.000Z</time>
      </trkpt>
      <trkpt lat="42.89545" lon="1.17864">
        <ele>868.8</ele>
        <time>2022-05-21T08:58:28.000Z</time>
      </trkpt>
      <trkpt lat="42.89539" lon="1.17875">
        <ele>867.3</ele>
        <time>2022-05-21T08:58:31.000Z</time>
      </trkpt>
      <trkpt lat="42.89532" lon="1.17887">
        <ele>864.8</ele>
        <time>2022-05-21T08:58:34.000Z</time>
      </trkpt>
      <trkpt lat="42.89524" lon="1.17896">
        <ele>861</ele>
        <time>2022-05-21T08:58:39.000Z</time>
      </trkpt>
      <trkpt lat="42.89514" lon="1.1789">
        <ele>856</ele>
        <time>2022-05-21T08:58:46.000Z</time>
      </trkpt>
      <trkpt lat="42.89505" lon="1.17882">
        <ele>852.5</ele>
        <time>2022-05-21T08:58:51.000Z</time>
      </trkpt>
      <trkpt lat="42.89496" lon="1.17874">
        <ele>849.6</ele>
        <time>2022-05-21T08:58:57.000Z</time>
      </trkpt>
      <trkpt lat="42.89487" lon="1.1787">
        <ele>847.8</ele>
        <time>2022-05-21T08:59:01.000Z</time>
      </trkpt>
      <trkpt lat="42.89476" lon="1.17865">
        <ele>845.7</ele>
        <time>2022-05-21T08:59:04.000Z</time>
      </trkpt>
      <trkpt lat="42.89467" lon="1.17862">
        <ele>845</ele>
        <time>2022-05-21T08:59:06.000Z</time>
      </trkpt>
      <trkpt lat="42.89459" lon="1.17858">
        <ele>844.3</ele>
        <time>2022-05-21T08:59:08.000Z</time>
      </trkpt>
      <trkpt lat="42.8945" lon="1.17855">
        <ele>843.4</ele>
        <time>2022-05-21T08:59:10.000Z</time>
      </trkpt>
      <trkpt lat="42.89439" lon="1.17851">
        <ele>841.9</ele>
        <time>2022-05-21T08:59:14.000Z</time>
      </trkpt>
      <trkpt lat="42.89431" lon="1.17844">
        <ele>840.7</ele>
        <time>2022-05-21T08:59:18.000Z</time>
      </trkpt>
      <trkpt lat="42.89421" lon="1.17838">
        <ele>839.2</ele>
        <time>2022-05-21T08:59:22.000Z</time>
      </trkpt>
      <trkpt lat="42.89412" lon="1.17833">
        <ele>837.8</ele>
        <time>2022-05-21T08:59:27.000Z</time>
      </trkpt>
      <trkpt lat="42.89403" lon="1.17822">
        <ele>835.4</ele>
        <time>2022-05-21T08:59:33.000Z</time>
      </trkpt>
      <trkpt lat="42.89392" lon="1.17809">
        <ele>833.5</ele>
        <time>2022-05-21T08:59:36.000Z</time>
      </trkpt>
      <trkpt lat="42.89385" lon="1.17801">
        <ele>833.1</ele>
        <time>2022-05-21T08:59:38.000Z</time>
      </trkpt>
      <trkpt lat="42.89377" lon="1.17794">
        <ele>832.6</ele>
        <time>2022-05-21T08:59:40.000Z</time>
      </trkpt>
      <trkpt lat="42.89367" lon="1.17788">
        <ele>832.2</ele>
        <time>2022-05-21T08:59:42.000Z</time>
      </trkpt>
      <trkpt lat="42.89357" lon="1.17781">
        <ele>831.6</ele>
        <time>2022-05-21T08:59:44.000Z</time>
      </trkpt>
      <trkpt lat="42.89348" lon="1.17777">
        <ele>831.1</ele>
        <time>2022-05-21T08:59:46.000Z</time>
      </trkpt>
      <trkpt lat="42.89335" lon="1.17783">
        <ele>829.5</ele>
        <time>2022-05-21T08:59:49.000Z</time>
      </trkpt>
      <trkpt lat="42.89324" lon="1.17784">
        <ele>829.2</ele>
        <time>2022-05-21T08:59:51.000Z</time>
      </trkpt>
      <trkpt lat="42.89314" lon="1.17776">
        <ele>828.6</ele>
        <time>2022-05-21T08:59:54.000Z</time>
      </trkpt>
      <trkpt lat="42.89303" lon="1.17766">
        <ele>828.2</ele>
        <time>2022-05-21T08:59:57.000Z</time>
      </trkpt>
      <trkpt lat="42.89292" lon="1.17762">
        <ele>827.9</ele>
        <time>2022-05-21T08:59:59.000Z</time>
      </trkpt>
      <trkpt lat="42.89283" lon="1.17763">
        <ele>828.1</ele>
        <time>2022-05-21T09:00:02.000Z</time>
      </trkpt>
      <trkpt lat="42.89273" lon="1.17765">
        <ele>827.7</ele>
        <time>2022-05-21T09:00:06.000Z</time>
      </trkpt>
      <trkpt lat="42.89264" lon="1.17769">
        <ele>828.3</ele>
        <time>2022-05-21T09:00:09.000Z</time>
      </trkpt>
      <trkpt lat="42.89252" lon="1.17772">
        <ele>827.8</ele>
        <time>2022-05-21T09:00:12.000Z</time>
      </trkpt>
      <trkpt lat="42.89243" lon="1.17773">
        <ele>828.6</ele>
        <time>2022-05-21T09:00:15.000Z</time>
      </trkpt>
      <trkpt lat="42.89234" lon="1.17772">
        <ele>828.5</ele>
        <time>2022-05-21T09:00:18.000Z</time>
      </trkpt>
      <trkpt lat="42.89224" lon="1.17769">
        <ele>828.7</ele>
        <time>2022-05-21T09:00:21.000Z</time>
      </trkpt>
      <trkpt lat="42.89214" lon="1.17769">
        <ele>829.4</ele>
        <time>2022-05-21T09:00:25.000Z</time>
      </trkpt>
      <trkpt lat="42.89206" lon="1.17778">
        <ele>830.3</ele>
        <time>2022-05-21T09:00:30.000Z</time>
      </trkpt>
      <trkpt lat="42.89203" lon="1.17782">
        <ele>831.3</ele>
        <time>2022-05-21T09:00:36.000Z</time>
      </trkpt>
      <trkpt lat="42.89203" lon="1.17781">
        <ele>831.5</ele>
        <time>2022-05-21T09:00:37.000Z</time>
      </trkpt>
      <trkpt lat="42.89201" lon="1.17779">
        <ele>831.8</ele>
        <time>2022-05-21T09:00:41.000Z</time>
      </trkpt>
      <trkpt lat="42.89198" lon="1.17783">
        <ele>832.5</ele>
        <time>2022-05-21T09:00:52.000Z</time>
      </trkpt>
      <trkpt lat="42.89198" lon="1.17784">
        <ele>832.6</ele>
        <time>2022-05-21T09:01:00.000Z</time>
      </trkpt>
      <trkpt lat="42.89193" lon="1.17797">
        <ele>832.1</ele>
        <time>2022-05-21T09:01:06.000Z</time>
      </trkpt>
      <trkpt lat="42.89188" lon="1.17811">
        <ele>832.1</ele>
        <time>2022-05-21T09:01:10.000Z</time>
      </trkpt>
      <trkpt lat="42.89184" lon="1.17823">
        <ele>832.2</ele>
        <time>2022-05-21T09:01:13.000Z</time>
      </trkpt>
      <trkpt lat="42.89179" lon="1.17834">
        <ele>832.1</ele>
        <time>2022-05-21T09:01:16.000Z</time>
      </trkpt>
      <trkpt lat="42.89175" lon="1.17846">
        <ele>832.4</ele>
        <time>2022-05-21T09:01:19.000Z</time>
      </trkpt>
      <trkpt lat="42.8917" lon="1.17857">
        <ele>832.8</ele>
        <time>2022-05-21T09:01:22.000Z</time>
      </trkpt>
      <trkpt lat="42.89163" lon="1.17867">
        <ele>833</ele>
        <time>2022-05-21T09:01:25.000Z</time>
      </trkpt>
      <trkpt lat="42.89158" lon="1.17877">
        <ele>833.3</ele>
        <time>2022-05-21T09:01:28.000Z</time>
      </trkpt>
      <trkpt lat="42.89152" lon="1.17888">
        <ele>833.2</ele>
        <time>2022-05-21T09:01:31.000Z</time>
      </trkpt>
      <trkpt lat="42.89144" lon="1.179">
        <ele>833.7</ele>
        <time>2022-05-21T09:01:34.000Z</time>
      </trkpt>
      <trkpt lat="42.89135" lon="1.17912">
        <ele>834.2</ele>
        <time>2022-05-21T09:01:37.000Z</time>
      </trkpt>
      <trkpt lat="42.89128" lon="1.17923">
        <ele>833.8</ele>
        <time>2022-05-21T09:01:39.000Z</time>
      </trkpt>
      <trkpt lat="42.89119" lon="1.1793">
        <ele>833.8</ele>
        <time>2022-05-21T09:01:41.000Z</time>
      </trkpt>
      <trkpt lat="42.89111" lon="1.17939">
        <ele>833.4</ele>
        <time>2022-05-21T09:01:43.000Z</time>
      </trkpt>
      <trkpt lat="42.89105" lon="1.17949">
        <ele>833.6</ele>
        <time>2022-05-21T09:01:45.000Z</time>
      </trkpt>
      <trkpt lat="42.89096" lon="1.17953">
        <ele>833.5</ele>
        <time>2022-05-21T09:01:47.000Z</time>
      </trkpt>
      <trkpt lat="42.89085" lon="1.1795">
        <ele>832.4</ele>
        <time>2022-05-21T09:01:49.000Z</time>
      </trkpt>
      <trkpt lat="42.89072" lon="1.17942">
        <ele>832.2</ele>
        <time>2022-05-21T09:01:51.000Z</time>
      </trkpt>
      <trkpt lat="42.8906" lon="1.17933">
        <ele>831.5</ele>
        <time>2022-05-21T09:01:53.000Z</time>
      </trkpt>
      <trkpt lat="42.89046" lon="1.17929">
        <ele>831.4</ele>
        <time>2022-05-21T09:01:55.000Z</time>
      </trkpt>
      <trkpt lat="42.89033" lon="1.1793">
        <ele>831</ele>
        <time>2022-05-21T09:01:57.000Z</time>
      </trkpt>
      <trkpt lat="42.89019" lon="1.1793">
        <ele>830.2</ele>
        <time>2022-05-21T09:01:59.000Z</time>
      </trkpt>
      <trkpt lat="42.89006" lon="1.17935">
        <ele>830</ele>
        <time>2022-05-21T09:02:01.000Z</time>
      </trkpt>
      <trkpt lat="42.88992" lon="1.17945">
        <ele>829.2</ele>
        <time>2022-05-21T09:02:03.000Z</time>
      </trkpt>
      <trkpt lat="42.88981" lon="1.17956">
        <ele>828.5</ele>
        <time>2022-05-21T09:02:05.000Z</time>
      </trkpt>
      <trkpt lat="42.8897" lon="1.17969">
        <ele>828.2</ele>
        <time>2022-05-21T09:02:07.000Z</time>
      </trkpt>
      <trkpt lat="42.88959" lon="1.17979">
        <ele>827.5</ele>
        <time>2022-05-21T09:02:09.000Z</time>
      </trkpt>
      <trkpt lat="42.88946" lon="1.17989">
        <ele>827.7</ele>
        <time>2022-05-21T09:02:11.000Z</time>
      </trkpt>
      <trkpt lat="42.88934" lon="1.17997">
        <ele>826.7</ele>
        <time>2022-05-21T09:02:13.000Z</time>
      </trkpt>
      <trkpt lat="42.88922" lon="1.18003">
        <ele>826.9</ele>
        <time>2022-05-21T09:02:15.000Z</time>
      </trkpt>
      <trkpt lat="42.88912" lon="1.18006">
        <ele>825.7</ele>
        <time>2022-05-21T09:02:17.000Z</time>
      </trkpt>
      <trkpt lat="42.88901" lon="1.18006">
        <ele>825.4</ele>
        <time>2022-05-21T09:02:19.000Z</time>
      </trkpt>
      <trkpt lat="42.88889" lon="1.18007">
        <ele>824.9</ele>
        <time>2022-05-21T09:02:21.000Z</time>
      </trkpt>
      <trkpt lat="42.88875" lon="1.18016">
        <ele>824</ele>
        <time>2022-05-21T09:02:23.000Z</time>
      </trkpt>
      <trkpt lat="42.88861" lon="1.18029">
        <ele>823</ele>
        <time>2022-05-21T09:02:25.000Z</time>
      </trkpt>
      <trkpt lat="42.88846" lon="1.18042">
        <ele>822</ele>
        <time>2022-05-21T09:02:27.000Z</time>
      </trkpt>
      <trkpt lat="42.88833" lon="1.18052">
        <ele>822.1</ele>
        <time>2022-05-21T09:02:29.000Z</time>
      </trkpt>
      <trkpt lat="42.8882" lon="1.18065">
        <ele>821.7</ele>
        <time>2022-05-21T09:02:31.000Z</time>
      </trkpt>
      <trkpt lat="42.8881" lon="1.18078">
        <ele>820.7</ele>
        <time>2022-05-21T09:02:33.000Z</time>
      </trkpt>
      <trkpt lat="42.888" lon="1.18091">
        <ele>819.7</ele>
        <time>2022-05-21T09:02:35.000Z</time>
      </trkpt>
      <trkpt lat="42.8879" lon="1.18102">
        <ele>818.7</ele>
        <time>2022-05-21T09:02:37.000Z</time>
      </trkpt>
      <trkpt lat="42.8878" lon="1.18109">
        <ele>818.6</ele>
        <time>2022-05-21T09:02:39.000Z</time>
      </trkpt>
      <trkpt lat="42.88768" lon="1.18109">
        <ele>818.3</ele>
        <time>2022-05-21T09:02:41.000Z</time>
      </trkpt>
      <trkpt lat="42.88757" lon="1.18106">
        <ele>817.1</ele>
        <time>2022-05-21T09:02:43.000Z</time>
      </trkpt>
      <trkpt lat="42.88746" lon="1.18101">
        <ele>816.2</ele>
        <time>2022-05-21T09:02:45.000Z</time>
      </trkpt>
      <trkpt lat="42.88735" lon="1.18097">
        <ele>815.3</ele>
        <time>2022-05-21T09:02:47.000Z</time>
      </trkpt>
      <trkpt lat="42.88724" lon="1.18096">
        <ele>813.8</ele>
        <time>2022-05-21T09:02:49.000Z</time>
      </trkpt>
      <trkpt lat="42.88714" lon="1.18095">
        <ele>813.2</ele>
        <time>2022-05-21T09:02:51.000Z</time>
      </trkpt>
      <trkpt lat="42.88704" lon="1.18096">
        <ele>811.8</ele>
        <time>2022-05-21T09:02:53.000Z</time>
      </trkpt>
      <trkpt lat="42.88694" lon="1.18098">
        <ele>810.6</ele>
        <time>2022-05-21T09:02:55.000Z</time>
      </trkpt>
      <trkpt lat="42.88684" lon="1.18099">
        <ele>810.3</ele>
        <time>2022-05-21T09:02:57.000Z</time>
      </trkpt>
      <trkpt lat="42.88674" lon="1.18104">
        <ele>808.9</ele>
        <time>2022-05-21T09:02:59.000Z</time>
      </trkpt>
      <trkpt lat="42.88665" lon="1.18109">
        <ele>808.6</ele>
        <time>2022-05-21T09:03:01.000Z</time>
      </trkpt>
      <trkpt lat="42.88654" lon="1.18116">
        <ele>806.6</ele>
        <time>2022-05-21T09:03:04.000Z</time>
      </trkpt>
      <trkpt lat="42.88648" lon="1.1813">
        <ele>805.4</ele>
        <time>2022-05-21T09:03:08.000Z</time>
      </trkpt>
      <trkpt lat="42.88642" lon="1.18142">
        <ele>803.6</ele>
        <time>2022-05-21T09:03:13.000Z</time>
      </trkpt>
      <trkpt lat="42.88633" lon="1.1815">
        <ele>802.9</ele>
        <time>2022-05-21T09:03:16.000Z</time>
      </trkpt>
      <trkpt lat="42.88622" lon="1.1816">
        <ele>801.3</ele>
        <time>2022-05-21T09:03:19.000Z</time>
      </trkpt>
      <trkpt lat="42.88612" lon="1.18169">
        <ele>800.2</ele>
        <time>2022-05-21T09:03:22.000Z</time>
      </trkpt>
      <trkpt lat="42.88605" lon="1.18176">
        <ele>798.6</ele>
        <time>2022-05-21T09:03:26.000Z</time>
      </trkpt>
      <trkpt lat="42.88605" lon="1.1819">
        <ele>796.1</ele>
        <time>2022-05-21T09:03:31.000Z</time>
      </trkpt>
      <trkpt lat="42.88605" lon="1.18193">
        <ele>794.6</ele>
        <time>2022-05-21T09:03:34.000Z</time>
      </trkpt>
      <trkpt lat="42.88605" lon="1.18195">
        <ele>790</ele>
        <time>2022-05-21T09:03:46.000Z</time>
      </trkpt>
      <trkpt lat="42.88604" lon="1.18195">
        <ele>789.7</ele>
        <time>2022-05-21T09:03:47.000Z</time>
      </trkpt>
      <trkpt lat="42.88603" lon="1.18193">
        <ele>788.4</ele>
        <time>2022-05-21T09:03:51.000Z</time>
      </trkpt>
      <trkpt lat="42.88595" lon="1.18201">
        <ele>774.9</ele>
        <time>2022-05-21T09:04:31.000Z</time>
      </trkpt>
      <trkpt lat="42.88587" lon="1.18194">
        <ele>774.1</ele>
        <time>2022-05-21T09:04:35.000Z</time>
      </trkpt>
      <trkpt lat="42.8858" lon="1.18184">
        <ele>773.3</ele>
        <time>2022-05-21T09:04:37.000Z</time>
      </trkpt>
      <trkpt lat="42.8857" lon="1.18172">
        <ele>772.9</ele>
        <time>2022-05-21T09:04:39.000Z</time>
      </trkpt>
      <trkpt lat="42.8856" lon="1.18163">
        <ele>772.7</ele>
        <time>2022-05-21T09:04:41.000Z</time>
      </trkpt>
      <trkpt lat="42.88548" lon="1.18153">
        <ele>772</ele>
        <time>2022-05-21T09:04:43.000Z</time>
      </trkpt>
      <trkpt lat="42.88535" lon="1.18148">
        <ele>770.8</ele>
        <time>2022-05-21T09:04:45.000Z</time>
      </trkpt>
      <trkpt lat="42.88521" lon="1.1815">
        <ele>770.2</ele>
        <time>2022-05-21T09:04:47.000Z</time>
      </trkpt>
      <trkpt lat="42.88504" lon="1.18157">
        <ele>769.3</ele>
        <time>2022-05-21T09:04:49.000Z</time>
      </trkpt>
      <trkpt lat="42.88494" lon="1.18161">
        <ele>769.1</ele>
        <time>2022-05-21T09:04:50.000Z</time>
      </trkpt>
      <trkpt lat="42.88485" lon="1.18166">
        <ele>768.9</ele>
        <time>2022-05-21T09:04:51.000Z</time>
      </trkpt>
      <trkpt lat="42.88476" lon="1.1817">
        <ele>768.5</ele>
        <time>2022-05-21T09:04:52.000Z</time>
      </trkpt>
      <trkpt lat="42.88466" lon="1.18175">
        <ele>768.1</ele>
        <time>2022-05-21T09:04:53.000Z</time>
      </trkpt>
      <trkpt lat="42.88457" lon="1.18179">
        <ele>767.3</ele>
        <time>2022-05-21T09:04:54.000Z</time>
      </trkpt>
      <trkpt lat="42.88448" lon="1.18183">
        <ele>766.9</ele>
        <time>2022-05-21T09:04:55.000Z</time>
      </trkpt>
      <trkpt lat="42.8844" lon="1.18188">
        <ele>766.7</ele>
        <time>2022-05-21T09:04:56.000Z</time>
      </trkpt>
      <trkpt lat="42.88431" lon="1.18196">
        <ele>766.3</ele>
        <time>2022-05-21T09:04:57.000Z</time>
      </trkpt>
      <trkpt lat="42.88422" lon="1.18205">
        <ele>765.4</ele>
        <time>2022-05-21T09:04:58.000Z</time>
      </trkpt>
      <trkpt lat="42.88413" lon="1.18214">
        <ele>764.2</ele>
        <time>2022-05-21T09:04:59.000Z</time>
      </trkpt>
      <trkpt lat="42.88403" lon="1.18223">
        <ele>764.1</ele>
        <time>2022-05-21T09:05:00.000Z</time>
      </trkpt>
      <trkpt lat="42.88393" lon="1.18231">
        <ele>763.5</ele>
        <time>2022-05-21T09:05:01.000Z</time>
      </trkpt>
      <trkpt lat="42.88383" lon="1.18238">
        <ele>762.8</ele>
        <time>2022-05-21T09:05:02.000Z</time>
      </trkpt>
      <trkpt lat="42.88373" lon="1.18245">
        <ele>762</ele>
        <time>2022-05-21T09:05:03.000Z</time>
      </trkpt>
      <trkpt lat="42.88364" lon="1.18252">
        <ele>761.4</ele>
        <time>2022-05-21T09:05:04.000Z</time>
      </trkpt>
      <trkpt lat="42.88355" lon="1.18258">
        <ele>761.5</ele>
        <time>2022-05-21T09:05:05.000Z</time>
      </trkpt>
      <trkpt lat="42.88346" lon="1.18265">
        <ele>761</ele>
        <time>2022-05-21T09:05:06.000Z</time>
      </trkpt>
      <trkpt lat="42.88338" lon="1.18271">
        <ele>760.3</ele>
        <time>2022-05-21T09:05:07.000Z</time>
      </trkpt>
      <trkpt lat="42.88324" lon="1.18282">
        <ele>759</ele>
        <time>2022-05-21T09:05:09.000Z</time>
      </trkpt>
      <trkpt lat="42.88313" lon="1.1829">
        <ele>759.5</ele>
        <time>2022-05-21T09:05:11.000Z</time>
      </trkpt>
      <trkpt lat="42.88305" lon="1.18295">
        <ele>758.9</ele>
        <time>2022-05-21T09:05:13.000Z</time>
      </trkpt>
      <trkpt lat="42.88294" lon="1.18303">
        <ele>758</ele>
        <time>2022-05-21T09:05:16.000Z</time>
      </trkpt>
      <trkpt lat="42.88284" lon="1.18314">
        <ele>757.5</ele>
        <time>2022-05-21T09:05:19.000Z</time>
      </trkpt>
      <trkpt lat="42.88273" lon="1.18324">
        <ele>756.6</ele>
        <time>2022-05-21T09:05:22.000Z</time>
      </trkpt>
      <trkpt lat="42.88264" lon="1.18335">
        <ele>757.6</ele>
        <time>2022-05-21T09:05:25.000Z</time>
      </trkpt>
      <trkpt lat="42.88258" lon="1.18347">
        <ele>757.1</ele>
        <time>2022-05-21T09:05:28.000Z</time>
      </trkpt>
      <trkpt lat="42.88254" lon="1.1836">
        <ele>756.9</ele>
        <time>2022-05-21T09:05:31.000Z</time>
      </trkpt>
      <trkpt lat="42.88249" lon="1.18375">
        <ele>756.9</ele>
        <time>2022-05-21T09:05:34.000Z</time>
      </trkpt>
      <trkpt lat="42.88241" lon="1.18391">
        <ele>756.9</ele>
        <time>2022-05-21T09:05:37.000Z</time>
      </trkpt>
      <trkpt lat="42.88233" lon="1.18404">
        <ele>756.3</ele>
        <time>2022-05-21T09:05:39.000Z</time>
      </trkpt>
      <trkpt lat="42.88224" lon="1.18419">
        <ele>755.4</ele>
        <time>2022-05-21T09:05:41.000Z</time>
      </trkpt>
      <trkpt lat="42.88212" lon="1.18436">
        <ele>754.8</ele>
        <time>2022-05-21T09:05:43.000Z</time>
      </trkpt>
      <trkpt lat="42.88206" lon="1.18445">
        <ele>754.8</ele>
        <time>2022-05-21T09:05:44.000Z</time>
      </trkpt>
      <trkpt lat="42.882" lon="1.18454">
        <ele>754.9</ele>
        <time>2022-05-21T09:05:45.000Z</time>
      </trkpt>
      <trkpt lat="42.88189" lon="1.18472">
        <ele>754.8</ele>
        <time>2022-05-21T09:05:47.000Z</time>
      </trkpt>
      <trkpt lat="42.88186" lon="1.18489">
        <ele>754.1</ele>
        <time>2022-05-21T09:05:49.000Z</time>
      </trkpt>
      <trkpt lat="42.88182" lon="1.18503">
        <ele>754.2</ele>
        <time>2022-05-21T09:05:52.000Z</time>
      </trkpt>
      <trkpt lat="42.88172" lon="1.18511">
        <ele>753.3</ele>
        <time>2022-05-21T09:05:55.000Z</time>
      </trkpt>
      <trkpt lat="42.88161" lon="1.1852">
        <ele>752.9</ele>
        <time>2022-05-21T09:05:58.000Z</time>
      </trkpt>
      <trkpt lat="42.88152" lon="1.18527">
        <ele>752.3</ele>
        <time>2022-05-21T09:06:01.000Z</time>
      </trkpt>
      <trkpt lat="42.88142" lon="1.18535">
        <ele>751.5</ele>
        <time>2022-05-21T09:06:04.000Z</time>
      </trkpt>
      <trkpt lat="42.88133" lon="1.18542">
        <ele>751</ele>
        <time>2022-05-21T09:06:06.000Z</time>
      </trkpt>
      <trkpt lat="42.88124" lon="1.1855">
        <ele>750.1</ele>
        <time>2022-05-21T09:06:08.000Z</time>
      </trkpt>
      <trkpt lat="42.88114" lon="1.18559">
        <ele>750.1</ele>
        <time>2022-05-21T09:06:10.000Z</time>
      </trkpt>
      <trkpt lat="42.88106" lon="1.18565">
        <ele>749.7</ele>
        <time>2022-05-21T09:06:12.000Z</time>
      </trkpt>
      <trkpt lat="42.88097" lon="1.18571">
        <ele>748.8</ele>
        <time>2022-05-21T09:06:14.000Z</time>
      </trkpt>
      <trkpt lat="42.88089" lon="1.18576">
        <ele>748.5</ele>
        <time>2022-05-21T09:06:16.000Z</time>
      </trkpt>
      <trkpt lat="42.88079" lon="1.18583">
        <ele>747.9</ele>
        <time>2022-05-21T09:06:19.000Z</time>
      </trkpt>
      <trkpt lat="42.8807" lon="1.18588">
        <ele>747.2</ele>
        <time>2022-05-21T09:06:22.000Z</time>
      </trkpt>
      <trkpt lat="42.8806" lon="1.18593">
        <ele>746.9</ele>
        <time>2022-05-21T09:06:25.000Z</time>
      </trkpt>
      <trkpt lat="42.88051" lon="1.18599">
        <ele>746.2</ele>
        <time>2022-05-21T09:06:27.000Z</time>
      </trkpt>
      <trkpt lat="42.88041" lon="1.18606">
        <ele>746.2</ele>
        <time>2022-05-21T09:06:30.000Z</time>
      </trkpt>
      <trkpt lat="42.88031" lon="1.18614">
        <ele>745.4</ele>
        <time>2022-05-21T09:06:33.000Z</time>
      </trkpt>
      <trkpt lat="42.8802" lon="1.18622">
        <ele>744.5</ele>
        <time>2022-05-21T09:06:36.000Z</time>
      </trkpt>
      <trkpt lat="42.88012" lon="1.1863">
        <ele>744.3</ele>
        <time>2022-05-21T09:06:39.000Z</time>
      </trkpt>
      <trkpt lat="42.88002" lon="1.1864">
        <ele>743.9</ele>
        <time>2022-05-21T09:06:42.000Z</time>
      </trkpt>
      <trkpt lat="42.87995" lon="1.18648">
        <ele>743.7</ele>
        <time>2022-05-21T09:06:44.000Z</time>
      </trkpt>
      <trkpt lat="42.87986" lon="1.18661">
        <ele>743.3</ele>
        <time>2022-05-21T09:06:47.000Z</time>
      </trkpt>
      <trkpt lat="42.87978" lon="1.18674">
        <ele>743.1</ele>
        <time>2022-05-21T09:06:50.000Z</time>
      </trkpt>
      <trkpt lat="42.8797" lon="1.18689">
        <ele>743.1</ele>
        <time>2022-05-21T09:06:53.000Z</time>
      </trkpt>
      <trkpt lat="42.87963" lon="1.18703">
        <ele>743.5</ele>
        <time>2022-05-21T09:06:56.000Z</time>
      </trkpt>
      <trkpt lat="42.87957" lon="1.18717">
        <ele>743.6</ele>
        <time>2022-05-21T09:06:59.000Z</time>
      </trkpt>
      <trkpt lat="42.87951" lon="1.18727">
        <ele>743.6</ele>
        <time>2022-05-21T09:07:01.000Z</time>
      </trkpt>
      <trkpt lat="42.87944" lon="1.18737">
        <ele>742.4</ele>
        <time>2022-05-21T09:07:03.000Z</time>
      </trkpt>
      <trkpt lat="42.87936" lon="1.1875">
        <ele>742</ele>
        <time>2022-05-21T09:07:05.000Z</time>
      </trkpt>
      <trkpt lat="42.87929" lon="1.18761">
        <ele>742</ele>
        <time>2022-05-21T09:07:07.000Z</time>
      </trkpt>
      <trkpt lat="42.87923" lon="1.18773">
        <ele>741.6</ele>
        <time>2022-05-21T09:07:10.000Z</time>
      </trkpt>
      <trkpt lat="42.87915" lon="1.1878">
        <ele>741</ele>
        <time>2022-05-21T09:07:13.000Z</time>
      </trkpt>
      <trkpt lat="42.87903" lon="1.18786">
        <ele>740.3</ele>
        <time>2022-05-21T09:07:16.000Z</time>
      </trkpt>
      <trkpt lat="42.87893" lon="1.18787">
        <ele>740.1</ele>
        <time>2022-05-21T09:07:18.000Z</time>
      </trkpt>
      <trkpt lat="42.87883" lon="1.18786">
        <ele>739.5</ele>
        <time>2022-05-21T09:07:20.000Z</time>
      </trkpt>
      <trkpt lat="42.8787" lon="1.18789">
        <ele>738.4</ele>
        <time>2022-05-21T09:07:22.000Z</time>
      </trkpt>
      <trkpt lat="42.8786" lon="1.18793">
        <ele>737.2</ele>
        <time>2022-05-21T09:07:24.000Z</time>
      </trkpt>
      <trkpt lat="42.87848" lon="1.18798">
        <ele>736.8</ele>
        <time>2022-05-21T09:07:26.000Z</time>
      </trkpt>
      <trkpt lat="42.87838" lon="1.18803">
        <ele>735.2</ele>
        <time>2022-05-21T09:07:28.000Z</time>
      </trkpt>
      <trkpt lat="42.87828" lon="1.18809">
        <ele>734.5</ele>
        <time>2022-05-21T09:07:31.000Z</time>
      </trkpt>
      <trkpt lat="42.87815" lon="1.18811">
        <ele>733.3</ele>
        <time>2022-05-21T09:07:34.000Z</time>
      </trkpt>
      <trkpt lat="42.878" lon="1.18815">
        <ele>731.7</ele>
        <time>2022-05-21T09:07:37.000Z</time>
      </trkpt>
      <trkpt lat="42.87784" lon="1.18814">
        <ele>729.1</ele>
        <time>2022-05-21T09:07:39.000Z</time>
      </trkpt>
      <trkpt lat="42.87769" lon="1.18805">
        <ele>727.9</ele>
        <time>2022-05-21T09:07:41.000Z</time>
      </trkpt>
      <trkpt lat="42.87755" lon="1.18796">
        <ele>726.7</ele>
        <time>2022-05-21T09:07:43.000Z</time>
      </trkpt>
      <trkpt lat="42.87739" lon="1.18793">
        <ele>724.3</ele>
        <time>2022-05-21T09:07:45.000Z</time>
      </trkpt>
      <trkpt lat="42.87722" lon="1.18791">
        <ele>723.7</ele>
        <time>2022-05-21T09:07:47.000Z</time>
      </trkpt>
      <trkpt lat="42.87706" lon="1.18793">
        <ele>722</ele>
        <time>2022-05-21T09:07:49.000Z</time>
      </trkpt>
      <trkpt lat="42.87689" lon="1.18795">
        <ele>720.9</ele>
        <time>2022-05-21T09:07:51.000Z</time>
      </trkpt>
      <trkpt lat="42.87673" lon="1.18798">
        <ele>719.1</ele>
        <time>2022-05-21T09:07:53.000Z</time>
      </trkpt>
      <trkpt lat="42.87657" lon="1.188">
        <ele>717.7</ele>
        <time>2022-05-21T09:07:55.000Z</time>
      </trkpt>
      <trkpt lat="42.87643" lon="1.18802">
        <ele>715.9</ele>
        <time>2022-05-21T09:07:57.000Z</time>
      </trkpt>
      <trkpt lat="42.8763" lon="1.18806">
        <ele>714.6</ele>
        <time>2022-05-21T09:07:59.000Z</time>
      </trkpt>
      <trkpt lat="42.87619" lon="1.18809">
        <ele>713.8</ele>
        <time>2022-05-21T09:08:01.000Z</time>
      </trkpt>
      <trkpt lat="42.87609" lon="1.18814">
        <ele>713.2</ele>
        <time>2022-05-21T09:08:03.000Z</time>
      </trkpt>
      <trkpt lat="42.876" lon="1.18818">
        <ele>712.7</ele>
        <time>2022-05-21T09:08:05.000Z</time>
      </trkpt>
      <trkpt lat="42.87591" lon="1.18821">
        <ele>711.8</ele>
        <time>2022-05-21T09:08:07.000Z</time>
      </trkpt>
      <trkpt lat="42.8758" lon="1.18828">
        <ele>710.9</ele>
        <time>2022-05-21T09:08:09.000Z</time>
      </trkpt>
      <trkpt lat="42.87568" lon="1.18836">
        <ele>709.9</ele>
        <time>2022-05-21T09:08:11.000Z</time>
      </trkpt>
      <trkpt lat="42.87554" lon="1.18841">
        <ele>709.5</ele>
        <time>2022-05-21T09:08:13.000Z</time>
      </trkpt>
      <trkpt lat="42.87543" lon="1.18846">
        <ele>708.9</ele>
        <time>2022-05-21T09:08:15.000Z</time>
      </trkpt>
      <trkpt lat="42.87533" lon="1.18855">
        <ele>708.4</ele>
        <time>2022-05-21T09:08:17.000Z</time>
      </trkpt>
      <trkpt lat="42.87522" lon="1.18865">
        <ele>707.9</ele>
        <time>2022-05-21T09:08:19.000Z</time>
      </trkpt>
      <trkpt lat="42.8751" lon="1.18874">
        <ele>707.4</ele>
        <time>2022-05-21T09:08:21.000Z</time>
      </trkpt>
      <trkpt lat="42.87499" lon="1.18884">
        <ele>706.5</ele>
        <time>2022-05-21T09:08:23.000Z</time>
      </trkpt>
      <trkpt lat="42.8749" lon="1.18894">
        <ele>705.5</ele>
        <time>2022-05-21T09:08:25.000Z</time>
      </trkpt>
      <trkpt lat="42.87482" lon="1.18905">
        <ele>705.5</ele>
        <time>2022-05-21T09:08:28.000Z</time>
      </trkpt>
      <trkpt lat="42.87475" lon="1.18921">
        <ele>704.8</ele>
        <time>2022-05-21T09:08:31.000Z</time>
      </trkpt>
      <trkpt lat="42.87471" lon="1.18932">
        <ele>703.9</ele>
        <time>2022-05-21T09:08:33.000Z</time>
      </trkpt>
      <trkpt lat="42.87466" lon="1.18944">
        <ele>703.2</ele>
        <time>2022-05-21T09:08:36.000Z</time>
      </trkpt>
      <trkpt lat="42.8746" lon="1.18954">
        <ele>702.3</ele>
        <time>2022-05-21T09:08:39.000Z</time>
      </trkpt>
      <trkpt lat="42.87453" lon="1.18962">
        <ele>702</ele>
        <time>2022-05-21T09:08:42.000Z</time>
      </trkpt>
      <trkpt lat="42.87444" lon="1.18972">
        <ele>701.9</ele>
        <time>2022-05-21T09:08:46.000Z</time>
      </trkpt>
      <trkpt lat="42.87437" lon="1.18986">
        <ele>700.9</ele>
        <time>2022-05-21T09:08:50.000Z</time>
      </trkpt>
      <trkpt lat="42.87431" lon="1.18998">
        <ele>700.2</ele>
        <time>2022-05-21T09:08:52.000Z</time>
      </trkpt>
      <trkpt lat="42.87422" lon="1.19008">
        <ele>700.2</ele>
        <time>2022-05-21T09:08:55.000Z</time>
      </trkpt>
      <trkpt lat="42.87413" lon="1.19016">
        <ele>700</ele>
        <time>2022-05-21T09:08:59.000Z</time>
      </trkpt>
      <trkpt lat="42.87402" lon="1.19019">
        <ele>700.3</ele>
        <time>2022-05-21T09:09:03.000Z</time>
      </trkpt>
      <trkpt lat="42.87393" lon="1.19025">
        <ele>700.7</ele>
        <time>2022-05-21T09:09:08.000Z</time>
      </trkpt>
      <trkpt lat="42.87385" lon="1.1903">
        <ele>700.9</ele>
        <time>2022-05-21T09:09:12.000Z</time>
      </trkpt>
      <trkpt lat="42.87379" lon="1.19043">
        <ele>701.3</ele>
        <time>2022-05-21T09:09:17.000Z</time>
      </trkpt>
      <trkpt lat="42.87373" lon="1.19055">
        <ele>701.5</ele>
        <time>2022-05-21T09:09:22.000Z</time>
      </trkpt>
      <trkpt lat="42.87366" lon="1.19067">
        <ele>701.7</ele>
        <time>2022-05-21T09:09:27.000Z</time>
      </trkpt>
      <trkpt lat="42.8736" lon="1.19077">
        <ele>701.8</ele>
        <time>2022-05-21T09:09:31.000Z</time>
      </trkpt>
      <trkpt lat="42.87353" lon="1.19087">
        <ele>702.4</ele>
        <time>2022-05-21T09:09:35.000Z</time>
      </trkpt>
      <trkpt lat="42.87346" lon="1.19097">
        <ele>702.8</ele>
        <time>2022-05-21T09:09:39.000Z</time>
      </trkpt>
      <trkpt lat="42.8734" lon="1.19107">
        <ele>702.6</ele>
        <time>2022-05-21T09:09:43.000Z</time>
      </trkpt>
      <trkpt lat="42.87332" lon="1.19117">
        <ele>703.3</ele>
        <time>2022-05-21T09:09:47.000Z</time>
      </trkpt>
      <trkpt lat="42.87324" lon="1.19128">
        <ele>703.8</ele>
        <time>2022-05-21T09:09:51.000Z</time>
      </trkpt>
      <trkpt lat="42.87315" lon="1.19139">
        <ele>704.1</ele>
        <time>2022-05-21T09:09:55.000Z</time>
      </trkpt>
      <trkpt lat="42.87309" lon="1.19149">
        <ele>704.6</ele>
        <time>2022-05-21T09:09:58.000Z</time>
      </trkpt>
      <trkpt lat="42.87304" lon="1.19159">
        <ele>704.9</ele>
        <time>2022-05-21T09:10:01.000Z</time>
      </trkpt>
      <trkpt lat="42.87293" lon="1.19169">
        <ele>704.5</ele>
        <time>2022-05-21T09:10:05.000Z</time>
      </trkpt>
      <trkpt lat="42.87284" lon="1.19177">
        <ele>704.8</ele>
        <time>2022-05-21T09:10:08.000Z</time>
      </trkpt>
      <trkpt lat="42.87274" lon="1.19185">
        <ele>704.5</ele>
        <time>2022-05-21T09:10:11.000Z</time>
      </trkpt>
      <trkpt lat="42.87262" lon="1.19193">
        <ele>703.8</ele>
        <time>2022-05-21T09:10:14.000Z</time>
      </trkpt>
      <trkpt lat="42.87252" lon="1.192">
        <ele>703.7</ele>
        <time>2022-05-21T09:10:16.000Z</time>
      </trkpt>
      <trkpt lat="42.87241" lon="1.19211">
        <ele>703.1</ele>
        <time>2022-05-21T09:10:18.000Z</time>
      </trkpt>
      <trkpt lat="42.8723" lon="1.19225">
        <ele>703.2</ele>
        <time>2022-05-21T09:10:20.000Z</time>
      </trkpt>
      <trkpt lat="42.87219" lon="1.19243">
        <ele>702.8</ele>
        <time>2022-05-21T09:10:22.000Z</time>
      </trkpt>
      <trkpt lat="42.87209" lon="1.19262">
        <ele>703</ele>
        <time>2022-05-21T09:10:24.000Z</time>
      </trkpt>
      <trkpt lat="42.87203" lon="1.19284">
        <ele>703.3</ele>
        <time>2022-05-21T09:10:26.000Z</time>
      </trkpt>
      <trkpt lat="42.87197" lon="1.19306">
        <ele>702.2</ele>
        <time>2022-05-21T09:10:28.000Z</time>
      </trkpt>
      <trkpt lat="42.87188" lon="1.19325">
        <ele>702.4</ele>
        <time>2022-05-21T09:10:30.000Z</time>
      </trkpt>
      <trkpt lat="42.87178" lon="1.19341">
        <ele>701.2</ele>
        <time>2022-05-21T09:10:32.000Z</time>
      </trkpt>
      <trkpt lat="42.87165" lon="1.19354">
        <ele>700.9</ele>
        <time>2022-05-21T09:10:34.000Z</time>
      </trkpt>
      <trkpt lat="42.87149" lon="1.19363">
        <ele>700.6</ele>
        <time>2022-05-21T09:10:36.000Z</time>
      </trkpt>
      <trkpt lat="42.87133" lon="1.19373">
        <ele>700.4</ele>
        <time>2022-05-21T09:10:38.000Z</time>
      </trkpt>
      <trkpt lat="42.87122" lon="1.19387">
        <ele>699.6</ele>
        <time>2022-05-21T09:10:40.000Z</time>
      </trkpt>
      <trkpt lat="42.87112" lon="1.19402">
        <ele>699.5</ele>
        <time>2022-05-21T09:10:42.000Z</time>
      </trkpt>
      <trkpt lat="42.87105" lon="1.19416">
        <ele>698.9</ele>
        <time>2022-05-21T09:10:44.000Z</time>
      </trkpt>
      <trkpt lat="42.87098" lon="1.19427">
        <ele>698.9</ele>
        <time>2022-05-21T09:10:46.000Z</time>
      </trkpt>
      <trkpt lat="42.87089" lon="1.19436">
        <ele>699</ele>
        <time>2022-05-21T09:10:48.000Z</time>
      </trkpt>
      <trkpt lat="42.87083" lon="1.19446">
        <ele>698.9</ele>
        <time>2022-05-21T09:10:50.000Z</time>
      </trkpt>
      <trkpt lat="42.87074" lon="1.19458">
        <ele>698.7</ele>
        <time>2022-05-21T09:10:53.000Z</time>
      </trkpt>
      <trkpt lat="42.87065" lon="1.19469">
        <ele>698.7</ele>
        <time>2022-05-21T09:10:56.000Z</time>
      </trkpt>
      <trkpt lat="42.87056" lon="1.19482">
        <ele>698.6</ele>
        <time>2022-05-21T09:10:59.000Z</time>
      </trkpt>
      <trkpt lat="42.87049" lon="1.19491">
        <ele>698.6</ele>
        <time>2022-05-21T09:11:01.000Z</time>
      </trkpt>
      <trkpt lat="42.87042" lon="1.19505">
        <ele>698.7</ele>
        <time>2022-05-21T09:11:04.000Z</time>
      </trkpt>
      <trkpt lat="42.87033" lon="1.1952">
        <ele>698.3</ele>
        <time>2022-05-21T09:11:07.000Z</time>
      </trkpt>
      <trkpt lat="42.87028" lon="1.19533">
        <ele>697.8</ele>
        <time>2022-05-21T09:11:09.000Z</time>
      </trkpt>
      <trkpt lat="42.87023" lon="1.19546">
        <ele>697.9</ele>
        <time>2022-05-21T09:11:11.000Z</time>
      </trkpt>
      <trkpt lat="42.87018" lon="1.19558">
        <ele>698</ele>
        <time>2022-05-21T09:11:13.000Z</time>
      </trkpt>
      <trkpt lat="42.87013" lon="1.19571">
        <ele>697.7</ele>
        <time>2022-05-21T09:11:15.000Z</time>
      </trkpt>
      <trkpt lat="42.87007" lon="1.19583">
        <ele>697.6</ele>
        <time>2022-05-21T09:11:17.000Z</time>
      </trkpt>
      <trkpt lat="42.87" lon="1.19597">
        <ele>697.8</ele>
        <time>2022-05-21T09:11:20.000Z</time>
      </trkpt>
      <trkpt lat="42.86995" lon="1.19608">
        <ele>697.6</ele>
        <time>2022-05-21T09:11:22.000Z</time>
      </trkpt>
      <trkpt lat="42.8699" lon="1.19621">
        <ele>698</ele>
        <time>2022-05-21T09:11:24.000Z</time>
      </trkpt>
      <trkpt lat="42.86987" lon="1.19634">
        <ele>697.8</ele>
        <time>2022-05-21T09:11:26.000Z</time>
      </trkpt>
      <trkpt lat="42.86987" lon="1.19647">
        <ele>697.4</ele>
        <time>2022-05-21T09:11:28.000Z</time>
      </trkpt>
      <trkpt lat="42.86984" lon="1.1966">
        <ele>697.2</ele>
        <time>2022-05-21T09:11:30.000Z</time>
      </trkpt>
      <trkpt lat="42.86979" lon="1.19674">
        <ele>696.9</ele>
        <time>2022-05-21T09:11:32.000Z</time>
      </trkpt>
      <trkpt lat="42.86973" lon="1.19687">
        <ele>697</ele>
        <time>2022-05-21T09:11:34.000Z</time>
      </trkpt>
      <trkpt lat="42.86968" lon="1.197">
        <ele>697.1</ele>
        <time>2022-05-21T09:11:36.000Z</time>
      </trkpt>
      <trkpt lat="42.8696" lon="1.19713">
        <ele>696.8</ele>
        <time>2022-05-21T09:11:38.000Z</time>
      </trkpt>
      <trkpt lat="42.86951" lon="1.19725">
        <ele>696.4</ele>
        <time>2022-05-21T09:11:40.000Z</time>
      </trkpt>
      <trkpt lat="42.86944" lon="1.19739">
        <ele>696.2</ele>
        <time>2022-05-21T09:11:42.000Z</time>
      </trkpt>
      <trkpt lat="42.86938" lon="1.19756">
        <ele>696</ele>
        <time>2022-05-21T09:11:44.000Z</time>
      </trkpt>
      <trkpt lat="42.86932" lon="1.19773">
        <ele>695.6</ele>
        <time>2022-05-21T09:11:46.000Z</time>
      </trkpt>
      <trkpt lat="42.86926" lon="1.19786">
        <ele>695.4</ele>
        <time>2022-05-21T09:11:48.000Z</time>
      </trkpt>
      <trkpt lat="42.86921" lon="1.19798">
        <ele>695.3</ele>
        <time>2022-05-21T09:11:50.000Z</time>
      </trkpt>
      <trkpt lat="42.86917" lon="1.19812">
        <ele>694.9</ele>
        <time>2022-05-21T09:11:52.000Z</time>
      </trkpt>
      <trkpt lat="42.86912" lon="1.19826">
        <ele>694.8</ele>
        <time>2022-05-21T09:11:54.000Z</time>
      </trkpt>
      <trkpt lat="42.86907" lon="1.19839">
        <ele>694.3</ele>
        <time>2022-05-21T09:11:56.000Z</time>
      </trkpt>
      <trkpt lat="42.86901" lon="1.19853">
        <ele>693.9</ele>
        <time>2022-05-21T09:11:58.000Z</time>
      </trkpt>
      <trkpt lat="42.86897" lon="1.19865">
        <ele>693.9</ele>
        <time>2022-05-21T09:12:00.000Z</time>
      </trkpt>
      <trkpt lat="42.86896" lon="1.19877">
        <ele>693.3</ele>
        <time>2022-05-21T09:12:03.000Z</time>
      </trkpt>
      <trkpt lat="42.86887" lon="1.19885">
        <ele>693.1</ele>
        <time>2022-05-21T09:12:06.000Z</time>
      </trkpt>
      <trkpt lat="42.86875" lon="1.19892">
        <ele>692.7</ele>
        <time>2022-05-21T09:12:09.000Z</time>
      </trkpt>
      <trkpt lat="42.86866" lon="1.19899">
        <ele>692.4</ele>
        <time>2022-05-21T09:12:11.000Z</time>
      </trkpt>
      <trkpt lat="42.86858" lon="1.1991">
        <ele>691.4</ele>
        <time>2022-05-21T09:12:13.000Z</time>
      </trkpt>
      <trkpt lat="42.86849" lon="1.1992">
        <ele>690.9</ele>
        <time>2022-05-21T09:12:15.000Z</time>
      </trkpt>
      <trkpt lat="42.8684" lon="1.19927">
        <ele>690.2</ele>
        <time>2022-05-21T09:12:17.000Z</time>
      </trkpt>
      <trkpt lat="42.8683" lon="1.19937">
        <ele>689.2</ele>
        <time>2022-05-21T09:12:20.000Z</time>
      </trkpt>
      <trkpt lat="42.86819" lon="1.19943">
        <ele>688.3</ele>
        <time>2022-05-21T09:12:23.000Z</time>
      </trkpt>
      <trkpt lat="42.8681" lon="1.19951">
        <ele>686.4</ele>
        <time>2022-05-21T09:12:26.000Z</time>
      </trkpt>
      <trkpt lat="42.86801" lon="1.19961">
        <ele>685</ele>
        <time>2022-05-21T09:12:29.000Z</time>
      </trkpt>
      <trkpt lat="42.86798" lon="1.19975">
        <ele>683.1</ele>
        <time>2022-05-21T09:12:33.000Z</time>
      </trkpt>
      <trkpt lat="42.86789" lon="1.19973">
        <ele>678.8</ele>
        <time>2022-05-21T09:12:41.000Z</time>
      </trkpt>
      <trkpt lat="42.86782" lon="1.19982">
        <ele>676.6</ele>
        <time>2022-05-21T09:12:44.000Z</time>
      </trkpt>
      <trkpt lat="42.86782" lon="1.19996">
        <ele>675.1</ele>
        <time>2022-05-21T09:12:47.000Z</time>
      </trkpt>
      <trkpt lat="42.86783" lon="1.2001">
        <ele>672.7</ele>
        <time>2022-05-21T09:12:50.000Z</time>
      </trkpt>
      <trkpt lat="42.86779" lon="1.20024">
        <ele>669.3</ele>
        <time>2022-05-21T09:12:54.000Z</time>
      </trkpt>
      <trkpt lat="42.86774" lon="1.20036">
        <ele>667.2</ele>
        <time>2022-05-21T09:12:57.000Z</time>
      </trkpt>
      <trkpt lat="42.86769" lon="1.20046">
        <ele>664.4</ele>
        <time>2022-05-21T09:13:00.000Z</time>
      </trkpt>
      <trkpt lat="42.86761" lon="1.20055">
        <ele>661.4</ele>
        <time>2022-05-21T09:13:04.000Z</time>
      </trkpt>
      <trkpt lat="42.86754" lon="1.20065">
        <ele>657.1</ele>
        <time>2022-05-21T09:13:09.000Z</time>
      </trkpt>
      <trkpt lat="42.86748" lon="1.20074">
        <ele>654.6</ele>
        <time>2022-05-21T09:13:13.000Z</time>
      </trkpt>
      <trkpt lat="42.8674" lon="1.20083">
        <ele>650.8</ele>
        <time>2022-05-21T09:13:17.000Z</time>
      </trkpt>
      <trkpt lat="42.86734" lon="1.20098">
        <ele>647.8</ele>
        <time>2022-05-21T09:13:21.000Z</time>
      </trkpt>
      <trkpt lat="42.86726" lon="1.20107">
        <ele>645.7</ele>
        <time>2022-05-21T09:13:23.000Z</time>
      </trkpt>
      <trkpt lat="42.86716" lon="1.20116">
        <ele>642.3</ele>
        <time>2022-05-21T09:13:26.000Z</time>
      </trkpt>
      <trkpt lat="42.86705" lon="1.20111">
        <ele>639.9</ele>
        <time>2022-05-21T09:13:29.000Z</time>
      </trkpt>
      <trkpt lat="42.86695" lon="1.20101">
        <ele>638.8</ele>
        <time>2022-05-21T09:13:31.000Z</time>
      </trkpt>
      <trkpt lat="42.86689" lon="1.2009">
        <ele>637.2</ele>
        <time>2022-05-21T09:13:33.000Z</time>
      </trkpt>
      <trkpt lat="42.86681" lon="1.20078">
        <ele>635.1</ele>
        <time>2022-05-21T09:13:35.000Z</time>
      </trkpt>
      <trkpt lat="42.86675" lon="1.20069">
        <ele>633.2</ele>
        <time>2022-05-21T09:13:37.000Z</time>
      </trkpt>
      <trkpt lat="42.86667" lon="1.20061">
        <ele>631.3</ele>
        <time>2022-05-21T09:13:40.000Z</time>
      </trkpt>
      <trkpt lat="42.86659" lon="1.20071">
        <ele>629.3</ele>
        <time>2022-05-21T09:13:43.000Z</time>
      </trkpt>
      <trkpt lat="42.86657" lon="1.20085">
        <ele>627.1</ele>
        <time>2022-05-21T09:13:45.000Z</time>
      </trkpt>
      <trkpt lat="42.86661" lon="1.20098">
        <ele>624.4</ele>
        <time>2022-05-21T09:13:48.000Z</time>
      </trkpt>
      <trkpt lat="42.86664" lon="1.20104">
        <ele>594.2</ele>
        <time>2022-05-21T09:13:52.000Z</time>
      </trkpt>
      <trkpt lat="42.86658" lon="1.20101">
        <ele>609.6</ele>
        <time>2022-05-21T09:14:05.000Z</time>
      </trkpt>
      <trkpt lat="42.86651" lon="1.20093">
        <ele>594.8</ele>
        <time>2022-05-21T09:14:10.000Z</time>
      </trkpt>
      <trkpt lat="42.86639" lon="1.20091">
        <ele>591.9</ele>
        <time>2022-05-21T09:14:15.000Z</time>
      </trkpt>
      <trkpt lat="42.86626" lon="1.20091">
        <ele>587.9</ele>
        <time>2022-05-21T09:14:18.000Z</time>
      </trkpt>
      <trkpt lat="42.86614" lon="1.20092">
        <ele>584.5</ele>
        <time>2022-05-21T09:14:21.000Z</time>
      </trkpt>
      <trkpt lat="42.86606" lon="1.20094">
        <ele>581.4</ele>
        <time>2022-05-21T09:14:24.000Z</time>
      </trkpt>
      <trkpt lat="42.86598" lon="1.20098">
        <ele>577.9</ele>
        <time>2022-05-21T09:14:26.000Z</time>
      </trkpt>
      <trkpt lat="42.86588" lon="1.20105">
        <ele>573.5</ele>
        <time>2022-05-21T09:14:28.000Z</time>
      </trkpt>
      <trkpt lat="42.8658" lon="1.20111">
        <ele>569.9</ele>
        <time>2022-05-21T09:14:30.000Z</time>
      </trkpt>
      <trkpt lat="42.86571" lon="1.20118">
        <ele>566.5</ele>
        <time>2022-05-21T09:14:32.000Z</time>
      </trkpt>
      <trkpt lat="42.8656" lon="1.20127">
        <ele>562</ele>
        <time>2022-05-21T09:14:35.000Z</time>
      </trkpt>
      <trkpt lat="42.86547" lon="1.2013">
        <ele>558.2</ele>
        <time>2022-05-21T09:14:38.000Z</time>
      </trkpt>
      <trkpt lat="42.86535" lon="1.20131">
        <ele>555.5</ele>
        <time>2022-05-21T09:14:40.000Z</time>
      </trkpt>
      <trkpt lat="42.86524" lon="1.20131">
        <ele>552.9</ele>
        <time>2022-05-21T09:14:42.000Z</time>
      </trkpt>
      <trkpt lat="42.86514" lon="1.2013">
        <ele>551</ele>
        <time>2022-05-21T09:14:47.000Z</time>
      </trkpt>
      <trkpt lat="42.86511" lon="1.2013">
        <ele>550.3</ele>
        <time>2022-05-21T09:15:21.000Z</time>
      </trkpt>
      <trkpt lat="42.8651" lon="1.20129">
        <ele>550.1</ele>
        <time>2022-05-21T09:15:22.000Z</time>
      </trkpt>
      <trkpt lat="42.86503" lon="1.20131">
        <ele>548.5</ele>
        <time>2022-05-21T09:15:29.544Z</time>
      </trkpt>
      <trkpt lat="42.86501" lon="1.20144">
        <ele>545.9</ele>
        <time>2022-05-21T09:15:41.000Z</time>
      </trkpt>
      <trkpt lat="42.86492" lon="1.2013">
        <ele>545.6</ele>
        <time>2022-05-21T09:15:50.000Z</time>
      </trkpt>
      <trkpt lat="42.86489" lon="1.20111">
        <ele>539</ele>
        <time>2022-05-21T09:15:56.000Z</time>
      </trkpt>
      <trkpt lat="42.86489" lon="1.201">
        <ele>549.1</ele>
        <time>2022-05-21T09:15:59.506Z</time>
      </trkpt>
      <trkpt lat="42.86493" lon="1.20087">
        <ele>537.1</ele>
        <time>2022-05-21T09:16:04.000Z</time>
      </trkpt>
      <trkpt lat="42.865" lon="1.2008">
        <ele>536.5</ele>
        <time>2022-05-21T09:16:07.000Z</time>
      </trkpt>
      <trkpt lat="42.86509" lon="1.20076">
        <ele>536.2</ele>
        <time>2022-05-21T09:16:10.000Z</time>
      </trkpt>
      <trkpt lat="42.86518" lon="1.20067">
        <ele>536.2</ele>
        <time>2022-05-21T09:16:14.000Z</time>
      </trkpt>
      <trkpt lat="42.86528" lon="1.20062">
        <ele>536.1</ele>
        <time>2022-05-21T09:16:17.000Z</time>
      </trkpt>
      <trkpt lat="42.86541" lon="1.20056">
        <ele>535.9</ele>
        <time>2022-05-21T09:16:20.000Z</time>
      </trkpt>
      <trkpt lat="42.86549" lon="1.20049">
        <ele>535.8</ele>
        <time>2022-05-21T09:16:22.000Z</time>
      </trkpt>
      <trkpt lat="42.86555" lon="1.20036">
        <ele>535.7</ele>
        <time>2022-05-21T09:16:24.000Z</time>
      </trkpt>
      <trkpt lat="42.86558" lon="1.20023">
        <ele>536.2</ele>
        <time>2022-05-21T09:16:26.000Z</time>
      </trkpt>
      <trkpt lat="42.86563" lon="1.20009">
        <ele>535.9</ele>
        <time>2022-05-21T09:16:28.000Z</time>
      </trkpt>
      <trkpt lat="42.86572" lon="1.19995">
        <ele>535.5</ele>
        <time>2022-05-21T09:16:30.000Z</time>
      </trkpt>
      <trkpt lat="42.86579" lon="1.19982">
        <ele>535.6</ele>
        <time>2022-05-21T09:16:32.000Z</time>
      </trkpt>
      <trkpt lat="42.86582" lon="1.19969">
        <ele>536.1</ele>
        <time>2022-05-21T09:16:34.000Z</time>
      </trkpt>
      <trkpt lat="42.86578" lon="1.19956">
        <ele>536.4</ele>
        <time>2022-05-21T09:16:37.000Z</time>
      </trkpt>
      <trkpt lat="42.86567" lon="1.19951">
        <ele>536.3</ele>
        <time>2022-05-21T09:16:40.000Z</time>
      </trkpt>
      <trkpt lat="42.86557" lon="1.19951">
        <ele>536</ele>
        <time>2022-05-21T09:16:42.000Z</time>
      </trkpt>
      <trkpt lat="42.86545" lon="1.19949">
        <ele>535.5</ele>
        <time>2022-05-21T09:16:45.000Z</time>
      </trkpt>
      <trkpt lat="42.86535" lon="1.19949">
        <ele>534.3</ele>
        <time>2022-05-21T09:16:49.000Z</time>
      </trkpt>
      <trkpt lat="42.86534" lon="1.19949">
        <ele>533.9</ele>
        <time>2022-05-21T09:16:52.000Z</time>
      </trkpt>
      <trkpt lat="42.86533" lon="1.1995">
        <ele>525.1</ele>
        <time>2022-05-21T09:17:33.000Z</time>
      </trkpt>
      <trkpt lat="42.86526" lon="1.19961">
        <ele>523.3</ele>
        <time>2022-05-21T09:17:38.000Z</time>
      </trkpt>
      <trkpt lat="42.8652" lon="1.19977">
        <ele>522.7</ele>
        <time>2022-05-21T09:17:41.000Z</time>
      </trkpt>
      <trkpt lat="42.86513" lon="1.19989">
        <ele>522.5</ele>
        <time>2022-05-21T09:17:43.000Z</time>
      </trkpt>
      <trkpt lat="42.86506" lon="1.20003">
        <ele>521.8</ele>
        <time>2022-05-21T09:17:45.000Z</time>
      </trkpt>
      <trkpt lat="42.86497" lon="1.20018">
        <ele>521.8</ele>
        <time>2022-05-21T09:17:47.000Z</time>
      </trkpt>
      <trkpt lat="42.86489" lon="1.20034">
        <ele>521.9</ele>
        <time>2022-05-21T09:17:49.000Z</time>
      </trkpt>
      <trkpt lat="42.8648" lon="1.2005">
        <ele>522</ele>
        <time>2022-05-21T09:17:51.000Z</time>
      </trkpt>
      <trkpt lat="42.86471" lon="1.20063">
        <ele>522.1</ele>
        <time>2022-05-21T09:17:53.000Z</time>
      </trkpt>
      <trkpt lat="42.86464" lon="1.20075">
        <ele>522.1</ele>
        <time>2022-05-21T09:17:55.000Z</time>
      </trkpt>
      <trkpt lat="42.86458" lon="1.20084">
        <ele>522.3</ele>
        <time>2022-05-21T09:17:57.000Z</time>
      </trkpt>
      <trkpt lat="42.86449" lon="1.20095">
        <ele>523</ele>
        <time>2022-05-21T09:18:00.000Z</time>
      </trkpt>
      <trkpt lat="42.86442" lon="1.20105">
        <ele>523.5</ele>
        <time>2022-05-21T09:18:03.000Z</time>
      </trkpt>
      <trkpt lat="42.86434" lon="1.20116">
        <ele>523.9</ele>
        <time>2022-05-21T09:18:06.000Z</time>
      </trkpt>
      <trkpt lat="42.8643" lon="1.20129">
        <ele>524</ele>
        <time>2022-05-21T09:18:09.000Z</time>
      </trkpt>
      <trkpt lat="42.86433" lon="1.2014">
        <ele>525.6</ele>
        <time>2022-05-21T09:18:14.000Z</time>
      </trkpt>
      <trkpt lat="42.86442" lon="1.20146">
        <ele>525.7</ele>
        <time>2022-05-21T09:18:17.000Z</time>
      </trkpt>
      <trkpt lat="42.86453" lon="1.20151">
        <ele>526.7</ele>
        <time>2022-05-21T09:18:21.000Z</time>
      </trkpt>
      <trkpt lat="42.86462" lon="1.20159">
        <ele>527.5</ele>
        <time>2022-05-21T09:18:26.000Z</time>
      </trkpt>
      <trkpt lat="42.86471" lon="1.20164">
        <ele>528.2</ele>
        <time>2022-05-21T09:18:30.000Z</time>
      </trkpt>
      <trkpt lat="42.8648" lon="1.20171">
        <ele>529</ele>
        <time>2022-05-21T09:18:33.000Z</time>
      </trkpt>
      <trkpt lat="42.8649" lon="1.20178">
        <ele>529.4</ele>
        <time>2022-05-21T09:18:36.000Z</time>
      </trkpt>
      <trkpt lat="42.86502" lon="1.20183">
        <ele>530.1</ele>
        <time>2022-05-21T09:18:39.000Z</time>
      </trkpt>
      <trkpt lat="42.86512" lon="1.20191">
        <ele>530.6</ele>
        <time>2022-05-21T09:18:42.000Z</time>
      </trkpt>
      <trkpt lat="42.8652" lon="1.20197">
        <ele>531.1</ele>
        <time>2022-05-21T09:18:45.000Z</time>
      </trkpt>
      <trkpt lat="42.86528" lon="1.20203">
        <ele>531.6</ele>
        <time>2022-05-21T09:18:48.000Z</time>
      </trkpt>
      <trkpt lat="42.86539" lon="1.20209">
        <ele>532.1</ele>
        <time>2022-05-21T09:18:51.000Z</time>
      </trkpt>
      <trkpt lat="42.8655" lon="1.20216">
        <ele>533</ele>
        <time>2022-05-21T09:18:54.000Z</time>
      </trkpt>
      <trkpt lat="42.86562" lon="1.20223">
        <ele>533</ele>
        <time>2022-05-21T09:18:57.000Z</time>
      </trkpt>
      <trkpt lat="42.86574" lon="1.20229">
        <ele>533.2</ele>
        <time>2022-05-21T09:19:00.000Z</time>
      </trkpt>
      <trkpt lat="42.86583" lon="1.20234">
        <ele>533.6</ele>
        <time>2022-05-21T09:19:02.000Z</time>
      </trkpt>
      <trkpt lat="42.86592" lon="1.20237">
        <ele>533.4</ele>
        <time>2022-05-21T09:19:04.000Z</time>
      </trkpt>
      <trkpt lat="42.86602" lon="1.20241">
        <ele>533.4</ele>
        <time>2022-05-21T09:19:06.000Z</time>
      </trkpt>
      <trkpt lat="42.86612" lon="1.20246">
        <ele>533.7</ele>
        <time>2022-05-21T09:19:08.000Z</time>
      </trkpt>
      <trkpt lat="42.86622" lon="1.2025">
        <ele>533.8</ele>
        <time>2022-05-21T09:19:10.000Z</time>
      </trkpt>
      <trkpt lat="42.86632" lon="1.20256">
        <ele>533.8</ele>
        <time>2022-05-21T09:19:12.000Z</time>
      </trkpt>
      <trkpt lat="42.86642" lon="1.20262">
        <ele>533.3</ele>
        <time>2022-05-21T09:19:14.000Z</time>
      </trkpt>
      <trkpt lat="42.86653" lon="1.20268">
        <ele>533.1</ele>
        <time>2022-05-21T09:19:16.000Z</time>
      </trkpt>
      <trkpt lat="42.86663" lon="1.20274">
        <ele>533.2</ele>
        <time>2022-05-21T09:19:18.000Z</time>
      </trkpt>
      <trkpt lat="42.86674" lon="1.2028">
        <ele>532.6</ele>
        <time>2022-05-21T09:19:20.000Z</time>
      </trkpt>
      <trkpt lat="42.86684" lon="1.20286">
        <ele>532.5</ele>
        <time>2022-05-21T09:19:22.000Z</time>
      </trkpt>
      <trkpt lat="42.86694" lon="1.20292">
        <ele>532.1</ele>
        <time>2022-05-21T09:19:24.000Z</time>
      </trkpt>
      <trkpt lat="42.86705" lon="1.20298">
        <ele>532</ele>
        <time>2022-05-21T09:19:26.000Z</time>
      </trkpt>
      <trkpt lat="42.86716" lon="1.20303">
        <ele>531.9</ele>
        <time>2022-05-21T09:19:28.000Z</time>
      </trkpt>
      <trkpt lat="42.86726" lon="1.2031">
        <ele>531.2</ele>
        <time>2022-05-21T09:19:30.000Z</time>
      </trkpt>
      <trkpt lat="42.86736" lon="1.20316">
        <ele>531.1</ele>
        <time>2022-05-21T09:19:32.000Z</time>
      </trkpt>
      <trkpt lat="42.86745" lon="1.20321">
        <ele>530.7</ele>
        <time>2022-05-21T09:19:34.000Z</time>
      </trkpt>
      <trkpt lat="42.86755" lon="1.20326">
        <ele>530.5</ele>
        <time>2022-05-21T09:19:36.000Z</time>
      </trkpt>
      <trkpt lat="42.86763" lon="1.20331">
        <ele>529.9</ele>
        <time>2022-05-21T09:19:38.000Z</time>
      </trkpt>
      <trkpt lat="42.86773" lon="1.20336">
        <ele>529.7</ele>
        <time>2022-05-21T09:19:40.000Z</time>
      </trkpt>
      <trkpt lat="42.86783" lon="1.20341">
        <ele>529.2</ele>
        <time>2022-05-21T09:19:42.000Z</time>
      </trkpt>
      <trkpt lat="42.86792" lon="1.20347">
        <ele>528.8</ele>
        <time>2022-05-21T09:19:44.000Z</time>
      </trkpt>
      <trkpt lat="42.86802" lon="1.20352">
        <ele>528.7</ele>
        <time>2022-05-21T09:19:46.000Z</time>
      </trkpt>
      <trkpt lat="42.86811" lon="1.20357">
        <ele>528.2</ele>
        <time>2022-05-21T09:19:48.000Z</time>
      </trkpt>
      <trkpt lat="42.86821" lon="1.20362">
        <ele>527.9</ele>
        <time>2022-05-21T09:19:50.000Z</time>
      </trkpt>
      <trkpt lat="42.86831" lon="1.20368">
        <ele>528</ele>
        <time>2022-05-21T09:19:52.000Z</time>
      </trkpt>
      <trkpt lat="42.8684" lon="1.20374">
        <ele>527.1</ele>
        <time>2022-05-21T09:19:54.000Z</time>
      </trkpt>
      <trkpt lat="42.8685" lon="1.2038">
        <ele>526.8</ele>
        <time>2022-05-21T09:19:56.000Z</time>
      </trkpt>
      <trkpt lat="42.86859" lon="1.20386">
        <ele>526.8</ele>
        <time>2022-05-21T09:19:58.000Z</time>
      </trkpt>
      <trkpt lat="42.86869" lon="1.20392">
        <ele>526.2</ele>
        <time>2022-05-21T09:20:00.000Z</time>
      </trkpt>
      <trkpt lat="42.86879" lon="1.20398">
        <ele>526.5</ele>
        <time>2022-05-21T09:20:02.000Z</time>
      </trkpt>
      <trkpt lat="42.86889" lon="1.20404">
        <ele>526.6</ele>
        <time>2022-05-21T09:20:04.000Z</time>
      </trkpt>
      <trkpt lat="42.86899" lon="1.2041">
        <ele>526</ele>
        <time>2022-05-21T09:20:06.000Z</time>
      </trkpt>
      <trkpt lat="42.86909" lon="1.20415">
        <ele>526</ele>
        <time>2022-05-21T09:20:08.000Z</time>
      </trkpt>
      <trkpt lat="42.86918" lon="1.20421">
        <ele>525.8</ele>
        <time>2022-05-21T09:20:10.000Z</time>
      </trkpt>
      <trkpt lat="42.86928" lon="1.20426">
        <ele>525.5</ele>
        <time>2022-05-21T09:20:12.000Z</time>
      </trkpt>
      <trkpt lat="42.86937" lon="1.20431">
        <ele>525.3</ele>
        <time>2022-05-21T09:20:14.000Z</time>
      </trkpt>
      <trkpt lat="42.86946" lon="1.20436">
        <ele>524.9</ele>
        <time>2022-05-21T09:20:16.000Z</time>
      </trkpt>
      <trkpt lat="42.86954" lon="1.20441">
        <ele>524.8</ele>
        <time>2022-05-21T09:20:18.000Z</time>
      </trkpt>
      <trkpt lat="42.86966" lon="1.20447">
        <ele>524.7</ele>
        <time>2022-05-21T09:20:21.000Z</time>
      </trkpt>
      <trkpt lat="42.86977" lon="1.20451">
        <ele>524.2</ele>
        <time>2022-05-21T09:20:24.000Z</time>
      </trkpt>
      <trkpt lat="42.86988" lon="1.20453">
        <ele>524</ele>
        <time>2022-05-21T09:20:27.000Z</time>
      </trkpt>
      <trkpt lat="42.86997" lon="1.20447">
        <ele>523.9</ele>
        <time>2022-05-21T09:20:30.000Z</time>
      </trkpt>
      <trkpt lat="42.87006" lon="1.20439">
        <ele>523.4</ele>
        <time>2022-05-21T09:20:34.000Z</time>
      </trkpt>
      <trkpt lat="42.87015" lon="1.20431">
        <ele>522.9</ele>
        <time>2022-05-21T09:20:38.000Z</time>
      </trkpt>
      <trkpt lat="42.87024" lon="1.20423">
        <ele>522.1</ele>
        <time>2022-05-21T09:20:41.000Z</time>
      </trkpt>
      <trkpt lat="42.87033" lon="1.20415">
        <ele>521.5</ele>
        <time>2022-05-21T09:20:44.000Z</time>
      </trkpt>
      <trkpt lat="42.87043" lon="1.20409">
        <ele>521.5</ele>
        <time>2022-05-21T09:20:47.000Z</time>
      </trkpt>
      <trkpt lat="42.87054" lon="1.20403">
        <ele>521.3</ele>
        <time>2022-05-21T09:20:50.000Z</time>
      </trkpt>
      <trkpt lat="42.87064" lon="1.20397">
        <ele>521.4</ele>
        <time>2022-05-21T09:20:53.000Z</time>
      </trkpt>
      <trkpt lat="42.87075" lon="1.20393">
        <ele>521.3</ele>
        <time>2022-05-21T09:20:56.000Z</time>
      </trkpt>
      <trkpt lat="42.87085" lon="1.20392">
        <ele>521.8</ele>
        <time>2022-05-21T09:20:59.000Z</time>
      </trkpt>
      <trkpt lat="42.87097" lon="1.20393">
        <ele>521.9</ele>
        <time>2022-05-21T09:21:02.000Z</time>
      </trkpt>
      <trkpt lat="42.87107" lon="1.20397">
        <ele>522.1</ele>
        <time>2022-05-21T09:21:05.000Z</time>
      </trkpt>
      <trkpt lat="42.87117" lon="1.20404">
        <ele>522.5</ele>
        <time>2022-05-21T09:21:08.000Z</time>
      </trkpt>
      <trkpt lat="42.87127" lon="1.20409">
        <ele>523.3</ele>
        <time>2022-05-21T09:21:11.000Z</time>
      </trkpt>
      <trkpt lat="42.87136" lon="1.20416">
        <ele>523.6</ele>
        <time>2022-05-21T09:21:14.000Z</time>
      </trkpt>
      <trkpt lat="42.87147" lon="1.20421">
        <ele>524.1</ele>
        <time>2022-05-21T09:21:17.000Z</time>
      </trkpt>
      <trkpt lat="42.87159" lon="1.20427">
        <ele>524.7</ele>
        <time>2022-05-21T09:21:20.000Z</time>
      </trkpt>
      <trkpt lat="42.87171" lon="1.20433">
        <ele>525</ele>
        <time>2022-05-21T09:21:23.000Z</time>
      </trkpt>
      <trkpt lat="42.87183" lon="1.20439">
        <ele>525.4</ele>
        <time>2022-05-21T09:21:26.000Z</time>
      </trkpt>
      <trkpt lat="42.87191" lon="1.20443">
        <ele>525.7</ele>
        <time>2022-05-21T09:21:28.000Z</time>
      </trkpt>
      <trkpt lat="42.87201" lon="1.20446">
        <ele>526</ele>
        <time>2022-05-21T09:21:30.000Z</time>
      </trkpt>
      <trkpt lat="42.87212" lon="1.20449">
        <ele>526.1</ele>
        <time>2022-05-21T09:21:32.000Z</time>
      </trkpt>
      <trkpt lat="42.87224" lon="1.20451">
        <ele>526</ele>
        <time>2022-05-21T09:21:34.000Z</time>
      </trkpt>
      <trkpt lat="42.87236" lon="1.20454">
        <ele>526.4</ele>
        <time>2022-05-21T09:21:36.000Z</time>
      </trkpt>
      <trkpt lat="42.87247" lon="1.20458">
        <ele>526.4</ele>
        <time>2022-05-21T09:21:38.000Z</time>
      </trkpt>
      <trkpt lat="42.87257" lon="1.20463">
        <ele>526.6</ele>
        <time>2022-05-21T09:21:40.000Z</time>
      </trkpt>
      <trkpt lat="42.87266" lon="1.20469">
        <ele>527</ele>
        <time>2022-05-21T09:21:42.000Z</time>
      </trkpt>
      <trkpt lat="42.87277" lon="1.20476">
        <ele>527.7</ele>
        <time>2022-05-21T09:21:45.000Z</time>
      </trkpt>
      <trkpt lat="42.87288" lon="1.20484">
        <ele>528.6</ele>
        <time>2022-05-21T09:21:48.000Z</time>
      </trkpt>
      <trkpt lat="42.87299" lon="1.20491">
        <ele>529.4</ele>
        <time>2022-05-21T09:21:51.000Z</time>
      </trkpt>
      <trkpt lat="42.8731" lon="1.20499">
        <ele>530.6</ele>
        <time>2022-05-21T09:21:54.000Z</time>
      </trkpt>
      <trkpt lat="42.87318" lon="1.20505">
        <ele>531.1</ele>
        <time>2022-05-21T09:21:56.000Z</time>
      </trkpt>
      <trkpt lat="42.87328" lon="1.2051">
        <ele>531.7</ele>
        <time>2022-05-21T09:21:58.000Z</time>
      </trkpt>
      <trkpt lat="42.87338" lon="1.20515">
        <ele>532.4</ele>
        <time>2022-05-21T09:22:00.000Z</time>
      </trkpt>
      <trkpt lat="42.8735" lon="1.20519">
        <ele>532.9</ele>
        <time>2022-05-21T09:22:02.000Z</time>
      </trkpt>
      <trkpt lat="42.87362" lon="1.20524">
        <ele>533.2</ele>
        <time>2022-05-21T09:22:04.000Z</time>
      </trkpt>
      <trkpt lat="42.87375" lon="1.20529">
        <ele>533.3</ele>
        <time>2022-05-21T09:22:06.000Z</time>
      </trkpt>
      <trkpt lat="42.87387" lon="1.20534">
        <ele>533.6</ele>
        <time>2022-05-21T09:22:08.000Z</time>
      </trkpt>
      <trkpt lat="42.87399" lon="1.20539">
        <ele>534.1</ele>
        <time>2022-05-21T09:22:10.000Z</time>
      </trkpt>
      <trkpt lat="42.8741" lon="1.20543">
        <ele>534.4</ele>
        <time>2022-05-21T09:22:12.000Z</time>
      </trkpt>
      <trkpt lat="42.87421" lon="1.20547">
        <ele>534.5</ele>
        <time>2022-05-21T09:22:14.000Z</time>
      </trkpt>
      <trkpt lat="42.87432" lon="1.20552">
        <ele>534.7</ele>
        <time>2022-05-21T09:22:16.000Z</time>
      </trkpt>
      <trkpt lat="42.87443" lon="1.20557">
        <ele>535</ele>
        <time>2022-05-21T09:22:18.000Z</time>
      </trkpt>
      <trkpt lat="42.87453" lon="1.20562">
        <ele>535.6</ele>
        <time>2022-05-21T09:22:20.000Z</time>
      </trkpt>
      <trkpt lat="42.87462" lon="1.20567">
        <ele>535.7</ele>
        <time>2022-05-21T09:22:22.000Z</time>
      </trkpt>
      <trkpt lat="42.87472" lon="1.20571">
        <ele>535.8</ele>
        <time>2022-05-21T09:22:24.000Z</time>
      </trkpt>
      <trkpt lat="42.87481" lon="1.20576">
        <ele>536</ele>
        <time>2022-05-21T09:22:26.000Z</time>
      </trkpt>
      <trkpt lat="42.8749" lon="1.20581">
        <ele>535.7</ele>
        <time>2022-05-21T09:22:28.000Z</time>
      </trkpt>
      <trkpt lat="42.87499" lon="1.20586">
        <ele>536</ele>
        <time>2022-05-21T09:22:30.000Z</time>
      </trkpt>
      <trkpt lat="42.87507" lon="1.20591">
        <ele>535.9</ele>
        <time>2022-05-21T09:22:32.000Z</time>
      </trkpt>
      <trkpt lat="42.87517" lon="1.20594">
        <ele>536</ele>
        <time>2022-05-21T09:22:34.000Z</time>
      </trkpt>
      <trkpt lat="42.87526" lon="1.20598">
        <ele>535.9</ele>
        <time>2022-05-21T09:22:36.000Z</time>
      </trkpt>
      <trkpt lat="42.87535" lon="1.20602">
        <ele>535.5</ele>
        <time>2022-05-21T09:22:38.000Z</time>
      </trkpt>
      <trkpt lat="42.87544" lon="1.20606">
        <ele>535.2</ele>
        <time>2022-05-21T09:22:40.000Z</time>
      </trkpt>
      <trkpt lat="42.87553" lon="1.2061">
        <ele>535.3</ele>
        <time>2022-05-21T09:22:42.000Z</time>
      </trkpt>
      <trkpt lat="42.87562" lon="1.20615">
        <ele>535</ele>
        <time>2022-05-21T09:22:44.000Z</time>
      </trkpt>
      <trkpt lat="42.87572" lon="1.20619">
        <ele>534.8</ele>
        <time>2022-05-21T09:22:46.000Z</time>
      </trkpt>
      <trkpt lat="42.87582" lon="1.20624">
        <ele>535</ele>
        <time>2022-05-21T09:22:48.000Z</time>
      </trkpt>
      <trkpt lat="42.87593" lon="1.20629">
        <ele>535</ele>
        <time>2022-05-21T09:22:50.000Z</time>
      </trkpt>
      <trkpt lat="42.87603" lon="1.20633">
        <ele>534.5</ele>
        <time>2022-05-21T09:22:52.000Z</time>
      </trkpt>
      <trkpt lat="42.87614" lon="1.20638">
        <ele>534.5</ele>
        <time>2022-05-21T09:22:54.000Z</time>
      </trkpt>
      <trkpt lat="42.87625" lon="1.20644">
        <ele>534.4</ele>
        <time>2022-05-21T09:22:56.000Z</time>
      </trkpt>
      <trkpt lat="42.87636" lon="1.20649">
        <ele>534.5</ele>
        <time>2022-05-21T09:22:58.000Z</time>
      </trkpt>
      <trkpt lat="42.87648" lon="1.20654">
        <ele>534.2</ele>
        <time>2022-05-21T09:23:00.000Z</time>
      </trkpt>
      <trkpt lat="42.87659" lon="1.2066">
        <ele>534.1</ele>
        <time>2022-05-21T09:23:02.000Z</time>
      </trkpt>
      <trkpt lat="42.8767" lon="1.20666">
        <ele>534.4</ele>
        <time>2022-05-21T09:23:04.000Z</time>
      </trkpt>
      <trkpt lat="42.87682" lon="1.20671">
        <ele>534.1</ele>
        <time>2022-05-21T09:23:06.000Z</time>
      </trkpt>
      <trkpt lat="42.87693" lon="1.20677">
        <ele>533.9</ele>
        <time>2022-05-21T09:23:08.000Z</time>
      </trkpt>
      <trkpt lat="42.87705" lon="1.20683">
        <ele>534.3</ele>
        <time>2022-05-21T09:23:10.000Z</time>
      </trkpt>
      <trkpt lat="42.87717" lon="1.20689">
        <ele>534</ele>
        <time>2022-05-21T09:23:12.000Z</time>
      </trkpt>
      <trkpt lat="42.8773" lon="1.20694">
        <ele>533.7</ele>
        <time>2022-05-21T09:23:14.000Z</time>
      </trkpt>
      <trkpt lat="42.87744" lon="1.20695">
        <ele>533.8</ele>
        <time>2022-05-21T09:23:16.000Z</time>
      </trkpt>
      <trkpt lat="42.8776" lon="1.20689">
        <ele>533.8</ele>
        <time>2022-05-21T09:23:18.000Z</time>
      </trkpt>
      <trkpt lat="42.87776" lon="1.20682">
        <ele>533</ele>
        <time>2022-05-21T09:23:20.000Z</time>
      </trkpt>
      <trkpt lat="42.87785" lon="1.2068">
        <ele>532.5</ele>
        <time>2022-05-21T09:23:21.000Z</time>
      </trkpt>
      <trkpt lat="42.87794" lon="1.20682">
        <ele>532.3</ele>
        <time>2022-05-21T09:23:22.000Z</time>
      </trkpt>
      <trkpt lat="42.87803" lon="1.20686">
        <ele>532.3</ele>
        <time>2022-05-21T09:23:23.000Z</time>
      </trkpt>
      <trkpt lat="42.87818" lon="1.20694">
        <ele>533.3</ele>
        <time>2022-05-21T09:23:25.000Z</time>
      </trkpt>
      <trkpt lat="42.87828" lon="1.20702">
        <ele>533.4</ele>
        <time>2022-05-21T09:23:27.000Z</time>
      </trkpt>
      <trkpt lat="42.87837" lon="1.2071">
        <ele>534.3</ele>
        <time>2022-05-21T09:23:29.000Z</time>
      </trkpt>
      <trkpt lat="42.87844" lon="1.20718">
        <ele>534.2</ele>
        <time>2022-05-21T09:23:31.000Z</time>
      </trkpt>
      <trkpt lat="42.87852" lon="1.20725">
        <ele>534.3</ele>
        <time>2022-05-21T09:23:33.000Z</time>
      </trkpt>
      <trkpt lat="42.87863" lon="1.20734">
        <ele>534.5</ele>
        <time>2022-05-21T09:23:36.000Z</time>
      </trkpt>
      <trkpt lat="42.87874" lon="1.2074">
        <ele>534.8</ele>
        <time>2022-05-21T09:23:39.000Z</time>
      </trkpt>
      <trkpt lat="42.87886" lon="1.20746">
        <ele>535.1</ele>
        <time>2022-05-21T09:23:42.000Z</time>
      </trkpt>
      <trkpt lat="42.87895" lon="1.20749">
        <ele>535</ele>
        <time>2022-05-21T09:23:44.000Z</time>
      </trkpt>
      <trkpt lat="42.87905" lon="1.20751">
        <ele>534.7</ele>
        <time>2022-05-21T09:23:46.000Z</time>
      </trkpt>
      <trkpt lat="42.87915" lon="1.20752">
        <ele>534.5</ele>
        <time>2022-05-21T09:23:48.000Z</time>
      </trkpt>
      <trkpt lat="42.87925" lon="1.20754">
        <ele>534.4</ele>
        <time>2022-05-21T09:23:50.000Z</time>
      </trkpt>
      <trkpt lat="42.87937" lon="1.20756">
        <ele>534.3</ele>
        <time>2022-05-21T09:23:53.000Z</time>
      </trkpt>
      <trkpt lat="42.87949" lon="1.20757">
        <ele>533.8</ele>
        <time>2022-05-21T09:23:56.000Z</time>
      </trkpt>
      <trkpt lat="42.87959" lon="1.20757">
        <ele>534.1</ele>
        <time>2022-05-21T09:24:02.000Z</time>
      </trkpt>
      <trkpt lat="42.87963" lon="1.20758">
        <ele>534</ele>
        <time>2022-05-21T09:24:06.000Z</time>
      </trkpt>
      <trkpt lat="42.87964" lon="1.20758">
        <ele>527.9</ele>
        <time>2022-05-21T09:24:29.000Z</time>
      </trkpt>
      <trkpt lat="42.87974" lon="1.20756">
        <ele>526.5</ele>
        <time>2022-05-21T09:24:35.000Z</time>
      </trkpt>
      <trkpt lat="42.87985" lon="1.20756">
        <ele>524.6</ele>
        <time>2022-05-21T09:24:39.000Z</time>
      </trkpt>
      <trkpt lat="42.87995" lon="1.20756">
        <ele>523.7</ele>
        <time>2022-05-21T09:24:42.000Z</time>
      </trkpt>
      <trkpt lat="42.88007" lon="1.20754">
        <ele>523.5</ele>
        <time>2022-05-21T09:24:45.000Z</time>
      </trkpt>
      <trkpt lat="42.88016" lon="1.20753">
        <ele>523</ele>
        <time>2022-05-21T09:24:47.000Z</time>
      </trkpt>
      <trkpt lat="42.88027" lon="1.20752">
        <ele>522.3</ele>
        <time>2022-05-21T09:24:49.000Z</time>
      </trkpt>
      <trkpt lat="42.88038" lon="1.20752">
        <ele>522.2</ele>
        <time>2022-05-21T09:24:51.000Z</time>
      </trkpt>
      <trkpt lat="42.8805" lon="1.20752">
        <ele>522</ele>
        <time>2022-05-21T09:24:53.000Z</time>
      </trkpt>
      <trkpt lat="42.88064" lon="1.20752">
        <ele>521.3</ele>
        <time>2022-05-21T09:24:55.000Z</time>
      </trkpt>
      <trkpt lat="42.88077" lon="1.20753">
        <ele>521</ele>
        <time>2022-05-21T09:24:57.000Z</time>
      </trkpt>
      <trkpt lat="42.88089" lon="1.20753">
        <ele>520.9</ele>
        <time>2022-05-21T09:24:59.000Z</time>
      </trkpt>
      <trkpt lat="42.881" lon="1.20759">
        <ele>520.9</ele>
        <time>2022-05-21T09:25:02.000Z</time>
      </trkpt>
      <trkpt lat="42.88107" lon="1.20767">
        <ele>520.7</ele>
        <time>2022-05-21T09:25:05.000Z</time>
      </trkpt>
      <trkpt lat="42.88119" lon="1.20769">
        <ele>520.7</ele>
        <time>2022-05-21T09:25:09.000Z</time>
      </trkpt>
      <trkpt lat="42.88129" lon="1.20774">
        <ele>520.7</ele>
        <time>2022-05-21T09:25:12.000Z</time>
      </trkpt>
      <trkpt lat="42.88139" lon="1.2078">
        <ele>520.1</ele>
        <time>2022-05-21T09:25:15.000Z</time>
      </trkpt>
      <trkpt lat="42.88148" lon="1.20788">
        <ele>520.2</ele>
        <time>2022-05-21T09:25:18.000Z</time>
      </trkpt>
      <trkpt lat="42.88156" lon="1.20798">
        <ele>520.5</ele>
        <time>2022-05-21T09:25:21.000Z</time>
      </trkpt>
      <trkpt lat="42.88164" lon="1.20808">
        <ele>520.6</ele>
        <time>2022-05-21T09:25:24.000Z</time>
      </trkpt>
      <trkpt lat="42.88172" lon="1.20818">
        <ele>520.7</ele>
        <time>2022-05-21T09:25:27.000Z</time>
      </trkpt>
      <trkpt lat="42.88181" lon="1.20828">
        <ele>520.9</ele>
        <time>2022-05-21T09:25:30.000Z</time>
      </trkpt>
      <trkpt lat="42.88188" lon="1.20838">
        <ele>520.8</ele>
        <time>2022-05-21T09:25:33.000Z</time>
      </trkpt>
      <trkpt lat="42.88196" lon="1.20846">
        <ele>520.8</ele>
        <time>2022-05-21T09:25:36.000Z</time>
      </trkpt>
      <trkpt lat="42.88206" lon="1.20855">
        <ele>521</ele>
        <time>2022-05-21T09:25:39.000Z</time>
      </trkpt>
      <trkpt lat="42.88218" lon="1.20861">
        <ele>520.8</ele>
        <time>2022-05-21T09:25:42.000Z</time>
      </trkpt>
      <trkpt lat="42.88226" lon="1.20865">
        <ele>520.9</ele>
        <time>2022-05-21T09:25:44.000Z</time>
      </trkpt>
      <trkpt lat="42.88237" lon="1.20868">
        <ele>521.1</ele>
        <time>2022-05-21T09:25:46.000Z</time>
      </trkpt>
      <trkpt lat="42.88247" lon="1.20871">
        <ele>521.2</ele>
        <time>2022-05-21T09:25:48.000Z</time>
      </trkpt>
      <trkpt lat="42.88258" lon="1.20874">
        <ele>521.3</ele>
        <time>2022-05-21T09:25:50.000Z</time>
      </trkpt>
      <trkpt lat="42.88269" lon="1.20879">
        <ele>521</ele>
        <time>2022-05-21T09:25:52.000Z</time>
      </trkpt>
      <trkpt lat="42.8828" lon="1.20885">
        <ele>521.4</ele>
        <time>2022-05-21T09:25:54.000Z</time>
      </trkpt>
      <trkpt lat="42.8829" lon="1.20893">
        <ele>521.4</ele>
        <time>2022-05-21T09:25:56.000Z</time>
      </trkpt>
      <trkpt lat="42.883" lon="1.20902">
        <ele>521.5</ele>
        <time>2022-05-21T09:25:58.000Z</time>
      </trkpt>
      <trkpt lat="42.8831" lon="1.20912">
        <ele>521.5</ele>
        <time>2022-05-21T09:26:00.000Z</time>
      </trkpt>
      <trkpt lat="42.88319" lon="1.20922">
        <ele>521.8</ele>
        <time>2022-05-21T09:26:02.000Z</time>
      </trkpt>
      <trkpt lat="42.88329" lon="1.20932">
        <ele>521.9</ele>
        <time>2022-05-21T09:26:04.000Z</time>
      </trkpt>
      <trkpt lat="42.88339" lon="1.20942">
        <ele>522.3</ele>
        <time>2022-05-21T09:26:06.000Z</time>
      </trkpt>
      <trkpt lat="42.8835" lon="1.20952">
        <ele>522.5</ele>
        <time>2022-05-21T09:26:08.000Z</time>
      </trkpt>
      <trkpt lat="42.8836" lon="1.20963">
        <ele>523</ele>
        <time>2022-05-21T09:26:10.000Z</time>
      </trkpt>
      <trkpt lat="42.88371" lon="1.20973">
        <ele>523.3</ele>
        <time>2022-05-21T09:26:12.000Z</time>
      </trkpt>
      <trkpt lat="42.88382" lon="1.20982">
        <ele>523.4</ele>
        <time>2022-05-21T09:26:14.000Z</time>
      </trkpt>
      <trkpt lat="42.88393" lon="1.20992">
        <ele>523.6</ele>
        <time>2022-05-21T09:26:16.000Z</time>
      </trkpt>
      <trkpt lat="42.88404" lon="1.21003">
        <ele>523.7</ele>
        <time>2022-05-21T09:26:18.000Z</time>
      </trkpt>
      <trkpt lat="42.88415" lon="1.21015">
        <ele>523.5</ele>
        <time>2022-05-21T09:26:20.000Z</time>
      </trkpt>
      <trkpt lat="42.88425" lon="1.21028">
        <ele>523.8</ele>
        <time>2022-05-21T09:26:22.000Z</time>
      </trkpt>
      <trkpt lat="42.88435" lon="1.2104">
        <ele>523.8</ele>
        <time>2022-05-21T09:26:24.000Z</time>
      </trkpt>
      <trkpt lat="42.88447" lon="1.21049">
        <ele>523.8</ele>
        <time>2022-05-21T09:26:26.000Z</time>
      </trkpt>
      <trkpt lat="42.8846" lon="1.21054">
        <ele>523.8</ele>
        <time>2022-05-21T09:26:28.000Z</time>
      </trkpt>
      <trkpt lat="42.88474" lon="1.21059">
        <ele>524.2</ele>
        <time>2022-05-21T09:26:30.000Z</time>
      </trkpt>
      <trkpt lat="42.88487" lon="1.21063">
        <ele>524.2</ele>
        <time>2022-05-21T09:26:32.000Z</time>
      </trkpt>
      <trkpt lat="42.885" lon="1.21068">
        <ele>524.1</ele>
        <time>2022-05-21T09:26:34.000Z</time>
      </trkpt>
      <trkpt lat="42.88513" lon="1.21073">
        <ele>524.3</ele>
        <time>2022-05-21T09:26:36.000Z</time>
      </trkpt>
      <trkpt lat="42.88527" lon="1.21079">
        <ele>524.2</ele>
        <time>2022-05-21T09:26:38.000Z</time>
      </trkpt>
      <trkpt lat="42.8854" lon="1.21084">
        <ele>523.9</ele>
        <time>2022-05-21T09:26:40.000Z</time>
      </trkpt>
      <trkpt lat="42.88553" lon="1.21089">
        <ele>523.7</ele>
        <time>2022-05-21T09:26:42.000Z</time>
      </trkpt>
      <trkpt lat="42.88565" lon="1.21095">
        <ele>523.9</ele>
        <time>2022-05-21T09:26:44.000Z</time>
      </trkpt>
      <trkpt lat="42.88578" lon="1.21101">
        <ele>523.6</ele>
        <time>2022-05-21T09:26:46.000Z</time>
      </trkpt>
      <trkpt lat="42.88591" lon="1.21106">
        <ele>523.4</ele>
        <time>2022-05-21T09:26:48.000Z</time>
      </trkpt>
      <trkpt lat="42.88604" lon="1.21111">
        <ele>523.3</ele>
        <time>2022-05-21T09:26:50.000Z</time>
      </trkpt>
      <trkpt lat="42.88617" lon="1.21117">
        <ele>523.1</ele>
        <time>2022-05-21T09:26:52.000Z</time>
      </trkpt>
      <trkpt lat="42.88629" lon="1.21121">
        <ele>523.1</ele>
        <time>2022-05-21T09:26:54.000Z</time>
      </trkpt>
      <trkpt lat="42.88642" lon="1.21125">
        <ele>523</ele>
        <time>2022-05-21T09:26:56.000Z</time>
      </trkpt>
      <trkpt lat="42.88654" lon="1.21126">
        <ele>522.6</ele>
        <time>2022-05-21T09:26:58.000Z</time>
      </trkpt>
      <trkpt lat="42.88667" lon="1.21126">
        <ele>522.6</ele>
        <time>2022-05-21T09:27:00.000Z</time>
      </trkpt>
      <trkpt lat="42.8868" lon="1.21124">
        <ele>522.5</ele>
        <time>2022-05-21T09:27:02.000Z</time>
      </trkpt>
      <trkpt lat="42.88692" lon="1.21122">
        <ele>522.1</ele>
        <time>2022-05-21T09:27:04.000Z</time>
      </trkpt>
      <trkpt lat="42.88705" lon="1.2112">
        <ele>521.9</ele>
        <time>2022-05-21T09:27:06.000Z</time>
      </trkpt>
      <trkpt lat="42.88717" lon="1.21114">
        <ele>521.9</ele>
        <time>2022-05-21T09:27:08.000Z</time>
      </trkpt>
      <trkpt lat="42.88728" lon="1.21105">
        <ele>521.3</ele>
        <time>2022-05-21T09:27:10.000Z</time>
      </trkpt>
      <trkpt lat="42.88737" lon="1.21091">
        <ele>521.2</ele>
        <time>2022-05-21T09:27:12.000Z</time>
      </trkpt>
      <trkpt lat="42.88744" lon="1.21075">
        <ele>520.8</ele>
        <time>2022-05-21T09:27:14.000Z</time>
      </trkpt>
      <trkpt lat="42.88749" lon="1.21058">
        <ele>521</ele>
        <time>2022-05-21T09:27:16.000Z</time>
      </trkpt>
      <trkpt lat="42.88754" lon="1.2104">
        <ele>520.7</ele>
        <time>2022-05-21T09:27:18.000Z</time>
      </trkpt>
      <trkpt lat="42.8876" lon="1.21024">
        <ele>520.6</ele>
        <time>2022-05-21T09:27:20.000Z</time>
      </trkpt>
      <trkpt lat="42.88769" lon="1.2101">
        <ele>520.8</ele>
        <time>2022-05-21T09:27:22.000Z</time>
      </trkpt>
      <trkpt lat="42.88779" lon="1.20999">
        <ele>520.8</ele>
        <time>2022-05-21T09:27:24.000Z</time>
      </trkpt>
      <trkpt lat="42.88789" lon="1.2099">
        <ele>520.6</ele>
        <time>2022-05-21T09:27:26.000Z</time>
      </trkpt>
      <trkpt lat="42.88801" lon="1.20984">
        <ele>520.6</ele>
        <time>2022-05-21T09:27:28.000Z</time>
      </trkpt>
      <trkpt lat="42.88814" lon="1.20983">
        <ele>520.8</ele>
        <time>2022-05-21T09:27:30.000Z</time>
      </trkpt>
      <trkpt lat="42.88827" lon="1.20988">
        <ele>520</ele>
        <time>2022-05-21T09:27:32.000Z</time>
      </trkpt>
      <trkpt lat="42.88837" lon="1.20998">
        <ele>520.3</ele>
        <time>2022-05-21T09:27:34.000Z</time>
      </trkpt>
      <trkpt lat="42.88845" lon="1.21011">
        <ele>520.4</ele>
        <time>2022-05-21T09:27:36.000Z</time>
      </trkpt>
      <trkpt lat="42.88853" lon="1.21024">
        <ele>520.1</ele>
        <time>2022-05-21T09:27:38.000Z</time>
      </trkpt>
      <trkpt lat="42.88861" lon="1.21035">
        <ele>520.2</ele>
        <time>2022-05-21T09:27:40.000Z</time>
      </trkpt>
      <trkpt lat="42.88871" lon="1.21045">
        <ele>520</ele>
        <time>2022-05-21T09:27:42.000Z</time>
      </trkpt>
      <trkpt lat="42.88881" lon="1.21053">
        <ele>519.9</ele>
        <time>2022-05-21T09:27:44.000Z</time>
      </trkpt>
      <trkpt lat="42.88893" lon="1.21059">
        <ele>519.5</ele>
        <time>2022-05-21T09:27:46.000Z</time>
      </trkpt>
      <trkpt lat="42.88905" lon="1.21063">
        <ele>519.2</ele>
        <time>2022-05-21T09:27:48.000Z</time>
      </trkpt>
      <trkpt lat="42.88918" lon="1.21065">
        <ele>518.8</ele>
        <time>2022-05-21T09:27:50.000Z</time>
      </trkpt>
      <trkpt lat="42.88931" lon="1.21067">
        <ele>519</ele>
        <time>2022-05-21T09:27:52.000Z</time>
      </trkpt>
      <trkpt lat="42.88943" lon="1.21069">
        <ele>518.6</ele>
        <time>2022-05-21T09:27:54.000Z</time>
      </trkpt>
      <trkpt lat="42.88956" lon="1.2107">
        <ele>518</ele>
        <time>2022-05-21T09:27:56.000Z</time>
      </trkpt>
      <trkpt lat="42.88969" lon="1.21072">
        <ele>517.6</ele>
        <time>2022-05-21T09:27:58.000Z</time>
      </trkpt>
      <trkpt lat="42.88981" lon="1.21073">
        <ele>517.5</ele>
        <time>2022-05-21T09:28:00.000Z</time>
      </trkpt>
      <trkpt lat="42.88993" lon="1.21075">
        <ele>517.2</ele>
        <time>2022-05-21T09:28:02.000Z</time>
      </trkpt>
      <trkpt lat="42.89005" lon="1.21076">
        <ele>516.6</ele>
        <time>2022-05-21T09:28:04.000Z</time>
      </trkpt>
      <trkpt lat="42.89017" lon="1.21076">
        <ele>516.1</ele>
        <time>2022-05-21T09:28:06.000Z</time>
      </trkpt>
      <trkpt lat="42.89029" lon="1.21077">
        <ele>516.2</ele>
        <time>2022-05-21T09:28:08.000Z</time>
      </trkpt>
      <trkpt lat="42.8904" lon="1.21076">
        <ele>515.7</ele>
        <time>2022-05-21T09:28:10.000Z</time>
      </trkpt>
      <trkpt lat="42.89051" lon="1.21076">
        <ele>515.5</ele>
        <time>2022-05-21T09:28:12.000Z</time>
      </trkpt>
      <trkpt lat="42.89062" lon="1.21077">
        <ele>515.1</ele>
        <time>2022-05-21T09:28:14.000Z</time>
      </trkpt>
      <trkpt lat="42.89073" lon="1.21077">
        <ele>515</ele>
        <time>2022-05-21T09:28:16.000Z</time>
      </trkpt>
      <trkpt lat="42.89084" lon="1.21077">
        <ele>514.8</ele>
        <time>2022-05-21T09:28:18.000Z</time>
      </trkpt>
      <trkpt lat="42.89095" lon="1.21077">
        <ele>514.5</ele>
        <time>2022-05-21T09:28:20.000Z</time>
      </trkpt>
      <trkpt lat="42.89106" lon="1.21079">
        <ele>514.3</ele>
        <time>2022-05-21T09:28:22.000Z</time>
      </trkpt>
      <trkpt lat="42.89116" lon="1.21081">
        <ele>513.8</ele>
        <time>2022-05-21T09:28:24.000Z</time>
      </trkpt>
      <trkpt lat="42.89127" lon="1.21084">
        <ele>513.5</ele>
        <time>2022-05-21T09:28:26.000Z</time>
      </trkpt>
      <trkpt lat="42.89138" lon="1.21087">
        <ele>513.2</ele>
        <time>2022-05-21T09:28:28.000Z</time>
      </trkpt>
      <trkpt lat="42.89148" lon="1.21092">
        <ele>512.9</ele>
        <time>2022-05-21T09:28:30.000Z</time>
      </trkpt>
      <trkpt lat="42.89159" lon="1.21097">
        <ele>512.6</ele>
        <time>2022-05-21T09:28:32.000Z</time>
      </trkpt>
      <trkpt lat="42.8917" lon="1.21102">
        <ele>511.7</ele>
        <time>2022-05-21T09:28:34.000Z</time>
      </trkpt>
      <trkpt lat="42.89182" lon="1.21107">
        <ele>511.7</ele>
        <time>2022-05-21T09:28:36.000Z</time>
      </trkpt>
      <trkpt lat="42.89195" lon="1.2111">
        <ele>511.6</ele>
        <time>2022-05-21T09:28:38.000Z</time>
      </trkpt>
      <trkpt lat="42.89208" lon="1.21112">
        <ele>511.1</ele>
        <time>2022-05-21T09:28:40.000Z</time>
      </trkpt>
      <trkpt lat="42.89221" lon="1.21114">
        <ele>510.7</ele>
        <time>2022-05-21T09:28:42.000Z</time>
      </trkpt>
      <trkpt lat="42.89235" lon="1.21114">
        <ele>510.4</ele>
        <time>2022-05-21T09:28:44.000Z</time>
      </trkpt>
      <trkpt lat="42.89249" lon="1.21113">
        <ele>510</ele>
        <time>2022-05-21T09:28:46.000Z</time>
      </trkpt>
      <trkpt lat="42.89263" lon="1.21112">
        <ele>509.7</ele>
        <time>2022-05-21T09:28:48.000Z</time>
      </trkpt>
      <trkpt lat="42.89274" lon="1.21112">
        <ele>509.2</ele>
        <time>2022-05-21T09:28:50.000Z</time>
      </trkpt>
      <trkpt lat="42.89286" lon="1.21112">
        <ele>508.8</ele>
        <time>2022-05-21T09:28:52.000Z</time>
      </trkpt>
      <trkpt lat="42.89289" lon="1.21126">
        <ele>508.8</ele>
        <time>2022-05-21T09:28:56.000Z</time>
      </trkpt>
      <trkpt lat="42.89285" lon="1.21138">
        <ele>508.6</ele>
        <time>2022-05-21T09:28:58.000Z</time>
      </trkpt>
      <trkpt lat="42.8928" lon="1.2115">
        <ele>508.2</ele>
        <time>2022-05-21T09:29:00.000Z</time>
      </trkpt>
      <trkpt lat="42.89276" lon="1.21163">
        <ele>507.8</ele>
        <time>2022-05-21T09:29:02.000Z</time>
      </trkpt>
      <trkpt lat="42.89272" lon="1.21176">
        <ele>507.6</ele>
        <time>2022-05-21T09:29:04.000Z</time>
      </trkpt>
      <trkpt lat="42.89267" lon="1.21189">
        <ele>507.7</ele>
        <time>2022-05-21T09:29:06.000Z</time>
      </trkpt>
      <trkpt lat="42.89263" lon="1.21203">
        <ele>507.3</ele>
        <time>2022-05-21T09:29:08.000Z</time>
      </trkpt>
      <trkpt lat="42.89259" lon="1.21216">
        <ele>507.3</ele>
        <time>2022-05-21T09:29:10.000Z</time>
      </trkpt>
      <trkpt lat="42.89255" lon="1.21231">
        <ele>507.1</ele>
        <time>2022-05-21T09:29:12.000Z</time>
      </trkpt>
      <trkpt lat="42.89252" lon="1.21247">
        <ele>506.9</ele>
        <time>2022-05-21T09:29:14.000Z</time>
      </trkpt>
      <trkpt lat="42.8925" lon="1.21261">
        <ele>506.7</ele>
        <time>2022-05-21T09:29:16.000Z</time>
      </trkpt>
      <trkpt lat="42.89248" lon="1.21274">
        <ele>506.5</ele>
        <time>2022-05-21T09:29:18.000Z</time>
      </trkpt>
      <trkpt lat="42.89245" lon="1.2129">
        <ele>506.3</ele>
        <time>2022-05-21T09:29:21.000Z</time>
      </trkpt>
      <trkpt lat="42.89241" lon="1.21302">
        <ele>506.2</ele>
        <time>2022-05-21T09:29:24.000Z</time>
      </trkpt>
      <trkpt lat="42.89243" lon="1.21309">
        <ele>505.4</ele>
        <time>2022-05-21T09:29:29.000Z</time>
      </trkpt>
    </trkseg>
  </trk>
</gpx>